     2              OBSERVATION DATA    G (GPS)             RINEX VERSION / TYPE
ASRINEXO V2.9.9 LH AIUB 01-FEB- 1 16:20                     PGM / RUN BY / DATE
BERN ASHTECH Z-12                                           COMMENT
BIT 2 OF LLI (+4) FLAGS DATA COLLECTED UNDER "AS" CONDITION COMMENT
USNB                                                        MARKER NAME
                                                            OBSERVER / AGENCY
? ASHTECH Z-XII3 1D15                                       REC # / TYPE / VERS
? CHOKE RING                                                ANT # / TYPE
  1112193.4300 -4842882.4000  3985513.9200                  APPROX POSITION XYZ
        0.0000        0.0000        0.0000                  ANTENNA: DELTA H/E/N
     1     1                                                WAVELENGTH FACT L1/2
     5    C1    L1    L2    P1    P2                        # / TYPES OF OBSERV
  2000     4     7     0     0   30.000000                  TIME OF FIRST OBS
                                                            END OF HEADER
 00  4  7  0  0 30.0000000  0  8 23 17 06 13 26 24 10 08
  24748799.275    -1265798.272 7   -975650.08845  24748806.465    24748833.2864
  22825599.605   -11318355.003 8   -987856.49356                  22825610.9194
  21000073.260   -20776695.534 9 -12373738.28347  21000077.543    21000084.9814
  23502037.780    -6453376.567 8  -5014575.21846  23502041.814    23502049.5464
  20542066.634   -22838389.554 9 -17767536.27948  20542068.943    20542074.5284
  22444575.870   -12430033.803 8   7433620.30546  22444580.303    22444588.5334
  21449919.005   -17995087.647 9 -14006761.79147  21449922.100    21449929.5374
  24323982.466    -3716603.269 7  -2884890.10545  24323987.448    24324000.8544
 00  4  7  0  1  0.0000000  0  8 23 17 06 13 26 24 10 08
  24734379.093    -1341626.100 7  -1034736.11645  24734375.223    24734405.4754
  22809048.188   -11405304.287 8
  21001073.888   -20771444.429 9 -12369646.41047  21001076.851    21001084.0954
  23518903.552    -6364738.376 8  -4945506.60045  23518909.078    23518916.3724
  20530563.806   -22898833.044 9 -17814635.06248  20530567.480    20530572.6444
  22457435.918   -12362451.141 8   7486282.20846  22457441.371    22457448.7914
  21461564.294   -17933882.406 9 -13959069.44047  21461569.250    21461577.1044
  24319984.906    -3737607.031 7  -2901256.74245  24319990.399    24320001.6394
 00  4  7  0  1 30.0000000  0  8 23 17 06 13 26 24 10 08
  24719966.730    -1417326.419 7  -1093722.72745  24719967.761    24719998.0944
  22792521.626   -11492161.116 8
  21002184.685   -20765595.819 9 -12365088.93647  21002189.887    21002196.6814
  23535827.306    -6275788.371 8  -4876195.08446  23535835.893    23535842.6474
  20519172.691   -22958698.136 9 -17861283.29248  20519175.391    20519180.9094
  22470338.777   -12294622.072 8   7539136.13746  22470348.912    22470355.9094
  21473249.016   -17872483.880 9 -13911226.50247  21473253.018    21473260.8864
  24316085.377    -3758092.625 7  -2917220.11345  24316092.249    24316105.3074
 00  4  7  0  2  0.0000000  0  8 23 17 06 13 26 24 10 08
  24705583.276    -1492899.880 7  -1152610.31545  24705587.137    24705617.2834
  22776005.403   -11578927.662 8  -1190899.01356  22776013.312    22776022.4304
  21003412.324   -20759164.065 9 -12360077.13447  21003414.573    21003420.7424
  23552811.289    -6186533.646 8  -4806645.67746  23552820.786    23552826.9384
  20507886.846   -23017995.104 9 -17907488.35948  20507891.074    20507895.9764
  22483302.183   -12226548.165 8   7592180.75246  22483302.715    22483310.2704
  21484967.545   -17810900.960 9 -13863239.89847  21484971.597    21484980.0534
  24312284.895    -3778061.291 7  -2932780.13345  24312293.433    24312304.7904
 00  4  7  0  2 30.0000000  0  8 23 17 06 13 26 24 10 08
  24691223.913    -1568364.444 7  -1211412.94745  24691226.842    24691254.6594
  22759511.490   -11665624.830 8  -1258455.13946  22759514.901    22759524.9434
  21004746.131   -20752147.244 9 -12354609.32547  21004749.410    21004756.5304
  23569858.138    -6096970.730 8  -4736856.23346  23569864.114    23569870.8654
  20496707.434   -23076735.196 9 -17953259.58948  20496712.863    20496719.2254
  22496298.435   -12158230.183 8   7645415.58746  22496302.830    22496310.0424
  21496719.180   -17749158.326 9 -13815128.70047  21496721.093    21496729.3664
  24308584.816    -3797525.902 7  -2947947.54145  24308589.671    24308599.9644
 00  4  7  0  3  0.0000000  0  8 23 17 06 13 26 24 10 08
  24676885.498    -1643720.369 7  -1270130.68345  24676887.675    24676914.2224
  22743027.250   -11752256.101 8  -1325960.15046  22743028.501    22743038.8224
  21006191.793   -20744549.062 9 -12348688.44847  21006194.471    21006202.1174
  23586960.836    -6007115.422 8  -4666838.94145  23586963.257    23586969.1624
  20485637.652   -23134927.850 9 -17998604.77748  20485639.411    20485645.1164
  22509345.859   -12089657.280 8   7698849.15446  22509351.789    22509359.0224
  21508493.789   -17687268.412 9 -13766902.71347  21508497.996    21508506.7054
  24304977.010    -3816485.839 7  -2962721.57845  24304982.151    24304992.9604
 00  4  7  0  3 30.0000000  0  8 23 17 06 13 26 24 10 08
  24662568.263    -1718951.826 7  -1328751.29345  24662569.162    24662596.3804
  22726551.184   -11838828.522 8  -1393418.92246  22726555.009    22726565.7534
  21007748.325   -20736361.933 9 -12342308.70447  21007752.834    21007760.2844
  23604112.766    -5916978.073 8  -4596602.18145  23604115.528    23604122.7014
  20474663.091   -23192582.028 9 -18043530.26948  20474668.191    20474674.2684
  22522451.580   -12020812.334 8   7752494.62246  22522452.765    22522459.3724
  21520296.254   -17625240.853 9 -13718569.47747  21520301.173    21520309.9934
  24301465.319    -3834948.978 7  -2977107.71245  24301467.580    24301480.2894
 00  4  7  0  4  0.0000000  0  8 23 17 06 13 26 24 10 08
  24648279.485    -1794044.624 7  -1387263.68545  24648279.706    24648305.5734
  22710087.154   -11925337.513 8  -1460828.90256  22710093.139    22710103.5224
  21009420.333   -20727578.881 9 -12335464.60647  21009424.133    21009430.8234
  23621323.613    -5826545.096 8  -4526135.07845  23621324.285    23621331.1884
  20463798.700   -23249687.598 9 -18088028.24658  20463801.762    20463805.8044
  22535607.541   -11951685.462 8   7806359.73546  22535607.995    22535614.2244
  21532130.024   -17563080.315 9 -13670132.86947  21532130.559    21532139.1474
  24298046.014    -3852927.906 7  -2991116.81945  24298044.511    24298057.5824
 00  4  7  0  4 30.0000000  0  8 23 17 06 13 26 24 10 08
  24634010.175    -1868994.487 7  -1445664.60845  24634015.496    24634041.1764
  22693642.605   -12011775.656 8  -1528183.44546  22693645.721    22693655.4224
  21011208.371   -20718188.892 9 -12328147.64747  21011211.007    21011217.0534
  23638588.808    -5735812.669 8  -4455434.47845  23638588.944    23638595.6694
  20453038.491   -23306229.731 9 -18132086.83448  20453041.814    20453047.9434
  22548808.997   -11882284.927 8   7860438.08546  22548814.018    22548820.1694
  21543985.996   -17500769.817 8 -13621579.29447  21543987.889    21543995.9484
  24294717.419    -3870414.124 7  -3004742.29245  24294718.196    24294729.2804
 00  4  7  0  5  0.0000000  0  8 23 17 06 13 26 24 10 08
  24619777.700    -1943793.353 7  -1503947.76245  24619780.134    24619805.2474
  22677198.834   -12098135.152 8  -1595476.35656  22677210.575    22677221.1614
  21013111.078   -20708185.812 9 -12320352.86647  21013114.071    21013120.0984
  23655907.275    -5644795.485 8  -4384511.74345  23655908.951    23655917.3344
  20442389.257   -23362192.579 9 -18175694.34748  20442392.299    20442398.2064
  22562070.934   -11812609.282 8   7914730.77246  22562073.188    22562080.3324
  21555874.294   -17438295.757 9 -13572898.09647  21555876.257    21555884.5464
  24291483.818    -3887404.484 7  -3017981.61845  24291486.069    24291497.7104
 00  4  7  0  5 30.0000000  0  8 23 17 06 13 26 24 10 08
  24605564.913    -2018442.394 7  -1562114.23745  24605575.019    24605598.1564
  22660789.303   -12184422.196 8  -1662713.77856  22660791.887    22660804.8564
  21015131.878   -20697570.042 9 -12312080.70647  21015134.019    21015140.8414
  23673281.418    -5553493.598 8  -4313367.55545  23673283.925    23673291.1064
  20431850.001   -23417569.815 9 -18218845.41048  20431854.665    20431860.1114
  22575376.630   -11742684.913 8   7969217.29746  22575379.186    22575385.7984
  21567796.019   -17375652.168 9 -13524085.00247  21567797.098    21567805.0304
  24288332.336    -3903907.281 7  -3030840.77745  24288343.903    24288356.9044
 00  4  7  0  6  0.0000000  0  8 23 17 06 13 26 24 10 08
  24591385.820    -2092964.268 7  -1620181.73145  24591390.486    24591413.7194
  22644379.833   -12270627.250 8
  21017268.558   -20686340.941 9 -12303330.66747  21017270.864    21017277.2104
  23690710.320    -5461909.376 8  -4242003.49645  23690711.424    23690720.0524
  20421426.111   -23472356.060 9 -18261535.94348  20421428.937    20421434.3244
  22588724.526   -11672531.818 8   8023882.04846  22588728.583    22588734.2754
  21579750.690   -17312840.606 9 -13475140.97947  21579749.689    21579758.1244
  24285304.150    -3919908.308 7  -3043308.79845  24285298.387    24285312.1904
 00  4  7  0  6 30.0000000  0  8 23 17 06 13 26 24 10 08
  24577225.028    -2167383.095 7  -1678169.02345  24577227.152    24577250.5944
  22627998.188   -12356755.500 8  -1797000.17256  22627998.114    22628008.1184
  21019523.965   -20674491.547 9 -12294097.33847  21019526.033    21019532.1344
  23708191.738    -5370049.793 8  -4170424.81146  23708192.198    23708200.6204
  20411107.579   -23526565.665 9 -18303777.30848  20411113.029    20411119.0624
  22602120.117   -11602147.089 8   8078727.18946  22602122.272    22602128.5064
  21591730.514   -17249879.751 9 -13426080.70647  21591731.499    21591738.5594
  24282341.309    -3935395.812 7  -3055376.20645  24282352.745    24282364.1834
 00  4  7  0  7  0.0000000  0  8 23 17 06 13 26 24 10 08
  24563082.798    -2241695.590 7  -1736073.39745  24563087.139    24563110.3504
  22611621.828   -12442798.320 8                                  22611624.884
  21021895.695   -20662022.056 9 -12284380.68247  21021898.884    21021904.8534
  23725721.947    -5277920.223 8  -4098635.84645  23725724.346    23725732.3774
  20400903.370   -23580208.089 9 -18345576.44248  20400905.403    20400910.7984
  22615558.578   -11531530.271 8   8133753.13846  22615560.952    22615567.4844
  21603735.103   -17186778.813 9 -13376911.14747  21603738.653    21603746.3024
  24279506.881    -3950365.036 7  -3067040.01845  24279503.315    24279514.9284
 00  4  7  0  7 30.0000000  0  8 23 17 06 13 26 24 10 08
  24548948.750    -2315904.677 7  -1793896.93445  24548960.961    24548986.4584
  22595263.960   -12528747.061 8  -1931019.52956  22595268.668    22595287.9014
  21024385.144   -20648941.128 9 -12274187.54847  21024387.764    21024393.9334
  23743301.866    -5185512.772 8  -4026630.14545  23743308.548    23743315.7524
  20390801.963   -23633290.886 9 -18386939.51248  20390804.264    20390809.0784
  22629036.591   -11460689.579 8   8188953.67746  22629040.574    22629047.9554
  21615768.727   -17123541.893 9 -13327635.81847  21615772.276    21615780.8854
  24276747.375    -3964807.024 7  -3078292.91945  24276754.074    24276766.1294
 00  4  7  0  8  0.0000000  0  8 23 17 06 13 26 24 10 08
  24534853.996    -2390010.732 7  -1851639.78545  24534858.293    24534882.5094
  22578935.849   -12614593.863 8
  21026987.111   -20635255.959 9 -12263523.59147  21026991.342    21026997.2984
  23760942.916    -5092819.299 8  -3954401.45245  23760947.528    23760955.3334
  20380807.821   -23685807.876 9 -18427861.84048  20380810.247    20380815.6584
  22642563.068   -11389611.465 8   8244339.15846  22642566.688    22642573.8064
  21627829.541   -17060171.190 9 -13278256.08147  21627831.152    21627839.0604
  24274108.796    -3978708.803 7  -3089124.57845  24274107.245    24274118.7334
 00  4  7  0  8 30.0000000  0  8 23 17 06 13 26 24 10 08
  24520776.359    -2463998.309 7  -1909289.93745  24520778.893    24520800.1214
  22562613.940   -12700338.178 8
  21029702.929   -20620987.751 9 -12252405.34347  21029706.347    21029712.4384
  23778636.674    -4999843.644 8  -3881952.92545  23778640.761    23778648.6364
  20370918.025   -23737754.955 9 -18468339.97548  20370925.014    20370930.8954
  22656135.248   -11318290.064 8   8299914.33646  22656139.495    22656145.1614
  21639913.623   -16996658.451 9 -13228765.63647  21639917.281    21639925.5094
  24271563.606    -3992074.610 7  -3099538.85545  24271564.004    24271573.6374
 00  4  7  0  9  0.0000000  0  8 23 17 06 13 26 24 10 08
  24506716.281    -2537844.603 7  -1966829.81345  24506723.074    24506746.2024
  22546316.227   -12785989.077 8
  21032526.086   -20606155.011 9 -12240847.23647  21032529.079    21032535.2834
  23796377.325    -4906602.643 8  -3809297.64045  23796384.228    23796391.0424
  20361147.420   -23789125.198 9 -18508368.83948  20361149.383    20361155.4894
  22669749.916   -11246737.788 8   8355669.38746  22669754.219    22669761.0824
  21652031.680   -16932986.727 9 -13179151.40747  21652034.064    21652041.8314
  24269125.811    -4004908.893 7  -3109539.13045  24269121.125    24269132.7524
 00  4  7  0  9 30.0000000  0  8 23 17 06 13 26 24 10 08
  24492686.412    -2611552.595 7  -2024261.83045  24492695.573    24492716.9714
  22530032.274   -12871555.671 8
  21035454.443   -20590767.990 9 -12228857.29447  21035456.778    21035463.7364
  23814167.378    -4813094.648 8  -3736434.25745  23814178.062    23814185.3004
  20351482.003   -23839909.677 9 -18547941.43648  20351485.926    20351491.6264
  22683411.354   -11174941.660 8   8411614.38246  22683417.665    22683424.2304
  21664178.366   -16869163.927 9 -13129419.29847  21664179.485    21664186.9984
  24266772.374    -4017217.573 7  -3119130.05145  24266779.449    24266789.7274
 00  4  7  0 10  0.0000000  0  8 23 17 06 13 26 24 10 08
  24478696.147    -2685108.789 7  -2081575.34345  24478694.981    24478715.3454
  22513763.467   -12957044.235 8   -116103.82556  22513766.596    22513777.0794
  21038488.166   -20574820.928 9 -12216431.01847  21038491.871    21038498.2734
  23832019.281    -4719333.276 8  -3663373.75045  23832020.788    23832026.9304
  20341929.596   -23890102.880 9 -18587052.76948  20341934.217    20341940.0324
  22697125.953   -11102894.181 8   8467755.27146  22697127.654    22697134.1094
  21676352.541   -16805183.378 9 -13079564.50547  21676354.254    21676362.2104
  24264537.108    -4029004.930 7  -3128314.82245  24264535.397    24264547.0704
 00  4  7  0 10 30.0000000  0  8 23 17 06 13 26 24 10 08
  24464725.935    -2758513.340 7  -2138770.54145  24464722.768    24464746.3754
  22497507.551   -13042446.486 8
  21041631.802   -20558302.523 9 -12203559.50247  21041634.903    21041640.9364
  23849910.074    -4625328.749 8  -3590123.92246  23849908.840    23849917.6324
  20332489.255   -23939713.850 9 -18625711.02348  20332493.884    20332499.6714
  22710877.644   -11030595.193 8   8524092.26046  22710884.793    22710892.1004
  21688557.664   -16741036.851 8 -13029580.22747  21688560.506    21688568.8404
  24262384.404    -4040280.913 7  -3137100.99345  24262389.581    24262399.8464
 00  4  7  0 11  0.0000000  0  8 23 17 06 13 26 24 10 08
  24450774.823    -2831777.589 7  -2195856.23745  24450780.801    24450800.9974
  22481277.839   -13127760.612 8   -249128.69656                  22481291.4184
  21044888.531   -20541189.856 9 -12190224.94647  21044891.735    21044897.8354
  23867835.479    -4531075.144 8  -3516679.67245  23867844.934    23867852.0814
  20323162.541   -23988738.416 9 -18663911.90748  20323164.711    20323170.1694
  22724687.090   -10958047.848 8   8580622.64946  22724690.743    22724697.2444
  21700794.681   -16676727.113 8 -12979469.35947  21700798.756    21700806.3704
  24260343.552    -4051049.528 7  -3145491.54745  24260340.637    24260350.2464
 00  4  7  0 11 30.0000000  0  8 23 17 06 13 26 24 10 08
  24436853.626    -2904915.539 7  -2252843.79545  24436860.589    24436879.6834
  22465062.137   -13212979.566 8   -315533.52156  22465064.250    22465071.6654
  21048260.678   -20523474.119 9 -12176420.49847  21048262.604    21048268.6934
  23885825.844    -4436558.632 8  -3443030.56045  23885830.401    23885839.0174
  20313943.957   -24037174.008 9 -18701654.31348  20313947.874    20313953.7194
  22738539.769   -10885243.538 8   8637353.29346  22738545.246    22738551.5874
  21713066.298   -16612250.284 9 -12929227.89747  21713068.616    21713076.2654
  24258388.580    -4061307.244 7  -3153484.08945  24258388.473    24258397.8664
 00  4  7  0 12  0.0000000  0  8 23 17 06 13 26 24 10 08
  24422959.280    -2977928.957 7  -2309734.63445  24422964.247    24422983.4594
  22448861.142   -13298100.542 8   -381861.76746  22448866.173    22448874.0994
  21051745.981   -20505154.163 9 -12162145.21847  21051749.038    21051755.7564
  23903861.221    -4341785.162 8  -3369181.15345  23903865.078    23903873.8744
  20304838.195   -24085025.266 9 -18738941.29948  20304842.408    20304848.5964
  22752440.576   -10812185.401 8   8694281.68846  22752447.261    22752453.6524
  21725366.730   -16547604.072 9 -12878854.24547  21725370.589    21725377.9854
  24256520.415    -4071053.371 7  -3161078.20045  24256533.444    24256544.7994
 00  4  7  0 12 30.0000000  0  8 23 17 06 13 26 24 10 08
  24409087.857    -3050825.805 7  -2366534.84745  24409091.254    24409109.0734
  22432685.527   -13383118.259 8   -448110.16146  22432688.149    22432696.5624
  21055345.863   -20486238.513 9 -12147405.75047  21055348.794    21055355.3654
  23921944.398    -4246743.710 8  -3295122.90745  23921951.415    23921958.4234
  20295846.068   -24132285.345 9 -18775766.83458  20295848.949    20295853.9694
  22766395.303   -10738861.568 8   8751417.17646  22766399.832    22766407.3264
  21737696.175   -16482803.279 8 -12828359.97947  21737701.549    21737709.0644
  24254786.237    -4080285.495 7  -3168272.07245  24254774.978    24254786.9044
 00  4  7  0 13  0.0000000  0  8 23 17 06 13 26 24 10 08
  24395233.297    -3123601.715 7  -2423241.05645  24395239.200    24395257.5834
  22416522.223   -13468040.528 8   -514284.35346  22416528.427    22416535.5374
  21059059.265   -20466727.257 9 -12132202.16147  21059061.555    21059067.5174
  23940088.579    -4151445.755 8  -3220864.62145  23940086.111    23940094.1074
  20286967.061   -24178944.878 9 -18812124.90248  20286969.964    20286975.6604
  22780402.755   -10665263.184 8   8808766.52346  22780405.957    22780412.5374
  21750059.193   -16417870.247 9 -12777762.72147  21750058.032    21750065.6504
  24253117.937    -4088993.703 7  -3175057.28345  24253118.485    24253129.3714
 00  4  7  0 13 30.0000000  0  8 23 17 06 13 26 24 10 08
  24381414.584    -3196238.135 7  -2479838.63245  24381416.967    24381433.8854
  22400387.495   -13552855.928 8   -580374.36856  22400389.876    22400396.7834
  21062880.589   -20446631.032 9 -12116542.72347  21062885.214    21062891.2174
  23958264.291    -4055899.157 8  -3146412.65545  23958267.835    23958276.0154
  20278202.087   -24225000.269 9 -18848012.48148  20278206.070    20278211.6534
  22794456.893   -10591384.962 8   8866334.01546  22794464.438    22794471.5094
  21762435.202   -16352812.685 9 -12727068.59547  21762438.163    21762446.3324
  24251564.817    -4097167.740 7  -3181426.08545  24251564.022    24251572.7014
 00  4  7  0 14  0.0000000  0  8 23 17 06 13 26 24 10 08
  24367613.535    -3268737.173 7  -2536329.46945  24367618.599    24367634.4874
  22384268.480   -13637549.495 8   -646369.41446  22384273.227    22384280.4714
  21066822.063   -20425937.366 9 -12100417.84147  21066823.632    21066829.8114
  23976492.840    -3960109.809 8  -3071771.44045  23976497.584    23976504.0634
  20269555.010   -24270444.547 9
  22808569.757   -10517237.011 8   8924111.73646  22808573.922    22808581.2804
  21774837.736   -16287642.531 9 -12676286.71647  21774839.734    21774847.4804
  24250113.731    -4104799.825 7  -3187372.76345  24250108.244    24250121.5444
 00  4  7  0 14 30.0000000  0  8 23 17 06 13 26 24 10 08
  24353846.711    -3341097.635 7  -2592712.35845  24353845.908    24353863.5294
  22368178.794   -13722105.553 8
  21070872.755   -20404640.120 9 -12083822.65947  21070875.992    21070882.0484
  23994767.470    -3864081.309 8  -2996944.22145  23994771.006    23994776.9584
  20261025.244   -24315276.113 9
  22822728.306   -10442838.052 8   8982084.99346  22822731.763    22822738.5584
  21787261.527   -16222356.270 8 -12625414.06547  21787262.279    21787271.1434
  24248762.787    -4111880.245 7  -3192889.55045  24248761.932    24248771.6624
 00  4  7  0 15  0.0000000  0  8 23 17 06 13 26 24 10 08
  24340101.449    -3413310.877 8  -2648980.83645  24340105.216    24340119.8364
  22352108.117   -13806527.966 8   -778040.00856                  22352123.4434
  21075039.196   -20382744.223 9 -12066760.94447  21075042.277    21075048.6824
  24013077.111    -3767829.740 8  -2921943.36745  24013086.549    24013094.0734
  20252605.916   -24359507.666 9
  22836928.790   -10368211.135 8   9040235.87446  22836932.778    22836939.1084
  21799710.349   -16156942.694 8 -12574442.49547  21799710.279    21799718.9524
  24247516.586    -4118402.070 7  -3197970.80645  24247521.649    24247530.3344
 00  4  7  0 15 30.0000000  0  8 23 17 06 13 26 24 10 08
  24326387.228    -3485381.768 7  -2705138.54245  24326388.869    24326404.6384
  22336068.957   -13890811.336 8                                  22336076.120
  21079317.584   -20360259.906 9 -12049240.78347  21079321.105    21079327.2894
  24031453.549    -3671336.166 8  -2846753.83945  24031448.338    24031456.9824
  20244301.460   -24403145.929 9 -18986827.53058  20244306.556    20244311.6164
  22851169.684   -10293370.507 8   9098553.35046  22851174.745    22851180.3454
  21812183.536   -16091381.122 8 -12523355.19047  21812186.164    21812194.1504
  24246386.297    -4124371.055 7  -3202621.68445  24246385.009    24246396.4194
 00  4  7  0 16  0.0000000  0  8 23 17 06 13 26 24 10 08
  24312696.512    -3557332.907 8  -2761202.87445  24312696.016    24312710.4614
  22320060.111   -13974973.262 8   -909296.20856  22320061.701    22320068.4744
  21083707.271   -20337200.012 9 -12031272.09347  21083709.801    21083716.1354
  24049850.450    -3574604.724 7  -2771378.91545  24049854.894    24049864.1654
  20236109.281   -24446204.250 9
  22865452.746   -10218321.843 8   9157033.03646  22865455.452    22865461.6964
  21824686.701   -16025668.672 8 -12472150.59447  21824690.632    21824699.0494
  24245337.159    -4129800.633 7  -3206852.87345  24245351.536    24245361.1364
 00  4  7  0 16 30.0000000  0  8 23 17 06 13 26 24 10 08
  24299020.787    -3629155.129 8  -2817166.81645  24299027.123    24299041.6614
  22304062.377   -14059042.120 8                                  22304064.288
  21088197.892   -20313591.332 9 -12012875.70047  21088202.202    21088208.3004
  24068300.188    -3477645.344 8  -2695826.40245  24068307.014    24068315.3354
  20228025.222   -24488694.002 9
  22879771.958   -10143051.752 8   9215684.97846  22879778.522    22879785.5894
  21837222.548   -15959808.749 8 -12420831.43847  21837223.939    21837232.3364
  24244413.876    -4134710.487 7  -3210679.72345  24244417.327    24244428.0334
 00  4  7  0 17  0.0000000  0  8 23 17 06 13 26 24 10 08
  24285378.457    -3700856.000 8  -2873036.01045  24285382.638    24285395.5994
  22288076.845   -14143036.828 8  -1040253.31257  22288079.229    22288087.3594
  21092795.139   -20289434.055 9 -11994051.78047  21092799.328    21092805.1974
  24086803.227    -3380459.984 8                                  24086799.750
  20220046.656   -24530604.529 9
  22894143.427   -10067548.856 8   9274518.10746  22894146.690    22894154.0164
  21849780.748   -15893815.241 9 -12369408.54647  21849782.596    21849790.6654
  24243581.570    -4139114.919 7  -3214113.00445  24243579.721    24243591.4254
 00  4  7  0 17 30.0000000  0  8 23 17 06 13 26 24 10 08
  24271749.826    -3772462.377 8  -2928831.33745  24271753.444    24271766.2534
  22272107.763   -14226955.686 8
  21097498.718   -20264715.885 9 -11974790.88847  21097502.945    21097509.0794
  24105338.903    -3283039.576 8  -2544187.08455  24105340.958    24105348.2184
  20212185.948   -24571931.240 9
  22908554.204    -9991804.303 8   9333539.68946  22908560.702    22908567.1154
  21862365.541   -15827695.160 8 -12317886.71847  21862364.782    21862373.2464
  24242842.592    -4143026.600 7                                  24242834.499
 00  4  7  0 18  0.0000000  0  8 23 17 06 13 26 24 10 08
  24258147.272    -3843965.841 8  -2984546.69845  24258145.494    24258159.8574
  22256152.455   -14310791.102 8
  21102310.979   -20239423.676 9 -11955082.69347  21102315.360    21102321.9224
  24123910.863    -3185408.767 8  -2468111.01845  24123919.013    24123926.3794
  20204429.522   -24612673.567 9
  22923016.185    -9915807.182 8   9392758.20446  22923022.564    22923029.5934
  21874965.441   -15761466.538 8 -12266280.42347  21874967.751    21874977.0714
  24242183.886    -4146454.308 7
 00  4  7  0 18 30.0000000  0  8 23 17 06 13 26 24 10 08
  24244560.350    -3915350.403 8  -3040169.72745  24244561.590    24244574.6334
  22240221.293   -14394514.772 8
  21107238.767   -20213530.392 9 -11934906.00347  21107242.544    21107249.2714
  24142535.524    -3087574.346 8
  20196793.162   -24652814.052 9
  22937530.587    -9839558.078 8   9452172.85246  22937532.854    22937539.2614
  21887589.341   -15695132.345 8 -12214591.88647  21887591.458    21887599.8214
  24241632.615    -4149369.199 7
 00  4  7  0 19  0.0000000  0  8 23 17 06 13 26 24 10 08
  24230990.238    -3986629.587 8  -3095710.57845  24230997.239    24231008.9904
  22224322.288   -14478099.779 8
  21112284.195   -20187022.133 9 -11914250.27247  21112287.374    21112294.1804
  24161189.282    -2989533.144 7
  20189274.587   -24692339.065 9    -41462.94058  20189275.930    20189284.2034
  22952077.038    -9763063.193 8   9511779.01446  22952088.405    22952095.2074
  21900236.135   -15628683.697 9 -12162814.68547  21900237.505    21900245.4744
  24241178.650    -4151755.953 7
 00  4  7  0 19 30.0000000  0  8 23 17 06 13 26 24 10 08
  24217449.484    -4057798.579 8  -3151165.57745  24217452.953    24217464.4974
  22208440.262   -14561530.217 8    -88380.90557  22208442.891    22208452.7914
  21117443.837   -20159907.920 9 -11893122.55247  21117447.363    21117453.6114
  24179894.234    -2891284.672 8  -2238927.70155                  24179900.7994
  20181868.200   -24731246.532 9    -71780.92148  20181872.204    20181877.8534
  22966691.047    -9686321.584 8   9571577.20146  22966692.591    22966698.9154
  21912904.105   -15562113.612 9 -12110942.56847  21912905.977    21912913.6764
  24240822.037    -4153594.328 7
 00  4  7  0 20  0.0000000  0  8 23 17 06 13 26 24 10 08
  24203928.131    -4128838.098 8  -3206520.22045  24203933.156    24203945.0154
  22192591.008   -14644808.638 8   -153273.76747  22192596.337    22192605.6954
  21122716.392   -20132201.627 9 -11871533.59047  21122719.748    21122726.0574
  24198621.993    -2792840.863 8  -2162219.98745  24198628.560    24198640.0474
  20174585.373   -24769522.872 9   -101607.46648  20174588.834    20174595.3414
  22981346.066    -9609331.989 8   9631568.40546  22981343.400    22981350.6874
  21925592.409   -15495435.377 8 -12058986.80847  21925594.853    21925603.9944
  24240594.251    -4154857.546 7
 00  4  7  0 20 30.0000000  0  8 23 17 06 13 26 24 10 08
  24190433.900    -4199767.292 8  -3261789.41945  24190436.776    24190447.1934
  22176773.955   -14727942.172 8   -218053.98747  22176777.239    22176786.7834
  21128096.590   -20103919.392 9 -11849495.77147  21128101.868    21128108.6214
  24217395.690    -2694192.509 8
  20167422.155   -24807162.510 9   -130937.24348  20167426.236    20167432.5134
  22996036.334    -9532102.272 8   9691746.90646  22996041.004    22996047.9424
  21938303.102   -15428637.762 8 -12006937.53847  21938306.569    21938315.6424
  24240462.716    -4155527.987 7
 00  4  7  0 21  0.0000000  0  8 23 17 06 13 26 24 10 08
  24176955.142    -4270592.685 8  -3316978.09545  24176957.901    24176969.0484
  22160978.511   -14810946.878 8   -282733.50147  22160982.751    22160992.3164
  21133586.780   -20075078.093 9 -11827022.49247  21133590.977    21133597.7434
  24236206.084    -2595341.013 8  -2008326.57455                  24236225.3364
  20160380.138   -24844175.130 9   -159778.69048  20160383.500    20160389.6514
  23010785.482    -9454629.604 8   9752114.30746  23010784.879    23010792.3004
  21951036.476   -15361725.002 8 -11954797.74647  21951039.980    21951048.7254
  24240457.148    -4155613.693 7
 00  4  7  0 21 30.0000000  0  8 23 17 06 13 26 24 10 08
  24163495.666    -4341293.338 7  -3372069.66345  24163502.920    24163516.2744
  22145205.892   -14893835.188 8   -347322.20347  22145209.368    22145219.2004
  21139184.685   -20045669.328 9 -11804107.24447  21139187.873    21139194.4884
  24255061.335    -2496295.083 8
  20153453.404   -24880571.095 9   -188139.18348  20153457.606    20153463.3834
  23025569.863    -9376915.881 8   9812669.50246  23025572.569    23025579.9014
  21963786.823   -15294708.974 8 -11902577.59947  21963791.861    21963803.3924
  24240546.743    -4155124.368 7
 00  4  7  0 22  0.0000000  0  8 23 17 06 13 26 24 10 08
  24150077.059    -4411856.019 8  -3427053.40745  24150077.018    24150087.5344
  22129452.786   -14976614.506 8   -411826.20247  22129457.417    22129468.0624
  21144889.616   -20015684.450 9 -11780742.82747  21144893.559    21144900.8644
  24273945.016    -2397050.073 8
  20146642.622   -24916364.622 9   -216030.59548  20146646.491    20146652.8554
  23040406.853    -9298958.380 8   9873415.45256  23040407.322    23040416.7094
  21976566.351   -15227580.001 8                                  21976567.900
  24240754.262    -4154074.805 7
 00  4  7  0 22 30.0000000  0  8 23 17 06 13 26 24 10 08
  24136674.553    -4482276.076 8  -3481925.24345  24136675.712    24136687.9294
  22113723.623   -15059271.587 8                                  22113729.119
  21150707.700   -19985118.774 9 -11756925.89547  21150710.803    21150717.8284
  24292871.561    -2297608.793 8
  20139946.017   -24951560.679 9   -243456.53648  20139949.243    20139955.9044
  23055284.262    -9220759.609 8   9934348.66746  23055288.960    23055297.1854
  21989367.088   -15160308.507 8 -11797854.22157  21989371.770    21989381.8454
  24241046.312    -4152480.965 7
 00  4  7  0 23  0.0000000  0  8 23 17 06 13 26 24 10 08
  24123302.015    -4552529.915 7  -3536668.90755  24123304.628    24123319.6074
  22098027.152   -15141795.674 8
  21156634.882   -19953972.065 9 -11732655.97147  21156638.203    21156645.1044
  24311827.797    -2197973.033 8
  20133362.984   -24986157.743 9   -270415.80548  20133366.175    20133372.9864
  23070211.962    -9142321.852 8   9995468.78446  23070214.938    23070223.9384
  22002197.870   -15092900.452 8
  24241449.415    -4150363.757 7      2686.40555                  24241468.8014
 00  4  7  0 23 30.0000000  0  8 23 17 06 13 26 24 10 08
  24109965.699    -4622608.268 8  -3591276.25145  24109971.924    24109984.0514
  22082348.931   -15224165.942 8
  21162670.043   -19922255.664 9 -11707942.52447  21162673.431    21162681.5094
  24330830.698    -2098137.672 8
  20126892.110   -25020157.642 9   -296909.84048  20126896.458    20126903.2544
  23085180.273    -9063648.885 8  10056771.43456  23085187.223    23085196.1034
  22015052.059   -15025346.991 8 -11692692.42557                  22015065.5204
  24241947.811    -4147709.054 7
 00  4  7  0 24  0.0000000  0  8 23 17 06 13 26 24 10 08
  24096659.460    -4692523.526 7  -3645756.49945  24096667.195    24096679.1884
  22066707.671   -15306372.457 8
  21168809.814   -19889993.040 9 -11682803.21747  21168812.763    21168820.2314
  24349860.883    -1998103.366 7
  20120539.771   -25053552.023 9   -322931.94448  20120542.121    20120548.7694
  23100206.081    -8984731.171 8  10118265.06446  23100205.988    23100212.2934
  22027937.654   -14957634.362 8 -11639929.49057  22027941.278    22027952.3574
  24242559.655    -4144523.218 7
 00  4  7  0 24 30.0000000  0  8 23 17 06 13 26 24 10 08
  24083390.661    -4762285.327 8  -3700116.49945  24083394.064    24083403.0004
  22051095.044   -15388403.621 9
  21175053.522   -19857186.249 9 -11657239.69347  21175056.021    21175064.0284
  24368939.630    -1897866.640 8
  20114300.842   -25086335.837 9   -348477.93848  20114304.044    20114310.7744
  23115270.426    -8905573.770 8  10179945.10246  23115270.184    23115277.2894
  22040847.834   -14889786.164 8 -11587060.50547  22040851.966    22040863.3954
  24243274.254    -4140800.493 7
 00  4  7  0 25  0.0000000  0  8 23 17 06 13 26 24 10 08
  24070145.260    -4831899.491 8                  24070145.623
  22035522.129   -15470270.855 8
  21181399.863   -19823830.832 9 -11631248.41747  21181403.456    21181411.0584
  24388051.591    -1797421.401 8                                  24388056.219
  20108179.916   -25118504.146 9   -373543.73748  20108182.018    20108189.0044
  23130369.908    -8826175.943 8  10241813.49456  23130378.173    23130385.0414
  22053781.496   -14821837.503 8
  24244081.948    -4136529.434 7
 00  4  7  0 25 30.0000000  0  8 23 17 06 13 26 24 10 08
  24056918.537    -4901387.694 8  -3808506.16955  24056920.210    24056933.7734
  22019968.740   -15551974.356 8
  21187854.143   -19789919.832 9 -11604824.07047  21187856.421    21187864.0064
  24407204.785    -1696783.019 8                                  24407205.063
  20102177.202   -25150044.089 9   -398120.29448  20102180.499    20102187.0684
  23145526.991    -8746532.221 8  10303873.08546  23145533.907    23145544.5094
  22066735.364   -14753770.445 8
  24244988.917    -4131718.127 7
 00  4  7  0 26  0.0000000  0  8 23 17 06 13 26 24 10 08
  24043715.425    -4970765.829 8  -3862566.93045  24043718.085    24043729.8824
  22004452.423   -15633528.693 8
  21194412.329   -19755435.155 9 -11577952.83347  21194418.357    21194426.7834
  24426391.405    -1595955.425 7                                  24426389.208
  20096296.691   -25180942.144 9   -422196.73248  20096300.885    20096307.3174
  23160732.925    -8666654.639 8  10366114.84546  23160734.966    23160742.8214
  22079709.826   -14685597.307 8
  24246005.912    -4126374.669 8
 00  4  7  0 26 30.0000000  0  8 23 17 06 13 26 24 10 08
  24030537.338    -5040039.186 8  -3916546.62145  24030538.036    24030550.4614
  21988961.392   -15714939.101 8
  21201088.354   -19720363.734 9 -11550624.55247  21201093.016    21201100.2344
  24445598.037    -1494953.292 8    390157.14955  24445609.349    24445623.8934
  20090540.108   -25211189.943 9   -445766.39948  20090544.025    20090551.4824
  23175970.377    -8586566.523 8  10428520.64546  23175975.116    23175985.7774
  22092697.722   -14617338.900 8
  24247132.621    -4120495.886 7
 00  4  7  0 27  0.0000000  0  8 23 17 06 13 26 24 10 08
  24017371.806    -5109208.048 8  -3970445.01345  24017375.902    24017386.9754
  21973491.913   -15796212.561 9                                  21973497.061
  21207873.183   -19684716.797 9
  24464855.980    -1393793.653 8    468983.50045  24464858.017    24464874.1364
  20084906.480   -25240790.990 9   -468831.96348  20084911.126    20084918.4834
  23191256.604    -8506272.844 8  10491087.00246  23191255.154    23191263.5884
  22105701.239   -14548989.333 8     67927.62057  22105705.909    22105717.8984
  24248352.162    -4114085.367 7
 00  4  7  0 27 30.0000000  0  8 23 17 06 13 26 24 10 08
  24004227.400    -5178283.137 8
  21958054.313   -15877356.813 9   -122904.14457  21958057.052    21958067.4014
  21214767.519   -19648495.006 9
  24484135.332    -1292477.859 7
  20079393.837   -25269770.718 9   -491413.54648  20079396.777    20079403.8814
  23206569.485    -8425773.423 8
  22118731.533   -14480537.252 9    121267.66047  22118730.549    22118742.2364
  24249673.482    -4107146.592 7
 00  4  7  0 28  0.0000000  0  8 23 17 06 13 26 24 10 08
  23991104.220    -5247251.858 8
  21942633.554   -15958384.141 8   -186041.77447  21942636.990    21942647.1874
  21221765.148   -19611712.751 9 -11465961.42957  21221769.175    21221778.3554
  24503460.379    -1191000.302 8
  20073991.984   -25298153.930 9   -513530.48048  20073995.402    20074002.9814
  23221930.238    -8345063.413 8
  22131768.980   -14411997.142 8    174676.50647  22131772.718    22131784.5104
  24251102.053    -4099659.183 7
 00  4  7  0 28 30.0000000  0  8 23 17 06 13 26 24 10 08
  23978003.042    -5316105.769 8
  21927241.141   -16039282.308 8   -249079.41147  21927243.331    21927253.7134
  21228867.221   -19574392.082 9 -11436880.23747  21228871.248    21228878.3574
  24522791.606    -1089360.526 7
  20068700.328   -25325956.030 9   -535194.56648  20068705.111    20068712.0564
  23237330.564    -8264119.561 8  10679776.81156  23237336.418    23237346.0554
  22144831.232   -14343356.218 8    228163.69647  22144833.618    22144845.7224
  24252620.892    -4091618.731 7      9677.44154                  24252636.6354
 00  4  7  0 29  0.0000000  0  8 23 17 06 13 26 24 10 08
  23964921.445    -5384840.247 8  -4185225.39755  23964927.898    23964938.7644
  21911871.417   -16120042.604 8   -312009.73347  21911875.206    21911883.8674
  21236069.375   -19536547.723 9 -11407391.09547  21236072.597    21236080.0064
  24542162.603     -987547.051 7
  20063522.067   -25353180.896 9   -556408.88448  20063524.664    20063531.5704
  23252785.354    -8182923.096 8  10743046.93556  23252786.761    23252796.8844
  22157919.846   -14274586.835 8    281750.95047  22157919.380    22157930.5084
  24254274.906    -4083020.396 7     16379.58455  24254259.699    24254270.1134
 00  4  7  0 29 30.0000000  0  8 23 17 06 13 26 24 10 08
  23951862.299    -5453453.316 8  -4238690.25545  23951867.411    23951877.8674
  21896535.172   -16200636.945 9   -374810.57547  21896539.058    21896547.4044
  21243371.539   -19498179.215 9 -11377493.44047  21243373.556    21243381.4154
  24561569.836     -885553.128 7    127795.73154  24561575.027    24561580.1504
  20058453.321   -25379810.140 9   -577158.83448  20058457.044    20058463.9804
  23268283.375    -8101467.988 8  10806518.85646  23268287.912    23268297.7024
  22171033.258   -14205680.060 8    335445.02347  22171032.176    22171042.6914
  24255994.232    -4073863.626 7     23516.05955  24255999.902    24256012.4354
 00  4  7  0 30  0.0000000  0  8 23 17 06 13 26 24 10 08
  23938837.055    -5521928.463 8  -4292046.94845  23938836.953    23938848.1874
  21881234.101   -16281041.393 9   -437462.59057  21881236.749    21881246.8264
  21250773.360   -19459278.313 9 -11347180.87647  21250776.372    21250783.8284
  24580995.205     -783387.452 7    207406.90245  24581011.567    24581022.8944
  20053503.913   -25405828.144 9   -597432.60448  20053506.342    20053513.4744
  23283837.444    -8019752.457 8  10870193.45446  23283838.002    23283847.6904
  22184170.396   -14136636.897 8    389245.63547  22184170.296    22184180.0504
  24257857.502    -4064146.234 7
 00  4  7  0 30 30.0000000  0  8 23 17 06 13 26 24 10 08
  23925827.933    -5590264.187 8  -4345295.16846  23925830.760    23925844.5274
  21865971.002   -16361242.019 8   -499956.73057  21865974.723    21865988.2024
  21258279.793   -19419841.419 9 -11316450.84047  21258280.751    21258288.4064
  24600480.013     -681049.919 7    287151.88445  24600486.394    24600496.8044
  20048672.048   -25431221.755 9   -617219.97848  20048673.884    20048681.1124
  23299432.578    -7937786.427 8  10934063.20246  23299435.299    23299443.4274
  22197333.199   -14067456.673 8    443152.79347  22197334.482    22197344.8954
  24259800.859    -4053882.192 7     39087.13455                  24259813.1164
 00  4  7  0 31  0.0000000  0  8 23 17 06 13 26 24 10 08
  23912849.844    -5658464.701 8  -4398437.88345  23912853.288    23912864.5524
  21850749.434   -16441234.735 8   -562288.08457  21850752.521    21850762.2254
  21265888.231   -19379849.799 9 -11285288.54447  21265890.589    21265898.1554
  24619986.089     -578544.899 7                                  24619993.000
  20043958.252   -25455980.289 9   -636512.35248  20043962.626    20043969.1364
  23315074.098    -7855585.280 8  10998115.93146  23315077.347    23315086.3834
  22210519.906   -13998151.806 8    497157.03947  22210521.839    22210531.7814
  24261854.217    -4043069.800 7     47512.78145  24261859.588    24261870.7644
 00  4  7  0 31 30.0000000  0  8 23 17 06 13 26 24 10 08
  23899899.000    -5726523.141 8  -4451470.07645  23899901.482    23899913.1884
  21835565.417   -16521032.287 9   -624467.91647  21835567.954    21835579.2094
  21273608.263   -19339288.714 9 -11253682.60047  21273609.473    21273616.9234
  24639521.594     -475881.327 7    447023.04055  24639528.703    24639538.9564
  20039366.597   -25480115.212 9   -655318.52948  20039369.592    20039376.5894
  23330758.218    -7773149.900 8  11062351.54046  23330763.809    23330771.8514
  22223731.412   -13928747.072 8    551239.43147  22223728.322    22223739.5904
  24264027.552    -4031704.730 7                                  24264024.570
 00  4  7  0 32  0.0000000  0  8 23 17 06 13 26 24 10 08
  23886970.774    -5794442.467 8  -4504393.60745  23886976.530    23886987.9864
  21820409.848   -16600658.838 8   -686514.91247  21820414.834    21820425.9044
  21281433.012   -19298162.464 9 -11221635.88947  21281435.140    21281442.7484
  24659090.259     -373064.221 7
  20034889.393   -25503633.631 9   -673644.40348  20034894.125    20034900.9474
  23346486.900    -7690496.236 8  11126756.91345  23346492.662    23346501.1574
  22236947.564   -13859259.333 8    605386.53547  22236951.167    22236961.3614
  24266284.373    -4019781.945 7
 00  4  7  0 32 30.0000000  0  8 23 17 06 13 26 24 10 08
  23874078.390    -5862235.016 8  -4557218.43345  23874076.716    23874085.4214
  21805290.771   -16680121.314 8   -748433.70047  21805293.574    21805304.1134
  21289363.291   -19256490.023 9 -11189163.42647  21289364.278    21289372.1454
  24678682.004     -270100.651 7
  20030535.374   -25526522.720 9   -691479.87048  20030538.304    20030545.4104
  23362262.472    -7607637.155 8  11191323.01946  23362260.202    23362268.5864
  22250190.644   -13789689.200 8    659598.00247  22250188.974    22250199.1524
  24268652.253    -4007302.146 7     75384.97655  24268662.562    24268674.2434
 00  4  7  0 33  0.0000000  0  8 23 17 06 13 26 24 10 08
  23861191.954    -5929910.956 8  -4609952.52646  23861198.177    23861208.2414
  21790199.641   -16759421.988 8   -810226.66947  21790203.462    21790214.6664
  21297394.301   -19214270.865 9 -11156265.01647  21297398.011    21297405.9804
  24698297.866     -166997.307 7    687712.11155  24698305.878    24698316.6634
  20026299.076   -25548781.156 9   -708823.92248  20026302.531    20026309.4444
  23378058.356    -7524580.151 8  11256043.04746  23378064.223    23378073.8454
  22263440.513   -13720038.924 8    713871.63047  22263443.038    22263451.4604
  24271140.734    -3994266.550 7                                  24271146.415
 00  4  7  0 33 30.0000000  0  8 23 17 06 13 26 24 10 08
  23848337.378    -5997476.316 8  -4662600.44146  23848340.755    23848351.2154
  21775141.091   -16838557.523 8   -871891.11847  21775144.804    21775156.1784
  21305531.775   -19171509.585 9 -11122944.29747  21305535.902    21305543.0274
  24717951.905      -63753.974 7    768161.80245  24717953.542    24717962.2904
  20022182.996   -25570412.216 9   -725679.21548  20022186.542    20022193.1154
  23393902.792    -7441332.999 8  11320911.05445  23393904.124    23393914.6754
  22276710.251   -13650305.454 8    768209.89347  22276712.836    22276720.9154
  24273724.084    -3980682.729 7     96127.96355  24273729.815    24273741.1274
 00  4  7  0 34  0.0000000  0  8 23 17 06 13 26 24 10 08
  23835496.324    -6064943.349 8  -4715171.82146  23835502.026    23835512.1834
  21760116.406   -16917509.903 8                                  21760119.993
  21313771.645   -19128212.168 9 -11089205.82447  21313775.323    21313782.5864
  24737626.472       39625.885 7    848718.19445  24737626.063    24737634.7964
  20018187.671   -25591404.720 9   -742037.12048  20018191.530    20018198.4364
  23409771.725    -7357895.983 8  11385926.56846  23409783.276    23409792.2504
  22289996.947   -13580485.537 8    822615.92946  22289998.054    22290006.4734
  24276420.464    -3966555.866 7    107136.57745  24276418.250    24276428.0604
 00  4  7  0 34 30.0000000  0  8 23 17 06 13 26 24 10 08
  23822677.044    -6132298.734 8  -4767656.20546  23822683.060    23822694.8234
  21745128.036   -16996279.827 8   -994790.93057  21745130.344    21745142.8394
  21322114.177   -19084369.080 9 -11055042.19847  21322118.257    21322124.6024
  24757323.020      143137.731 7    929377.53945  24757322.265    24757330.3394
  20014313.903   -25611757.964 9   -757896.98848  20014318.406    20014324.6434
  23425697.406    -7274247.394 8                                  23425701.290
  22303301.470   -13510567.948 8    877097.63046  22303302.106    22303311.6874
  24279211.523    -3951884.705 7    118568.31955  24279211.300    24279221.4244
 00  4  7  0 35  0.0000000  0  8 23 17 06 13 26 24 10 08
  23809887.806    -6199528.344 8  -4820042.33346  23809889.680    23809901.4264
  21730170.519   -17074877.795 8  -1056035.71757  21730173.603    21730181.6264
  21330561.667   -19039968.896 9 -11020444.49147  21330566.827    21330573.6924
  24777046.051      246786.012 7   1010142.91545  24777044.754    24777055.6824
  20010559.647   -25631492.242 9   -773274.39448  20010563.508    20010570.5554
  23441654.572    -7190375.808 8  11516462.73656  23441659.974    23441670.1054
  22316620.120   -13440549.915 8    931657.70046  22316626.087    22316633.9184
  24282099.847    -3936669.070 7
 00  4  7  0 35 30.0000000  0  8 23 17 06 13 26 24 10 08
  23797120.282    -6266617.224 8  -4872318.99145  23797123.417    23797132.4624
  21715244.201   -17153305.661 8  -1117147.73247  21715248.906    21715258.9864
  21339114.159   -18995031.909 9 -10985428.56647  21339118.078    21339124.9694
  24796790.720      350558.227 7   1091004.21145  24796793.134    24796801.5854
  20006920.444   -25650614.578 9   -788175.73048  20006925.165    20006932.6624
  23457664.923    -7106274.657 8  11581995.81546  23457664.906    23457676.5124
  22329969.636   -13370431.759 8    986296.02747  22329968.826    22329977.2594
  24285097.751    -3920898.735 7    142714.29955  24285105.477    24285116.9774
 00  4  7  0 36  0.0000000  0  8 23 17 06 13 26 24 10 08
  23784382.256    -6333552.360 8  -4924475.89646  23784386.093    23784395.4874
  21700353.153   -17231571.081 8  -1178133.32247  21700355.426    21700365.6024
  21347764.383   -18949576.830 9 -10950008.91647  21347767.558    21347774.9284
  24816544.727      454443.205 7   1171953.80045  24816563.131    24816567.3654
  20003402.058   -25669118.089 9   -802594.45348  20003404.374    20003413.1344
  23473707.385    -7021931.425 8  11647717.59046  23473715.626    23473723.9634
  22343324.423   -13300215.868 8   1041010.40046  22343329.121    22343337.9764
  24288209.974    -3904568.081 7    155440.08845  24288211.829    24288222.1844
 00  4  7  0 36 30.0000000  0  8 23 17 06 13 26 24 10 08
  23771677.741    -6400325.319 8  -4976506.43546  23771678.462    23771688.7074
  21685489.436   -17309670.815 8  -1238990.01947  21685493.382    21685502.7994
  21356511.035   -18903611.255 9 -10914191.46947  21356514.286    21356521.4594
  24836345.146      558444.611 7   1252994.31645  24836351.014    24836360.6414
  19999996.182   -25687007.324 9   -816534.23058  19999999.680    20000006.3824
  23489809.915    -6937342.214 8  11713631.35946  23489812.142    23489820.0414
  22356710.516   -13229891.924 8   1095808.83946  22356710.275    22356719.4404
  24291422.486    -3887691.780 7    168591.42145  24291423.077    24291431.9684
 00  4  7  0 37  0.0000000  0  8 23 17 06 13 26 24 10 08
  23758995.332    -6466949.962 8  -5028421.30646  23758999.630    23759009.6684
  21670663.258   -17387583.656 9  -1299701.25047  21670666.585    21670676.2264
  21365353.297   -18857147.977 9 -10877986.04947  21365355.663    21365363.0014
  24856163.789      662563.266 7   1334126.38745  24856164.882    24856173.0344
  19996708.815   -25704290.758 9                                  19996711.938
  23505947.056    -6852520.765 8  11779726.66646  23505953.115    23505961.7404
  22370108.021   -13159472.902 8   1150681.62746  22370110.541    22370118.8764
  24294737.982    -3870273.706 7    182164.53055  24294736.666    24294748.5144
 00  4  7  0 37 30.0000000  0  8 23 17 06 13 26 24 10 08
  23746340.928    -6533450.781 8  -5080239.70846  23746344.447    23746355.3184
  21655881.406   -17465280.540 9  -1360243.88347  21655881.861    21655891.8764
  21374285.955   -18810192.665 9 -10841397.24847  21374290.781    21374297.6394
  24875997.973      766786.354 8   1415339.39445  24875997.727    24876006.3524
  19993541.239   -25720940.606 9
  23522136.978    -6767465.533 8  11846003.41846  23522138.525    23522146.3104
  22383527.576   -13088962.664 8   1205625.39446  22383527.929    22383535.1534
  24298151.322    -3852305.329 7    196166.08245  24298155.242    24298164.0544
 00  4  7  0 38  0.0000000  0  8 23 17 06 13 26 24 10 08
  23733705.460    -6599844.652 8  -5131974.81246  23733711.064    23733720.8484
  21641132.498   -17542758.315 8  -1420616.45447  21641137.994    21641150.3594
  21383320.345   -18762727.203 9 -10804411.04947  21383323.145    21383329.6914
  24895849.896      871128.497 7   1496644.97745  24895852.796    24895862.1834
  19990493.919   -25736948.497 9
  23538364.318    -6682174.346 8  11912463.99245  23538368.000    23538375.7264
  22396960.481   -13018367.238 8   1260634.94746  22396961.228    22396969.3824
  24301674.930    -3833801.641 7    210584.94645  24301677.035    24301685.8614
 00  4  7  0 38 30.0000000  0  8 23 17 06 13 26 24 10 08
  23721092.543    -6666141.266 8  -5183634.16646  23721094.545    23721104.3704
  21626436.417   -17620000.058 9
  21392452.930   -18714735.650 9 -10767014.83947  21392455.668    21392462.2674
  24915729.399      975596.409 7   1578049.00145  24915733.273    24915740.4744
  19987566.666   -25752329.081 9   -867435.57858  19987570.501    19987578.3984
  23554636.170    -6596660.893 8  11979098.43446  23554641.086    23554649.1304
  22410409.143   -12947675.218 8   1315719.88246  22410413.655    22410422.0694
  24305288.377    -3814756.932 7    225425.77644  24305300.424    24305311.7224
 00  4  7  0 39  0.0000000  0  8 23 17 06 13 26 24 10 08
  23708492.985    -6732339.047 8  -5235216.53346  23708496.476    23708505.0374
  21611778.656   -17697021.086 9
  21401685.660   -18666219.776 9 -10729210.24447  21401687.715    21401694.6444
  24935629.268     1080177.367 7   1659540.97845  24935632.713    24935642.6944
  19984761.001   -25767077.290 9   -878927.56548  19984764.157    19984770.6004
  23570952.335    -6510939.996 8  12045893.97446  23570953.071    23570962.6704
  22423879.085   -12876886.393 8   1370880.37746  22423884.333    22423891.9134
  24309034.178    -3795154.439 7    240700.98345  24309032.175    24309041.6094
 00  4  7  0 39 30.0000000  0  8 23 17 06 13 26 24 10 08
  23695916.765    -6798433.306 8  -5286718.38945  23695918.573    23695929.1834
  21597162.400   -17773834.372 9  -1600674.09457  21597165.136    21597172.9734
  21411019.012   -18617167.817 9 -10690987.81547  21411022.122    21411028.8194
  24955554.636     1184882.468 7   1741129.19645  24955557.842    24955566.2054
  19982073.560   -25781193.894 9   -889927.05948  19982077.833    19982085.0504
  23587301.954    -6425013.085 8  12112850.03446  23587304.561    23587313.2264
  22437378.569   -12805988.010 8   1426126.20446  22437375.786    22437383.6324
  24312860.000    -3775001.437 7                                  24312864.608
 00  4  7  0 40  0.0000000  0  7 23 17 06 26 24 10 08
  23683359.088    -6864403.015 8  -5338122.93946  23683364.765    23683374.0564
  21582580.478   -17850450.911 9  -1660374.51947  21582584.460    21582595.0634
  21420455.475   -18567579.885 9 -10652347.67047  21420457.901    21420465.2044
  19979504.459   -25794702.152 9   -900452.26148  19979506.676    19979513.8164
  23603690.836    -6338884.981 8  12179962.45546  23603695.224    23603701.3654
  22450886.401   -12734973.704 8   1481461.96246  22450888.987    22450897.3734
  24316800.548    -3754299.345 7    272535.17254  24316804.623    24316815.0484
 00  4  7  0 40 30.0000000  0  7 23 17 06 26 24 10 08
  23670833.763    -6930237.330 8  -5389422.08246  23670837.832    23670846.0064
  21568034.643   -17926872.883 8  -1719923.45647  21568041.066    21568050.3724
  21429990.205   -18517463.892 9 -10613296.39347  21429994.731    21430002.2784
  19977046.234   -25807607.245 9   -910507.95848  19977050.837    19977057.9594
  23620125.343    -6252553.430 8  12247233.87145  23620123.026    23620129.6754
  22464422.821   -12663837.248 8   1536892.91346  22464425.764    22464432.6504
  24320849.066    -3733036.984 7    289103.24845  24320852.741    24320860.0714
 00  4  7  0 41  0.0000000  0  7 23 17 06 26 24 10 08
  23658337.015    -6995929.169 8  -5440609.94546  23658337.879    23658345.2544
  21553533.450   -18003096.101 9
  21439626.493   -18466828.883 9 -10573840.59147  21439630.665    21439637.0234
  19974708.231   -25819894.431 9
  23636592.238    -6166004.379 8  12314674.74445  23636592.108    23636600.9224
  22477980.683   -12592604.695 8   1592398.63246  22477981.600    22477989.0914
  24325006.868    -3711216.570 7    306106.40545  24325004.583    24325012.7064
 00  4  7  0 41 30.0000000  0  7 23 17 06 26 24 10 08
  23645854.150    -7061483.562 8  -5491690.86646  23645860.541    23645871.2604
  21539069.957   -18079097.422 9  -1838538.45957  21539072.916    21539084.8614
  21449359.465   -18415673.617 9 -10533979.39347  21449364.972    21449372.1084
  19972487.307   -25831561.905 9
  23653105.197    -6079229.289 8  12382291.40545  23653105.135    23653113.4124
  22491549.805   -12521298.288 8   1647962.02546  22491550.539    22491558.6134
  24329248.104    -3688844.898 7    323539.08445  24329261.515    24329271.7794
 00  4  7  0 42  0.0000000  0  6 23 17 06 26 24 10
  23633409.761    -7126905.663 8  -5542668.82746  23633411.317    23633421.4194
  21524650.520   -18154876.495 9  -1897586.73947  21524652.617    21524662.7854
  21459191.734   -18364013.593 9 -10493724.80547  21459195.143    21459203.0014
  19970387.081   -25842604.775 9
  23669653.352    -5992233.402 8  12450079.93945  23669660.362    23669667.9274
  22505126.736   -12449934.993 8   1703569.96046  22505129.932    22505137.9464
 00  4  7  0 42 30.0000000  0  6 23 17 06 26 24 10
  23620989.623    -7192198.414 8  -5593546.19446  23620989.310    23620995.8334
  21510272.299   -18230427.828 9  -1956457.31847  21510275.160    21510281.6344
  21469114.152   -18311859.343 8 -10453085.16247  21469119.884    21469127.1634
  19968409.481   -25853005.152 9
  23686250.394    -5905023.605 8  12518035.30945  23686255.634    23686264.1174
  22518718.359   -12378522.655 8   1759216.08346  22518719.068    22518726.4244
 00  4  7  0 43  0.0000000  0  6 23 17 06 26 24 10
  23608583.136    -7257379.896 8  -5644336.51146  23608585.379    23608591.2714
  21495934.890   -18305743.405 9  -2015143.74147  21495942.328    21495950.2054
  21479134.562   -18259218.668 9 -10412066.54547  21479137.223    21479145.2114
  19966550.105   -25862763.087 9
  23702894.067    -5817612.884 8  12586147.55945  23702888.791    23702897.9064
  22532314.766   -12307065.890 8   1814896.89546  22532316.944    22532324.0734
 00  4  7  0 43 30.0000000  0  6 23 17 06 26 24 10
  23596199.896    -7322461.283 8  -5695048.83646  23596199.552    23596206.6324
  21481652.238   -18380827.637 9  -2073650.07647  21481653.834    21481662.0114
  21489241.465   -18206084.234 9 -10370663.13047  21489248.531    21489255.7194
  19964812.770   -25871888.048 9
  23719553.942    -5730019.458 7  12654401.73345  23719556.679    23719568.3664
  22545925.048   -12235545.119 8   1870627.45846  22545926.432    22545935.1014
 00  4  7  0 44  0.0000000  0  6 23 17 06 26 24 10
  23583830.404    -7387431.621 8  -5745674.98746  23583835.116    23583844.4954
  21467404.890   -18455689.652 9  -2131983.51747  21467407.385    21467415.4224
  21499451.629   -18152459.626 9 -10328877.85947  21499453.380    21499460.3464
  19963192.945   -25880389.829 9    -23260.38458  19963197.976    19963204.4094
  23736251.514    -5642241.610 7  12722799.83045  23736261.944    23736270.5584
  22559549.732   -12163937.861 8   1926425.54846  22559552.774    22559561.2204
 00  4  7  0 44 30.0000000  0  6 23 17 06 26 24 10
  23571489.543    -7452277.701 8  -5796204.32646  23571494.547    23571505.1184
  21453201.599   -18530315.272 9  -2190132.91147  21453206.425    21453213.8544
  21509750.881   -18098336.372 9 -10286703.89347  21509753.031    21509759.3824
  19961692.424   -25888273.964 9                                  19961697.983
  23753006.173    -5554267.185 8  12791350.87545  23753003.406    23753012.4794
  22573195.079   -12092231.871 8   1982300.43446  22573197.981    22573206.0264
 00  4  7  0 45  0.0000000  0  6 23 17 06 26 24 10
  23559176.668    -7516994.849 8  -5846633.46246  23559180.243    23559189.4964
  21439048.591   -18604705.440 9  -2248098.84047  21439050.062    21439056.3804
  21520145.053   -18043709.424 9 -10244137.42547  21520148.104    21520154.8944
  19960312.222   -25895543.813 9    -35069.70758  19960315.126    19960320.7224
  23769776.691    -5466089.871 7  12860060.14045  23769782.670    23769791.2644
  22586855.497   -12020429.536 8   2038250.53646  22586861.202    22586869.1604
 00  4  7  0 45 30.0000000  0  6 23 17 06 26 24 10
  23546893.261    -7581560.446 8  -5896944.81946  23546895.144    23546900.6494
  21424931.671   -18678870.721 9  -2305889.52747  21424936.357    21424945.0924
  21530634.649   -17988581.231 8 -10201180.27347  21530638.355    21530645.0684
  19959042.299   -25902206.891 9    -40261.29648  19959046.683    19959053.0144
  23786597.188    -5377695.327 8  12928938.55945  23786604.510    23786613.9844
  22600539.581   -11948529.056 8   2094276.92946  22600543.930    22600551.4614
 00  4  7  0 46  0.0000000  0  6 23 17 06 26 24 10
  23534635.401    -7645975.673 8  -5947139.12446  23534637.161    23534644.7044
  21410860.401   -18752823.883 9  -2363514.69047  21410862.629    21410870.7704
  21541215.491   -17932969.427 8 -10157846.27647  21541220.239    21541227.6744
  19957889.425   -25908266.734 9    -44982.02158  19957892.777    19957898.7434
  23803470.848    -5289064.954 8  12998000.68545  23803471.813    23803479.7904
  22614241.238   -11876536.315 8   2150375.22946  22614243.833    22614250.4314
 00  4  7  0 46 30.0000000  0  6 23 17 06 26 24 10
  23522403.573    -7710264.412 8  -5997235.25646  23522404.318    23522412.4184
  21396827.939   -18826565.516 9  -2420975.52147  21396830.496    21396837.5224
  21551891.423   -17876875.678 9 -10114136.76847  21551895.128    21551901.4244
  19956851.109   -25913717.845 9                                  19956854.607
  23820380.332    -5200204.349 8  13067242.15845  23820380.655    23820390.8344
  22627956.018   -11804467.576 8   2206532.80146  22627957.687    22627966.0134
 00  4  7  0 47  0.0000000  0  6 23 17 06 26 24 10
  23510185.019    -7774439.707 8  -6047242.86846  23510191.107    23510201.6504
  21382832.048   -18900098.336 9  -2478273.55547  21382837.480    21382844.5804
  21562654.758   -17820310.067 8 -10070059.89556                  21562634.6714
  19955930.822   -25918560.698 9    -53003.34158  19955933.984    19955939.3924
  23837325.585    -5111127.208 8  13136652.34645  23837332.671    23837341.2904
  22641685.175   -11732327.363 8   2262746.00446  22641685.075    22641693.9254
 00  4  7  0 47 30.0000000  0  6 23 17 06 26 24 10
  23497998.894    -7838505.998 8  -6097165.07946  23498001.327    23498010.1614
  21368881.036   -18973420.777 9  -2535407.80847  21368884.261    21368891.9784
  21573508.229   -17763275.572 8 -10025617.38657  21573511.597    21573519.0384
  19955126.341   -25922784.146 9
  23854330.419    -5021834.965 8  13206230.24845  23854323.783    23854335.0764
  22655422.808   -11660115.616 8   2319015.05246  22655426.334    22655434.6394
 00  4  7  0 48  0.0000000  0  6 23 17 06 26 24 10
  23485826.110    -7902473.276 8  -6147010.09346  23485828.779    23485838.5654
  21354972.231   -19046514.589 9  -2592363.77147  21354974.723    21354982.6274
  21584451.754   -17705771.430 9  -9980808.61747  21584454.287    21584460.9614
  19954440.271   -25926386.230 9
  23871341.289    -4932347.178 7  13275960.32845  23871351.521    23871362.6404
  22669176.674   -11587827.614 8   2375343.55846  22669181.467    22669189.1804
 00  4  7  0 48 30.0000000  0  6 23 17 06 26 24 10
  23473677.030    -7966330.827 8  -6196769.74746  23473678.013    23473686.9234
  21341109.320   -19119357.902 9  -2649124.43147  21341112.442    21341120.2704
  21595484.398   -17647785.341 9  -9935624.60347  21595488.660    21595495.3154
  19953873.460   -25929362.936 9    -61419.42758  19953877.270    19953883.2614
  23888412.975    -4842690.744 8  13345822.14045  23888414.353    23888425.3794
  22682947.864   -11515463.314 8   2431731.52746  22682952.114    22682959.6234
 00  4  7  0 49  0.0000000  0  6 23 17 06 26 24 10
  23461543.057    -8030062.728 8  -6246430.79546  23461549.146    23461558.0854
  21327293.681   -19191949.473 9  -2705689.20647  21327299.086    21327306.0614
  21606612.506   -17589317.525 9  -9890065.16947  21606614.584    21606620.6654
  19953426.014   -25931719.801 9    -63255.77548  19953428.667    19953434.7984
  23905510.579    -4752866.143 8  13415814.77345  23905509.542    23905518.0154
  22696734.583   -11443008.926 8   2488189.61546  22696739.895    22696749.0994
 00  4  7  0 49 30.0000000  0  6 23 17 06 26 24 10
  23449439.332    -8093669.372 8  -6295994.36446  23449444.665    23449455.5844
  21313530.191   -19264289.001 9  -2762057.72747  21313533.776    21313540.7354
  21617831.202   -17530362.214 9  -9844126.04347  21617833.268    21617840.8814
  19953094.791   -25933460.460 9    -64612.28548  19953098.028    19953104.1774
  23922622.344    -4662871.384 7  13485940.04745  23922633.833    23922643.2614
  22710541.286   -11370461.923 8   2544719.84646  22710545.642    22710553.7564
 00  4  7  0 50  0.0000000  0  6 23 17 06 26 24 10
  23437359.351    -8157161.433 8  -6345468.36646  23437362.390    23437371.5844
  21299814.815   -19336365.192 9  -2818220.68847  21299817.846    21299824.6044
  21629141.655   -17470922.109 8  -9797809.59347  21629145.011    21629152.1874
  19952877.958   -25934600.683 9    -65500.80248  19952880.673    19952886.6764
  23939788.946    -4572705.793 7  13556198.62645  23939790.698    23939804.9554
  22724364.996   -11297813.638 8   2601329.08546  22724369.569    22724378.1814
 00  4  7  0 50 30.0000000  0  6 23 17 06 26 24 10
  23425299.939    -8220537.998 8  -6394852.86346  23425302.967    23425313.3694
  21286149.099   -19408177.105 9  -2874177.97147  21286152.379    21286159.3044
  21640544.508   -17411001.679 9  -9751119.09147  21640548.149    21640555.1984
  19952773.285   -25935144.505 9    -65924.96348  19952777.566    19952783.5974
  23956979.226    -4482345.331 7  13626608.83745  23956987.319    23956998.7404
  22738210.703   -11225071.767 8   2658011.06946  22738211.766    22738219.5374
 00  4  7  0 51  0.0000000  0  6 23 17 06 26 24 10
  23413260.434    -8283805.587 8  -6444152.16546  23413263.010    23413271.9604
  21272535.222   -19479728.010 9  -2929931.71147  21272536.631    21272543.1354
  21652039.691   -17350611.861 9  -9704062.64047  21652040.321    21652046.5554
  19952783.425   -25935096.576 9    -65887.77748  19952786.496    19952792.7814
  23974222.235    -4391765.661 8  13697189.57245  23974226.120    23974235.6684
  22752065.941   -11152236.751 8   2714765.55946  22752072.155    22752079.5574
 00  4  7  0 51 30.0000000  0  6 23 17 06 26 24 10
  23401238.361    -8346967.139 8  -6493368.74746  23401244.062    23401252.8734
  21258968.540   -19551008.843 9  -2985475.05147  21258972.309    21258979.1024
  21663613.818   -17289759.207 8  -9656645.51147  21663619.592    21663628.4254
  19952905.093   -25934453.854 9    -65387.19848  19952909.022    19952915.3824
  23991498.828    -4300959.389 8  13767947.06245  23991505.652    23991515.7554
  22765947.180   -11079319.593 8   2771584.12446  22765948.252    22765955.1054
 00  4  7  0 52  0.0000000  0  6 23 17 06 26 24 10
  23389243.768    -8410014.398 8  -6542496.19646  23389244.766    23389254.6474
  21245457.519   -19622007.926 9  -3040798.89647  21245461.054    21245467.8134
  21675285.550   -17228444.953 8  -9608868.14147  21675287.581    21675293.6464
  19953141.684   -25933210.431 9    -64418.64948  19953146.047    19953152.5464
  24008827.021    -4209922.545 7  13838884.22645  24008828.474    24008840.7784
  22779836.717   -11006332.156 8   2828457.49646  22779837.290    22779844.0294
 00  4  7  0 52 30.0000000  0  6 23 17 06 26 24 10
  23377271.501    -8472935.719 8  -6591525.53146  23377271.610    23377283.1994
  21231998.250   -19692741.202 9  -3095915.76547  21232000.984    21232007.8404
  21687041.959   -17166664.267 8  -9560727.59847  21687044.880    21687053.3604
  19953496.490   -25931349.012 9    -62968.12248  19953499.981    19953506.4064
  24026199.365    -4118668.505 7  13909990.57345  24026193.927    24026206.7704
  22793737.453   -10933286.556 8   2885376.09546  22793738.179    22793744.6354
 00  4  7  0 53  0.0000000  0  6 23 17 06 26 24 10
  23365322.092    -8535732.625 8  -6640457.98946  23365322.621    23365331.7904
  21218585.817   -19763214.264 9  -3150829.91347  21218590.670    21218596.9184
  21698888.033   -17104409.981 8  -9512218.12747  21698891.343    21698898.3894
  19953966.687   -25928874.220 9    -61039.55448  19953970.779    19953976.9244
  24043595.528    -4027221.947 7  13981247.25445  24043599.426    24043608.7374
  22807644.363   -10860177.664 8   2942344.05346  22807649.440    22807656.6794
 00  4  7  0 53 30.0000000  0  6 23 17 06 26 24 10
  23353392.543    -8598397.793 8  -6689287.75846  23353398.104    23353407.6754
  21205230.065   -19833422.995 9  -3205537.92547  21205230.468    21205237.8594
  21710821.962   -17041685.808 8  -9463342.65247  21710827.224    21710836.5644
  19954554.957   -25925782.771 9    -58630.37048  19954558.591    19954565.3364
  24061034.256    -3935594.879 7  14052644.59345  24061033.323    24061044.2464
  22821571.908   -10787006.919 8   2999360.34046  22821572.725    22821580.2014
 00  4  7  0 54  0.0000000  0  6 23 17 06 26 24 10
  23341498.161    -8660928.762 8  -6738013.01846  23341498.826    23341507.3574
  21191914.814   -19903373.225 9  -3260044.53047  21191919.184    21191926.2254
  21722852.077   -16978496.736 8  -9414104.89947  21722852.428    21722860.9344
  19955260.480   -25922076.307 9    -55742.08648  19955264.452    19955270.6964
  24078502.668    -3843799.470 7  14124173.12145  24078503.402    24078514.0534
  22835506.871   -10713762.139 8   3056434.29646  22835510.883    22835518.1444
 00  4  7  0 54 30.0000000  0  6 23 17 06 26 24 10
  23329617.679    -8723330.512 8  -6786637.32946  23329623.571    23329632.2234
  21178652.455   -19973070.836 9  -3314354.29747  21178656.016    21178663.6944
  21734960.941   -16914854.790 8  -9364514.43947  21734964.277    21734971.2534
  19956083.085   -25917757.004 9    -52376.24048  19956086.198    19956092.2254
  24096003.586    -3751839.377 7  14195829.67445  24096000.785    24096013.5404
  22849464.624   -10640439.248 8   3113569.06746  22849463.426    22849470.6994
 00  4  7  0 55  0.0000000  0  6 23 17 06 26 24 10
  23317769.640    -8785608.111 8  -6835165.08046  23317773.036    23317781.7034
  21165440.659   -20042500.677 9  -3368455.66047  21165444.111    21165452.0964
  21747155.071   -16850785.508 9  -9314590.81647  21747157.058    21747165.0264
  19957020.362   -25912827.335 9    -48534.88948  19957024.397    19957030.6314
  24113529.723    -3659699.977 7  14267625.86845  24113535.023    24113546.4234
  22863427.436   -10567036.632 8   3170765.93646  22863431.762    22863438.9104
 00  4  7  0 55 30.0000000  0  6 23 17 06 26 24 10
  23305939.686    -8847770.454 8  -6883603.14046  23305943.510    23305950.8694
  21152278.264   -20111662.545 9  -3422348.00447  21152282.703    21152290.3074
  21759420.090   -16786301.422 8  -9264344.17747  21759427.743    21759435.1764
  19958078.321   -25907271.216 9    -44205.48448  19958081.900    19958087.8544
  24131092.292    -3567367.638 7  14339572.38445  24131105.511    24131119.0294
  22877411.915   -10493557.399 8   3228022.49946  22877414.683    22877422.1184
 00  4  7  0 56  0.0000000  0  6 23 17 06 26 24 10
  23294130.162    -8909824.938 8  -6931956.70746  23294134.143    23294142.7284
  21139167.122   -20180562.840 9  -3476036.53847  21139171.562    21139179.2364
  21771777.896   -16721397.221 8  -9213769.84047  21771779.385    21771786.9614
  19959256.101   -25901083.205 9    -39383.53148  19959258.908    19959265.0174
  24148715.582    -3474844.150 7  14411667.67945  24148713.718    24148726.6704
  22891411.599   -10420006.900 8   3285334.65146  22891411.260    22891418.3874
 00  4  7  0 56 30.0000000  0  6 23 17 06 26 24 10
  23282338.969    -8971780.205 8  -6980233.02646  23282344.056    23282353.6214
  21126106.700   -20249204.071 9  -3529523.33947  21126109.284    21126116.5674
  21784209.157   -16656069.126 8  -9162865.30947  21784211.113    21784218.4674
  19960551.346   -25894269.222 9    -34073.85248  19960555.463    19960561.5964
  24166357.625    -3382126.541 7  14483914.16845  24166359.412    24166369.5694
  22905412.602   -10346399.399 8   3342691.22246  22905418.380    22905424.6324
 00  4  7  0 57  0.0000000  0  6 23 17 06 26 24 10
  23270571.377    -9033635.669 8  -7028431.81146  23270572.870    23270582.7654
  21113095.919   -20317571.380 9  -3582796.63847  21113099.787    21113106.9774
  21796718.181   -16590313.562 8  -9111627.43247  21796723.483    21796731.7464
  19961965.152   -25886840.282 9    -28284.87948  19961969.210    19961975.0074
  24184028.941    -3289218.522 7  14556308.81745  24184039.056    24184050.8754
  22919435.007   -10272727.526 8   3400097.98846  22919437.454    22919443.4454
 00  4  7  0 57 30.0000000  0  6 23 17 06 26 24 10
  23258818.909    -9095388.256 8  -7076550.32646  23258821.545    23258830.2754
  21100141.271   -20385665.767 9  -3635857.09347  21100142.025    21100148.7414
  21809315.445   -16524118.527 8  -9060046.85247  21809319.850    21809328.5184
  19963492.223   -25878815.157 9    -22031.47548  19963496.310    19963502.2564
  24201754.770    -3196133.342 7  14628841.42045  24201754.093    24201766.3824
  22933467.674   -10198996.784 8   3457550.65546  22933467.456    22933474.0704
 00  4  7  0 58  0.0000000  0  6 23 17 06 26 24 10
  23247090.901    -9157022.876 8  -7124576.81546  23247093.479    23247100.6704
  21087233.852   -20453473.153 9  -3688694.01847  21087238.765    21087245.6954
  21821993.826   -16457483.208 8  -9008123.49647  21822000.246    21822008.9024
  19965126.804   -25870224.136 9    -15336.87448  19965130.742    19965136.3694
  24219491.948    -3102886.686 7  14701499.89645  24219499.319    24219510.5064
  22947504.152   -10125217.168 8   3515041.33346  22947506.546    22947514.4904
 00  4  7  0 58 30.0000000  0  6 23 17 06 26 24 10
  23235384.207    -9218532.865 8  -7172506.38546  23235387.484    23235396.7754
  21074391.357   -20520976.078 9  -3741293.61547  21074393.417    21074399.5094
  21834759.452   -16390408.423 8  -8955857.77647  21834764.469    21834773.1914
  19966866.588   -25861078.468 9     -8210.06548  19966870.973    19966876.8474
  24237269.731    -3009479.328 7  14774283.60645  24237273.676    24237288.0134
  22961555.205   -10051385.457 8   3572572.62846  22961556.509    22961564.1434
 00  4  7  0 59  0.0000000  0  6 23 17 06 26 24 10
  23223704.440    -9279909.159 8  -7220331.65146  23223706.991    23223715.6474
  21061603.253   -20588162.505 9  -3793646.62347  21061608.216    21061614.5674
  21847605.823   -16322908.212 8  -8903260.36747  21847610.290    21847618.3964
  19968715.493   -25851374.850 9      -648.77748  19968717.287    19968723.0584
  24255075.272    -2915914.309 7  14847190.19045  24255080.347    24255095.7634
  22975616.098    -9977499.777 8   3630145.89846  22975616.570    22975623.8774
 00  4  7  0 59 30.0000000  0  6 23 17 06 26 24 10
  23212051.331    -9341146.089 8  -7268048.23446  23212054.383    23212062.7434
  21048879.679   -20655044.286 9  -3845762.03647  21048881.346    21048887.2924
  21860532.864   -16254980.596 8  -8850329.71947  21860536.296    21860545.2294
  19970669.801   -25841098.249 9      7358.97448  19970672.816    19970678.7554
  24272916.015    -2822178.357 7  14920230.01845  24272920.251    24272932.8434
  22989686.239    -9903558.845 8   3687762.25746  22989687.177    22989694.1704
 00  4  7  1  0  0.0000000  0  6 23 17 06 26 24 10
  23200429.130    -9402239.713 8  -7315653.58746  23200428.957    23200436.8894
  21036206.769   -20721614.476 9  -3897634.72147  21036212.731    21036219.1444
  21873540.032   -16186631.429 8  -8797070.94347  21873542.559    21873551.2904
  19972738.154   -25830219.723 9     15835.92048  19972742.917    19972748.8004
  24290796.837    -2728254.968 7  14993416.12945  24290792.076    24290806.5494
  23003770.857    -9829544.537 8   3745435.82546  23003771.620    23003778.2674
 00  4  7  1  0 30.0000000  0  6 23 17 06 26 24 10
  23188826.294    -9463197.317 8  -7363152.76346  23188828.556    23188836.4674
  21023600.541   -20787884.214 9  -3949273.45047  21023602.098    21023608.3594
  21886623.750   -16117867.982 8  -8743488.87647  21886627.981    21886636.4844
  19974929.756   -25818715.264 9     24800.39248  19974931.913    19974937.7674
  24308708.631    -2634127.748 7  15066761.24644  24308703.653    24308717.8554
  23017870.781    -9755442.683 8   3803177.73446  23017872.257    23017878.9884
 00  4  7  1  1  0.0000000  0  6 23 17 06 26 24 10
  23177248.605    -9524019.624 8  -7410546.44546  23177252.790    23177261.5254
  21011043.210   -20853860.769 9  -4000683.78647  21011047.118    21011053.6074
  21899784.985   -16048704.481 8  -8689595.18147  21899789.424    21899797.2414
  19977237.392   -25806577.845 9     34258.53148  19977241.416    19977247.1064
  24326652.271    -2539791.188 7  15140269.36344  24326655.937    24326669.7374
  23031994.010    -9681251.532 8   3860989.14446  23031990.757    23031997.6934
 00  4  7  1  1 30.0000000  0  7 23 17 06 26 24 09 10
  23165702.967    -9584708.215 8  -7457836.07546  23165705.110    23165713.7164
  20998545.280   -20919543.015 9  -4051864.48047  20998548.096    20998554.1954
  21913027.093   -15979122.057 8  -8635375.09347  21913030.283    21913037.5534
  19979668.122   -25793804.123 9     44212.25148  19979672.110    19979677.9554
  24344645.053    -2445243.686 7  15213941.73244  24344648.975    24344665.0714
  24416559.421     -104499.68317
  23046124.628    -9606971.751 8   3918869.58746  23046126.116    23046132.5104
 00  4  7  1  2  0.0000000  0  7 23 17 06 26 24 09 10
  23154176.295    -9645276.098 8  -7505031.58746  23154179.903    23154186.8344
  20986102.836   -20984922.047 9  -4102809.09148  20986106.959    20986113.7244
  21926347.810   -15909133.705 8  -8580838.69547  21926348.698    21926356.3894
  19982217.916   -25780407.321 9     54651.17148  19982221.229    19982227.4814
  24362676.335    -2350510.354 7  15287759.12544  24362677.550    24362692.7064
  24396736.987     -208767.258 7
  23060271.032    -9532623.044 8   3976803.67846  23060273.664    23060281.0334
 00  4  7  1  2 30.0000000  0  7 23 17 06 26 24 09 10
  23142672.585    -9705735.513 8  -7552142.58746  23142674.445    23142682.5834
  20973722.524   -21049994.922 9  -4153515.35648  20973724.143    20973730.9744
  21939742.806   -15838741.385 8  -8525987.60247  21939743.705    21939751.9914
  19984883.596   -25766409.879 9     65558.10948  19984885.000    19984891.3594
  24380737.569    -2255612.641 7  15361704.58045  24380738.647    24380752.6324
  24376892.092     -313063.154 7   -201182.46455  24376899.264    24376925.0504
  23074430.018    -9458226.158 8   4034775.34246  23074431.180    23074436.8424
 00  4  7  1  3  0.0000000  0  7 23 17 06 26 24 09 10
  23131183.998    -9766088.893 8  -7599170.82746  23131189.073    23131196.7844
  20961397.091   -21114747.624 9  -4203971.91247  20961401.991    20961408.4184
  21953213.875   -15767931.164 8  -8470810.77247  21953218.762    21953225.6384
  19987655.738   -25751837.326 9     76913.22048  19987658.649    19987664.9334
  24398818.148    -2160563.695 7  15435767.68744  24398822.937    24398843.0394
  24357032.241     -417379.416 7   -282467.37745  24357043.496    24357075.9864
  23088589.015    -9383791.171 8   4092776.72746  23088594.775    23088601.3144
 00  4  7  1  3 30.0000000  0  6 23 17 06 26 09 10
  23119715.991    -9826349.823 8  -7646127.11346  23119721.139    23119729.1194
  20949136.880   -21179179.528 9  -4254178.49247  20949140.339    20949147.2064
  21966770.105   -15696697.534 8  -8415303.84547  21966774.117    21966783.3244
  19990535.112   -25736706.013 9     88703.83448  19990538.132    19990543.1384
  24337187.052     -521706.876 7   -363760.94045  24337191.806    24337222.0324
  23102769.360    -9309317.386 8   4150808.35746  23102766.189    23102773.6044
 00  4  7  1  4  0.0000000  0  6 23 17 06 26 09 10
  23108269.342    -9886523.090 8  -7693015.05446  23108270.300    23108277.5994
  20936936.428   -21243291.835 9  -4304136.06847  20936939.847    20936946.9304
  21980404.001   -15625058.071 8  -8359481.03947  21980407.223    21980414.5224
  19993517.847   -25721030.826 9    100918.08948  19993521.202    19993526.8314
  24317347.712     -626038.177 7   -445057.43345  24317337.142    24317368.6314
  23116941.727    -9234789.253 8   4208882.35446  23116948.441    23116955.7254
 00  4  7  1  4 30.0000000  0  6 23 17 06 26 09 10
  23096836.231    -9946594.672 8  -7739823.71546  23096838.700    23096847.7454
  20924797.666   -21307088.328 9  -4353847.59348  20924800.218    20924806.5494
  21994116.620   -15552997.821 8  -8303329.93847  21994119.179    21994126.9014
  19996603.993   -25704817.348 9    113552.05748  19996606.561    19996612.1684
  24297473.996     -730373.874 7   -526357.38745  24297482.708    24297514.0314
  23131147.565    -9160182.537 8   4267017.60146  23131146.091    23131152.4824
 00  4  7  1  5  0.0000000  0  6 23 17 06 26 09 10
  23085423.222   -10006555.159 8  -7786545.79346  23085428.577    23085436.7424
  20912716.976   -21370569.551 9  -4403313.32647  20912719.970    20912726.2404
  22007905.181   -15480527.077 8  -8246858.85947  22007909.181    22007918.9414
  19999791.182   -25688057.059 9    126612.25348  19999795.519    19999801.0884
  24277631.868     -834720.434 7   -607665.82545  24277625.488    24277655.8184
  23145349.345    -9085491.507 8   4325218.45246  23145358.981    23145365.0934
 00  4  7  1  5 30.0000000  0  6 23 17 06 26 09 10
  23074037.341   -10066399.556 8  -7833177.39146  23074040.548    23074048.5404
  20900695.404   -21433737.961 9  -4452535.53648  20900699.888    20900705.9344
  22021774.123   -15407665.547 8  -8190083.55147  22021774.950    22021784.3024
  20003089.907   -25670724.633 9    140117.86248  20003093.925    20003099.8024
  24257754.536     -939089.229 8   -688991.62745  24257766.060    24257795.6114
  23159588.202    -9010712.059 8   4383488.23246  23159588.660    23159595.9154
 00  4  7  1  6  0.0000000  0  6 23 17 06 26 09 10
  23062671.033   -10126122.327 8  -7879714.31646  23062675.712    23062682.7684
  20888735.125   -21496579.534 9  -4501503.00948  20888741.240    20888747.2894
  22035706.395   -15334426.133 8  -8133014.14447  22035711.656    22035720.6924
  20006502.113   -25652799.291 9    154085.78548  20006504.800    20006510.5654
  24237889.996    -1043489.748 7   -770342.12545  24237896.326    24237927.5054
  23173824.942    -8935859.091 8   4441815.23046  23173833.128    23173839.7084
 00  4  7  1  6 30.0000000  0  6 23 17 06 26 09 10
  23051332.820   -10185721.040 8  -7926154.63546  23051334.694    23051341.2594
  20876841.962   -21559093.563 9  -4550215.13147  20876844.972    20876851.3664
  22049717.820   -15260809.563 8  -8075650.86047  22049720.409    22049728.2654
  20010025.639   -25634270.856 9    168523.71748  20010030.535    20010036.0164
  24218013.826    -1147918.043 7   -851714.26045  24218024.212    24218056.0774
  23188084.045    -8860965.443 8   4500173.93446  23188085.009    23188092.5694
 00  4  7  1  7  0.0000000  0  6 23 17 06 26 09 10
  23040010.838   -10245214.049 8  -7972512.68146  23040013.110    23040020.2124
  20865011.635   -21621274.218 9  -4598667.48447  20865012.368    20865018.9244
  22063792.948   -15186829.503 8  -8018003.95147  22063798.083    22063807.0534
  20013670.870   -25615122.017 9    183445.25848  20013674.399    20013680.0484
  24198153.817    -1252360.797 7   -933097.61645  24198149.395    24198180.1044
  23202337.575    -8786040.314 8   4558557.22146  23202342.928    23202349.5094
 00  4  7  1  7 30.0000000  0  6 23 17 06 26 09 10
  23028707.063   -10304607.266 8  -8018792.92546  23028709.915    23028717.5204
  20853238.642   -21683120.060 9  -4646858.99747  20853243.196    20853249.9284
  22077942.681   -15112477.307 8  -7960067.27047  22077946.646    22077954.6724
  20017430.842   -25595365.863 9    198839.89948  20017433.605    20017439.1464
  24178277.149    -1356803.915 7  -1014481.24645  24178273.508    24178304.0554
  23216604.037    -8711076.393 8   4616970.69846  23216608.050    23216614.3624
 00  4  7  1  8  0.0000000  0  6 23 17 06 26 09 10
  23017425.954   -10363896.792 8  -8064992.35546  23017427.075    23017435.1784
  20841533.088   -21744634.375 9  -4694792.18547  20841537.409    20841544.0584
  22092164.211   -15037748.050 8  -7901837.01747  22092168.100    22092175.3954
  20021302.808   -25575012.624 9    214699.74548  20021306.477    20021312.3044
  24158400.087    -1461228.913 7  -1095850.73245  24158401.620    24158430.8334
  23230876.274    -8636075.718 8   4675412.84846  23230879.109    23230885.4234
 00  4  7  1  8 30.0000000  0  6 23 17 06 26 09 10
  23006165.422   -10423071.384 8  -8111102.30546  23006167.613    23006174.9084
  20829888.829   -21805826.260 9  -4742474.09848  20829892.665    20829900.0844
  22106457.769   -14962638.443 8  -7843310.18647  22106461.159    22106469.9404
  20025287.242   -25554071.122 9    231017.95648  20025291.509    20025297.0684
  24138530.261    -1565632.136 8  -1177203.31045  24138533.889    24138564.2634
  23245160.681    -8561016.139 8   4733900.93246  23245162.898    23245169.0254
 00  4  7  1  9  0.0000000  0  6 23 17 06 26 09 10
  22994923.347   -10482132.438 8  -8157123.83046  22994928.218    22994935.3624
  20818309.797   -21866676.082 9  -4789889.57748  20818313.296    20818320.4084
  22120822.097   -14887158.140 8  -7784494.52247  22120825.275    22120832.8544
  20029381.510   -25532551.240 9    247786.80448  20029386.076    20029391.3484
  24118663.084    -1670014.813 8  -1258539.90845  24118670.910    24118700.0044
  23259456.910    -8485874.192 8   4792453.14646  23259461.995    23259468.8174
 00  4  7  1  9 30.0000000  0  6 23 17 06 26 09 10
  22983711.487   -10541063.893 8  -8203044.41046  22983713.928    22983720.7664
  20806794.634   -21927177.783 9  -4837033.70947  20806800.277    20806807.2304
  22135253.451   -14811316.230 8  -7725397.21747  22135256.788    22135264.9154
  20033585.797   -25510464.429 9    264997.40948  20033589.392    20033594.6494
  24098808.166    -1774384.734 8  -1339866.53645  24098809.351    24098838.6004
  23273773.062    -8410659.649 8   4851061.89446  23273774.826    23273782.4204
 00  4  7  1 10  0.0000000  0  6 23 17 06 26 09 10
  22972524.743   -10599858.856 8  -8248858.59946  22972525.999    22972532.4264
  20795348.945   -21987327.179 9  -4883903.32148  20795354.556    20795361.5084
  22149748.901   -14735125.374 8  -7666028.00646  22149754.913    22149763.1804
  20037895.674   -25487807.595 9    282652.24748  20037900.803    20037906.2954
  24078943.615    -1878747.739 8  -1421187.81745  24078948.840    24078978.2024
  23288095.330    -8335376.717 8   4909723.91746  23288100.203    23288107.9024
 00  4  7  1 10 30.0000000  0  6 23 17 06 26 09 10
  22961355.869   -10658530.944 8  -8294577.08346  22961359.526    22961368.4894
  20783976.083   -22047108.102 9  -4930485.79648  20783978.809    20783985.4774
  22164318.058   -14658589.308 8  -7606389.62146  22164319.729    22164328.6654
  20042314.610   -25464595.558 9    300739.53448  20042317.704    20042323.1674
  24059090.198    -1983114.705 8  -1502512.15745  24059088.145    24059117.2034
  23302434.961    -8260016.956 8   4968445.78246  23302440.932    23302448.3424
 00  4  7  1 11  0.0000000  0  6 23 17 06 26 09 10
  22950212.680   -10717095.080 8  -8340211.41046  22950215.549    22950223.7954
  20772670.983   -22106515.864 9  -4976777.56748  20772673.829    20772680.7554
  22178947.678   -14581709.172 8  -7546483.15346  22178949.587    22178959.1014
  20046836.649   -25440838.563 9    319251.68048  20046838.556    20046843.8264
  24039226.426    -2087478.804 8  -1583834.33745  24039228.351    24039256.8194
  23316792.919    -8184595.252 8   5027215.96946  23316793.945    23316801.0834
 00  4  7  1 11 30.0000000  0  6 23 17 06 26 09 10
  22939087.082   -10775545.903 8  -8385757.41346  22939093.272    22939099.6964
  20761430.865   -22165574.840 9  -5022797.57048  20761435.638    20761441.8034
  22193644.554   -14504476.155 8  -7486301.81846  22193646.810    22193656.3524
  20051459.835   -25416532.654 9    338191.42648  20051463.774    20051469.2194
  24019362.220    -2191845.145 8  -1665158.70145  24019367.970    24019397.5464
  23331153.684    -8109119.848 8   5086027.93346  23331155.994    23331163.3724
 00  4  7  1 12  0.0000000  0  6 23 17 06 26 09 10
  22927988.069   -10833891.039 8  -8431221.17746  22927990.393    22927997.5434
  20750259.073   -22224288.688 9  -5068548.62448  20750262.349    20750268.4984
  22208411.438   -14426876.087 8  -7425834.33146  22208414.006    22208423.1864
  20056189.316   -25391684.433 9    357553.72448  20056192.350    20056197.5214
  23999512.111    -2296200.021 8  -1746474.15745  23999509.254    23999539.3704
  23345529.940    -8033578.184 8   5144891.55046  23345531.607    23345537.2844
 00  4  7  1 12 30.0000000  0  6 23 17 06 26 09 10
  22916906.996   -10892133.304 8  -8476604.73246  22916907.343    22916914.4384
  20739152.942   -22282655.841 9  -5114029.40148  20739155.631    20739161.7164
  22223246.328   -14348900.166 8  -7365074.14646  22223251.964    22223262.2004
  20061019.658   -25366292.019 9    377340.30748  20061023.778    20061029.3364
  23979657.985    -2400531.373 8  -1827770.67545  23979655.031    23979683.9834
  23359909.154    -7957979.745 8   5203799.50946  23359917.410    23359924.3514
 00  4  7  1 13  0.0000000  0  6 23 17 06 26 09 10
  22905839.957   -10950262.864 8  -8521900.45146  22905845.848    22905852.3364
  20728108.287   -22340692.531 9  -5159252.82948  20728111.680    20728117.8924
  22238161.743   -14270549.860 8  -7304022.23546  22238162.286    22238171.0594
  20065957.468   -25340349.010 9    397555.60248  20065961.175    20065966.3384
  23959799.621    -2504829.863 8  -1909041.65845  23959807.378    23959836.5734
  23374312.898    -7882336.497 8   5262742.28346  23374312.520    23374318.3044
 00  4  7  1 13 30.0000000  0  6 23 17 06 26 09 10
  22894803.431   -11008265.057 8  -8567096.84346  22894808.572    22894815.3774
  20717129.514   -22398390.106 9  -5204212.03748  20717132.221    20717138.5494
  22253141.857   -14191817.183 8  -7242672.39746  22253145.171    22253153.3544
  20071001.115   -25313846.734 9    418206.68048  20071004.192    20071009.4054
  23939964.840    -2609097.613 8  -1990288.60945  23939965.496    23939993.9524
  23388708.343    -7806637.906 8   5321728.28146  23388717.268    23388723.4294
 00  4  7  1 14  0.0000000  0  6 23 17 06 26 09 10
  22883789.823   -11066145.565 8  -8612198.57446  22883793.101    22883801.1024
  20706216.846   -22455739.437 9  -5248899.72848  20706219.268    20706225.0944
  22268192.862   -14112711.377 8  -7181031.79246  22268198.004    22268207.2984
  20076150.827   -25286790.348 9    439289.40348  20076152.711    20076158.4494
  23920133.089    -2713326.368 8  -2071505.05745  23920131.088    23920159.8684
  23403122.645    -7730879.177 8   5380761.02246  23403132.357    23403139.9594
 00  4  7  1 14 30.0000000  0  6 23 17 06 26 09 10
  22872801.205   -11123901.521 8  -8657203.17546  22872803.552    22872810.1414
  20695365.822   -22512745.228 9  -5293319.78848  20695370.907    20695377.7044
  22283312.288   -14033259.439 8  -7119121.43246  22283317.631    22283327.0554
  20081405.555   -25259173.532 9    460808.62048  20081408.738    20081413.2694
  23900283.447    -2817522.643 8  -2152696.08945  23900301.837    23900330.3444
  23417555.916    -7655066.946 8   5439835.46246  23417558.792    23417566.3704
 00  4  7  1 15  0.0000000  0  6 23 17 06 26 09 10
  22861832.563   -11181540.138 8  -8702116.37946  22861835.625    22861841.2474
  20684585.903   -22569402.007 9  -5337467.88248  20684589.664    20684595.9974
  22298495.074   -13953476.603 8  -7056953.04846  22298499.906    22298509.4634
  20086765.037   -25231001.293 9    482761.14848  20086769.026    20086774.0794
  23880476.500    -2921684.581 8  -2233860.39445  23880480.494    23880508.2114
  23431992.706    -7579189.663 8   5498960.60945  23431997.931    23432005.2914
 00  4  7  1 15 30.0000000  0  6 23 17 06 26 09 10
  22850882.442   -11239072.266 8  -8746946.67346  22850887.466    22850893.6604
  20673874.847   -22625693.810 9  -5381331.62948  20673877.530    20673884.0104
  22313739.199   -13873365.642 8  -6994529.16246  22313744.166    22313753.8864
  20092231.958   -25202275.018 9    505145.44448  20092235.401    20092240.6174
  23860665.788    -3025792.516 8  -2314982.70445  23860667.981    23860696.1374
  23446451.122    -7503240.676 8   5558141.65545  23446451.122    23446457.2884
 00  4  7  1 16  0.0000000  0  6 23 17 06 26 09 10
  22839953.060   -11296515.250 8  -8791707.48646  22839956.475    22839962.2844
  20663231.855   -22681615.868 9  -5424907.25548  20663235.876    20663242.3844
  22329045.718   -13792948.035 8  -6931866.14646  22329047.884    22329057.4134
  20097799.046   -25173007.751 9    527950.98848  20097804.790    20097810.1144
  23840866.585    -3129822.549 7  -2396044.23145  23840871.062    23840899.5124
  23460915.150    -7427232.122 8   5617369.16946  23460915.263    23460921.7374
 00  4  7  1 16 30.0000000  0  6 23 17 06 26 09 10
  22829037.411   -11353871.111 8  -8836400.39346  22829041.088    22829048.7014
  20652666.201   -22737136.084 9  -5468169.78048  20652670.877    20652677.1194
  22344407.073   -13712216.963 8  -6868959.10946  22344410.844    22344420.8354
  20103473.749   -25143207.157 9    551172.53748  20103475.865    20103480.8934
  23821089.272    -3233768.714 7  -2477040.49445  23821090.902    23821118.8364
  23475385.366    -7351164.714 8   5676642.40146  23475390.239    23475397.6164
 00  4  7  1 17  0.0000000  0  6 23 17 06 26 09 10
  22818141.397   -11411135.919 8  -8881022.33946  22818143.740    22818152.3284
  20642180.063   -22792244.682 9  -5511111.52048  20642183.839    20642190.4114
  22359829.937   -13631154.682 8  -6805793.85246  22359835.823    22359846.1584
  20109244.188   -25112875.764 9    574807.18548  20109247.256    20109252.5124
  23801333.342    -3337624.740 8  -2557966.49645  23801328.153    23801354.6724
  23489871.785    -7275032.759 8   5735965.99746  23489877.409    23489884.8314
 00  4  7  1 17 30.0000000  0  6 23 17 06 26 09 10
  22807269.091   -11468290.317 8  -8925558.23946  22807268.361    22807275.5374
  20631773.521   -22846941.773 9  -5553732.57048  20631775.520    20631782.0464
  22375320.733   -13549755.226 8  -6742366.14746  22375326.633    22375335.7324
  20115118.829   -25082005.160 9    598862.24348  20115122.025    20115127.0754
  23781585.681    -3441401.335 7  -2638830.57845  23781578.203    23781605.9374
  23504366.723    -7198843.666 8   5795334.04746  23504375.504    23504382.4024
 00  4  7  1 18  0.0000000  0  6 23 17 06 26 09 10
  22796411.739   -11525313.297 8  -8969991.68446  22796417.268    22796424.2444
  20621439.819   -22901234.845 9  -5596038.74748  20621443.804    20621450.0744
  22390879.877   -13468029.273 8  -6678684.04346  22390879.042    22390888.6144
  20121094.919   -25050598.098 9    623335.20748  20121098.688    20121104.4474
  23761827.575    -3545123.714 7  -2719652.33945  23761839.619    23761867.0274
  23518882.845    -7122598.457 8   5854745.92346  23518884.515    23518891.9364
 00  4  7  1 18 30.0000000  0  6 23 17 06 26 09 10
  22785591.094   -11582188.227 8  -9014309.82146  22785594.232    22785602.2304
  20611180.661   -22955145.023 9  -5638046.70648  20611184.838    20611191.5964
  22406489.258   -13385974.416 8  -6614745.53946  22406494.339    22406503.4094
  20127176.840   -25018639.323 9    648238.15348  20127179.702    20127185.5164
  23742111.298    -3648818.047 8  -2800452.29145  23742106.256    23742134.3794
  23533407.304    -7046293.798 8   5914204.20646  23533405.169    23533412.0634
 00  4  7  1 19  0.0000000  0  6 23 17 06 26 09 10
  22774799.590   -11638909.882 8  -9058508.56847  22774801.344    22774808.4254
  20600991.177   -23008696.161 9  -5679774.86148  20600994.322    20601000.7434
  22422163.332   -13303605.490 8  -6550562.40146  22422167.846    22422177.4944
  20133364.925   -24986117.023 9    673580.24048  20133368.946    20133374.1374
  23722380.416    -3752477.382 8  -2881224.89945  23722380.678    23722407.6864
  23547929.050    -6969949.007 8   5973693.58845  23547932.971    23547939.1724
 00  4  7  1 19 30.0000000  0  6 23 17 06 26 09 10
  22764032.170   -11695491.030 8  -9102597.86447  22764034.422    22764041.1214
  20590867.712   -23061882.240 9  -5721218.57148  20590872.849    20590879.8964
  22437892.829   -13220940.364 8  -6486148.47846  22437898.880    22437909.1994
  20139659.841   -24953045.277 9    699350.47348  20139662.692    20139667.7594
  23702659.826    -3856102.501 8  -2961970.78545  23702661.753    23702688.3564
  23562456.327    -6893571.321 8   6033208.52545  23562467.457    23562474.3024
 00  4  7  1 20  0.0000000  0  6 23 17 06 26 09 10
  22753288.115   -11751955.117 8  -9146595.82547  22753289.015    22753296.7354
  20580819.615   -23114697.940 9  -5762373.62448  20580822.802    20580829.6354
  22453682.401   -13137990.662 8  -6421512.69046  22453684.690    22453693.6764
  20146054.965   -24919435.145 9    725540.16248  20146058.504    20146063.6114
  23682949.198    -3959674.081 8  -3042674.89146  23682950.657    23682978.0524
  23577006.427    -6817157.491 8   6092751.72545  23577008.218    23577015.3124
 00  4  7  1 20 30.0000000  0  6 23 17 06 26 09 10
  22742557.519   -11808326.282 8  -9190521.45547  22742561.763    22742569.0734
  20570842.477   -23167125.681 9  -5803226.39548  20570846.479    20570852.3174
  22469516.456   -13054752.354 8  -6356651.92146  22469524.113    22469534.1054
  20152552.596   -24885281.376 9    752153.42548  20152557.188    20152562.7594
  23663254.787    -4063179.760 8  -3123327.61046  23663254.362    23663280.4174
  23591551.448    -6740715.924 8   6152316.61245  23591554.978    23591561.2144
 00  4  7  1 21  0.0000000  0  6 23 17 06 26 09 10
  22731847.063   -11864621.675 8  -9234388.00047  22731848.903    22731856.2014
  20560942.996   -23219143.858 9  -5843760.00148  20560947.763    20560953.6784
  22485417.027   -12971229.691 8  -6291569.79346  22485418.636    22485429.3624
  20159151.879   -24850599.070 9    779178.51248  20159157.104    20159162.7424
  23643573.176    -4166597.279 8  -3203911.59346  23643573.945    23643599.6364
  23606107.789    -6664237.213 8   6211910.31945  23606108.594    23606115.3794
 00  4  7  1 21 30.0000000  0  6 23 17 06 26 09 10
  22721148.166   -11920845.336 8  -9278198.71347  22721150.228    22721156.9004
  20551125.365   -23270746.123 9  -5883969.53448  20551128.237    20551133.9734
  22501362.575   -12887420.355 8  -6226264.29146  22501367.190    22501376.8834
  20165853.553   -24815394.256 9    806610.79048  20165856.483    20165861.9664
  23623913.805    -4269919.868 8  -3284421.61446  23623911.572    23623936.5634
  23620671.452    -6587702.782 8   6271547.49145  23620672.424    23620678.9574
 00  4  7  1 22  0.0000000  0  6 23 17 06 26 09 10
  22710461.577   -11976989.961 8  -9321947.85347  22710466.619    22710472.7494
  20541383.615   -23321936.083 9  -5923857.81948  20541386.721    20541393.1614
  22517368.557   -12803315.090 8  -6160728.10746  22517372.869    22517382.2404
  20172652.416   -24779660.722 9    834454.94148  20172656.443    20172661.8264
  23604261.584    -4373134.929 8  -3364847.80846  23604268.252    23604294.9634
  23635248.692    -6511119.487 8   6331222.75545  23635246.137    23635251.8564
 00  4  7  1 22 30.0000000  0  6 23 17 06 26 09 10
  22699799.100   -12033039.349 8  -9365622.59747  22699801.117    22699807.5554
  20531718.233   -23372721.771 9  -5963431.23748  20531722.332    20531728.8484
  22533431.817   -12718911.187 8  -6094959.31346  22533434.288    22533443.3124
  20179549.497   -24743412.566 9    862700.37448  20179554.056    20179559.1014
  23584648.761    -4476247.265 8  -3445193.91446  23584646.683    23584671.0514
  23649820.138    -6434492.411 8   6390932.18546  23649828.146    23649835.3194
 00  4  7  1 23  0.0000000  0  6 23 17 06 26 09 10
  22689155.398   -12088971.595 8  -9409206.18947  22689156.905    22689164.4324
  20522129.880   -23423106.725 9  -6002692.22348  20522134.478    20522140.9834
  22549552.037   -12634212.161 8  -6028960.56046  22549552.014    22549562.8944
  20186543.895   -24706661.948 9    891337.19348  20186547.395    20186552.7434
  23565046.914    -4579247.039 8  -3525452.35146  23565046.375    23565069.8814
  23664415.769    -6357806.797 8   6450687.12445  23664419.833    23664428.8204
 00  4  7  1 23 30.0000000  0  6 23 17 06 26 09 10
  22678534.810   -12144771.793 8  -9452686.92447  22678538.373    22678545.5164
  20512619.249   -23473094.095 9  -6041643.39048  20512622.463    20512628.8244
  22565720.198   -12549216.836 8  -5962730.89746  22565726.074    22565738.1294
  20193633.678   -24669405.619 9    920367.99248  20193637.332    20193642.5534
  23545463.143    -4682140.543 8  -3605627.92846  23545464.606    23545489.2654
  23679022.374    -6281077.216 8   6510476.28445  23679020.618    23679028.1524
 00  4  7  1 24  0.0000000  0  6 23 17 06 26 09 10
  22667944.570   -12200433.804 8  -9496059.84046  22667945.955    22667952.6334
  20503183.701   -23522680.414 9  -6080282.01548  20503186.165    20503192.5624
  22581955.470   -12463922.367 8  -5896268.12146  22581957.475    22581969.1964
  20200819.654   -24631646.765 9    949790.41048  20200822.818    20200827.9694
  23525901.401    -4784938.147 8  -3685728.78246  23525902.158    23525926.2164
  23693631.210    -6204295.371 8   6570306.29845  23693633.401    23693638.7464
 00  4  7  1 24 30.0000000  0  6 23 17 06 26 09 10
  22657376.866   -12255961.849 8  -9539328.28247  22657378.699    22657385.7304
  20493823.422   -23571863.194 9  -6118606.24348  20493827.339    20493833.4114
  22598237.583   -12378335.055 8  -5829577.22946  22598244.451    22598256.5494
  20208100.672   -24593380.798 9    979608.01748  20208104.631    20208110.0254
  23506347.868    -4887640.863 8  -3765755.66346  23506356.968    23506380.8034
  23708260.875    -6127442.611 8   6630191.59345  23708257.753    23708263.7514
 00  4  7  1 25  0.0000000  0  6 23 17 06 26 09 10
  22646831.444   -12311370.437 8  -9582503.56947  22646836.152    22646842.3064
  20484545.191   -23620626.775 9  -6156603.74348  20484548.189    20484553.9334
  22614582.533   -12292466.288 8  -5762667.00446  22614585.399    22614596.8924
  20215483.500   -24554586.748 9   1009837.17648  20215487.096    20215492.3784
  23486827.988    -4990235.653 8  -3845698.43346  23486833.251    23486856.5184
  23722894.008    -6050524.699 8   6690127.63945  23722893.207    23722901.5494
 00  4  7  1 25 30.0000000  0  6 23 17 06 26 09 10
  22636309.015   -12366672.173 8  -9625595.51447  22636312.398    22636317.1724
  20475345.466   -23668972.043 9  -6194275.37848  20475347.981    20475354.2104
  22630974.821   -12206316.156 8  -5695537.63846  22630979.921    22630990.6014
  20222965.090   -24515270.644 9   1040472.87748  20222968.558    20222973.9284
  23467325.727    -5092731.602 8  -3925564.16646  23467328.216    23467350.3524
  23737539.806    -5973560.236 8   6750099.94045  23737538.565    23737546.5594
 00  4  7  1 26  0.0000000  0  6 23 17 06 26 09 10
  22625804.231   -12421875.662 8  -9668611.01347  22625806.589    22625812.2894
  20466227.133   -23716890.277 9  -6231614.34448  20466229.287    20466235.5894
  22647426.501   -12119881.369 8  -5628186.40146  22647428.988    22647439.6984
  20230543.507   -24475443.478 9   1071507.14448  20230547.350    20230552.9934
  23447840.800    -5195117.851 8  -4005344.45046  23447843.567    23447865.9984
  23752197.109    -5896541.690 8   6810114.40745  23752197.037    23752202.5014
 00  4  7  1 26 30.0000000  0  6 23 17 06 26 09 10
  22615316.834   -12476987.631 8  -9711555.24547  22615318.947    22615325.0384
  20457191.160   -23764370.788 9  -6268612.21348  20457194.114    20457200.3814
  22663925.255   -12033172.885 8  -5560621.97646  22663928.566    22663938.9074
  20238218.501   -24435118.051 9   1102929.52948  20238221.061    20238226.6614
  23428367.589    -5297387.431 8  -4085033.66145  23428380.951    23428403.2064
  23766859.473    -5819491.318 8   6870153.67445  23766858.343    23766866.0014
 00  4  7  1 27  0.0000000  0  6 23 17 06 26 09 10
  22604846.317   -12531992.644 8  -9754416.20747  22604851.285    22604858.4614
  20448240.781   -23811402.949 9  -6305260.48848  20448244.069    20448250.0824
  22680476.349   -11946190.114 8  -5492843.84446  22680481.610    22680493.3304
  20245984.210   -24394304.577 9   1134732.29448  20245987.684    20245993.1754
  23408937.680    -5399547.306 8  -4164637.39945  23408939.621    23408961.5734
  23781526.746    -5742409.315 8   6930217.58645  23781525.083    23781534.1584
 00  4  7  1 27 30.0000000  0  6 23 17 06 26 09 10
  22594403.523   -12586887.637 8  -9797191.36347  22594404.988    22594412.4604
  20439374.931   -23857993.424 9  -6341564.82848  20439378.578    20439384.9344
  22697084.614   -11858929.977 8  -5424849.66746  22697087.563    22697098.7074
  20253840.582   -24353020.328 9   1166901.93148  20253843.826    20253849.1624
  23389516.977    -5501604.687 8  -4244161.32146  23389517.241    23389539.7364
  23796203.105    -5665268.208 8   6990327.57345  23796204.901    23796211.0404
 00  4  7  1 28  0.0000000  0  6 23 17 06 26 09 10
  22583974.753   -12641679.940 8  -9839886.58447  22583977.865    22583985.3084
  20430593.805   -23904147.517 9  -6377529.15048  20430595.764    20430601.9304
  22713740.237   -11771408.417 8  -5356651.81446  22713742.689    22713755.3304
  20261787.383   -24311261.384 9   1199441.43448  20261789.809    20261795.4454
  23370119.223    -5603544.053 8  -4323593.23346  23370118.473    23370140.2154
  23810894.761    -5588052.799 8   7050495.48645  23810899.089    23810906.0434
 00  4  7  1 28 30.0000000  0  6 23 17 06 26 09 10
  22573568.673   -12696362.036 8  -9882495.87647  22573572.425    22573578.7684
  20421890.010   -23949871.828 9  -6413158.42348  20421894.674    20421900.6354
  22730436.134   -11683651.000 8  -5288270.18646  22730442.975    22730455.8914
  20269826.840   -24269010.599 9   1232364.09448  20269830.196    20269835.8174
  23350735.723    -5705373.968 8  -4402939.82246  23350739.738    23350761.5254
  23825610.823    -5510768.641 8   7110716.95745  23825606.911    23825614.4524
 00  4  7  1 29  0.0000000  0  6 23 17 06 26 09 10
  22563184.710   -12750939.561 8  -9925023.71747  22563187.596    22563193.8664
  20413270.280   -23995179.349 9  -6448462.91848  20413272.868    20413279.0194
  22747183.444   -11595669.009 8  -5219713.59046  22747185.338    22747199.4604
  20277963.547   -24226252.848 9   1265681.78148  20277966.692    20277971.9124
  23331380.224    -5807085.548 8  -4482194.16746  23331383.844    23331404.2484
  23840316.419    -5433412.629 8   7170994.27145  23840325.942    23840335.3374
 00  4  7  1 29 30.0000000  0  6 23 17 06 26 09 10
  22552816.682   -12805428.492 8  -9967482.56547  22552818.289    22552825.5534
  20404725.360   -24040082.733 9  -6483452.52248  20404728.073    20404734.0634
  22763963.178   -11507469.371 8  -5150987.44446  22763969.268    22763983.4744
  20286197.685   -24182984.784 9   1299397.23048  20286200.397    20286205.7944
  23312058.314    -5908662.276 8  -4561343.40946  23312052.573    23312072.9484
  23855049.972    -5356010.036 8   7231307.92845  23855055.737    23855062.9434
 00  4  7  1 30  0.0000000  0  6 23 17 06 26 09 10
  22542465.099   -12859823.268 8 -10009868.12047  22542467.277    22542474.5874
  20396258.501   -24084575.552 9  -6518122.21148  20396261.107    20396267.2364
  22780794.686   -11419050.527 8  -5082090.49346  22780796.324    22780809.1814
  20294530.253   -24139192.170 9   1333521.40848  20294533.674    20294538.7274
  23292743.303    -6010095.192 8  -4640380.47446  23292749.828    23292769.7674
  23869790.370    -5278590.036 8   7291635.21945  23869788.128    23869794.9244
 00  4  7  1 30 30.0000000  0  6 23 17 06 26 09 10
  22532131.468   -12914122.101 8 -10052178.86747  22532135.170    22532142.0004
  20387872.734   -24128643.251 9  -6552460.70548  20387875.572    20387881.2114
  22797666.316   -11330406.494 8  -5013018.11346  22797665.248    22797678.4164
  20302962.924   -24094879.994 9   1368050.28648  20302966.054    20302971.4604
  23273465.793    -6111377.995 8  -4719300.59146  23273475.285    23273495.3044
  23884522.831    -5201157.862 8   7351971.96745  23884523.496    23884529.5404
 00  4  7  1 31  0.0000000  0  6 23 17 06 26 09 10
  22521812.688   -12968342.207 8 -10094428.23947  22521816.254    22521823.8194
  20379569.635   -24172278.022 9  -6586461.78848  20379572.092    20379578.5194
  22814573.514   -11241522.272 8  -4943758.59246  22814581.043    22814593.5024
  20311488.990   -24050064.256 9   1402971.64648  20311493.767    20311499.4124
  23254219.308    -6212492.673 8  -4798089.63446  23254233.010    23254252.0164
  23899257.656    -5123717.730 8   7412314.97845  23899259.590    23899266.6184
 00  4  7  1 31 30.0000000  0  6 23 17 06 26 09 10
  22511513.213   -13022471.424 8 -10136606.93547  22511515.961    22511522.7684
  20371348.987   -24215473.600 9  -6620120.66948  20371352.491    20371358.5184
  22831542.847   -11152384.489 8  -4874301.48646  22831543.582    22831557.6254
  20320112.256   -24004755.599 9   1438277.12748  20320115.759    20320120.9394
  23235023.571    -6313437.718 8  -4876746.48846  23235022.574    23235041.6154
  23913994.081    -5046251.726 8   7472677.95345  23914000.828    23914009.2784
 00  4  7  1 32  0.0000000  0  6 23 17 06 26 09 10
  22501231.970   -13076501.144 8 -10178708.07247  22501234.508    22501241.8904
  20363216.600   -24258211.206 9  -6653422.66748  20363219.731    20363226.1204
  22848545.915   -11063003.804 8  -4804655.19146  22848552.965    22848567.4564
  20328825.455   -23958963.813 9   1473958.98948  20328829.928    20328835.3184
  23215844.864    -6414205.277 8  -4955265.00146  23215845.923    23215864.5834
  23928754.662    -4968736.658 8   7533079.21945  23928752.939    23928759.3674
 00  4  7  1 32 30.0000000  0  6 23 17 06 26 09 10
  22490970.372   -13130422.985 8 -10220725.08047  22490974.201    22490981.1544
  20355172.244   -24300485.385 9  -6686363.54748  20355174.972    20355180.8734
  22865604.674   -10973392.217 8  -4734828.94746  22865606.077    22865619.7044
  20337628.257   -23912713.360 9   1509998.36048  20337631.303    20337636.2764
  23196694.564    -6514794.047 8  -5033644.17446  23196702.652    23196721.3064
  23943510.860    -4891165.886 8   7593523.97845  23943513.069    23943518.3234
 00  4  7  1 33  0.0000000  0  6 23 17 06 26 09 10
  22480737.524   -13184221.403 8 -10262645.89947  22480736.942    22480743.7424
  20347216.867   -24342296.075 9  -6718943.27548  20347218.897    20347224.5844
  22882696.197   -10883545.211 8  -4664819.28546  22882703.131    22882717.9674
  20346514.952   -23866001.131 9   1546397.48748  20346520.309    20346525.9174
  23177590.701    -6615212.457 8  -5111890.64646  23177592.527    23177610.4214
  23958285.255    -4813534.811 7   7654015.76945  23958284.985    23958291.8834
 00  4  7  1 33 30.0000000  0  6 23 17 06 26 09 10
  22470523.431   -13237874.489 8 -10304453.50047  22470526.394    22470533.7154
  20339347.386   -24383637.181 9  -6751157.06348  20339351.287    20339358.0044
  22899847.171   -10793466.261 8  -4594629.01446  22899846.342    22899860.5014
  20355494.333   -23818824.830 9   1583158.13948  20355497.511    20355502.6194
  23158512.252    -6715464.728 8  -5190007.61646  23158514.159    23158531.6104
  23973073.507    -4735824.525 8   7714569.24345  23973071.911    23973080.6454
 00  4  7  1 34  0.0000000  0  6 23 17 06 26 09 10
  22460340.820   -13291382.241 8 -10346147.71047  22460344.697    22460351.0414
  20331574.453   -24424494.247 9  -6782993.94048  20331576.859    20331583.4444
  22917030.990   -10703166.693 8  -4524266.94646  22917031.454    22917045.1794
  20364560.870   -23771190.165 9   1620275.93048  20364562.584    20364567.6694
  23139454.987    -6815565.372 8  -5268006.43346  23139463.511    23139480.7454
  23987867.283    -4658047.988 8   7775174.24645  23987874.796    23987881.6384
 00  4  7  1 34 30.0000000  0  6 23 17 06 26 09 10
  22450186.912   -13344758.223 8 -10387739.37447  22450187.733    22450193.2724
  20323888.956   -24464883.394 9  -6814465.88448  20323890.969    20323896.4444
  22934255.844   -10612635.489 8  -4453724.43046  22934259.295    22934273.2644
  20373710.375   -23723086.683 9   1657759.08848  20373715.887    20373721.6664
  23120434.444    -6915532.258 8  -5345901.02646  23120439.430    23120456.3884
  24002688.757    -4580210.161 8   7835827.05645  24002687.716    24002691.9854
 00  4  7  1 35  0.0000000  0  6 23 17 06 26 09 10
  22440052.881   -13398016.110 8 -10429239.06747  22440052.482    22440058.2644
  20316287.297   -24504821.024 9  -6845585.98748  20316291.215    20316297.5004
  22951523.731   -10521865.220 8  -4382995.70446  22951532.875    22951549.6764
  20382960.324   -23674493.132 9   1695624.19448  20382962.973    20382968.6064
  23101435.235    -7015362.940 8  -5423689.45946  23101440.928    23101457.2454
  24017508.213    -4502308.709 8   7896529.59945  24017509.946    24017517.1404
 00  4  7  1 35 30.0000000  0  6 23 17 06 26 09 10
  22429934.798   -13451166.834 8 -10470655.18547  22429938.286    22429944.2064
  20308772.820   -24544311.764 9  -6876357.92848  20308776.457    20308782.1064
  22968844.336   -10430867.418 8  -4312089.78546  22968849.877    22968866.0834
  20392298.774   -23625415.837 9   1733866.26848  20392302.279    20392307.6774
  23082471.915    -7115051.913 8  -5501367.55546  23082469.690    23082486.2194
  24032344.754    -4424347.656 7   7957278.53345  24032343.824    24032351.6784
 00  4  7  1 36  0.0000000  0  6 23 17 06 26 09 10
  22419836.589   -13504229.064 8 -10512002.37447  22419841.674    22419847.3204
  20301338.931   -24583369.975 9  -6906792.89548  20301343.446    20301349.5914
  22986204.955   -10339661.554 8  -4241021.79946  22986207.730    22986223.5594
  20401730.753   -23575858.634 9   1772482.36548  20401732.673    20401738.1764
  23063530.895    -7214588.736 8  -5578927.07546  23063527.398    23063542.7474
  24047186.083    -4346351.612 8   8018054.69845  24047187.187    24047195.6164
 00  4  7  1 36 30.0000000  0  6 23 17 06 26 09 10
  22409756.437   -13557207.975 9 -10553284.59647  22409759.881    22409764.8124
  20293991.135   -24622001.417 9  -6936895.34948  20293992.218    20293998.3964
  23003605.416   -10248244.845 8  -4169789.66246  23003606.017    23003620.8954
  20411248.795   -23525815.661 9   1811476.89848  20411255.400    20411261.2054
  23044622.871    -7313938.429 8  -5656340.69446  23044620.048    23044635.4574
  24062034.732    -4268324.053 8   8078855.42245  24062036.055    24062042.2204
 00  4  7  1 37  0.0000000  0  6 23 17 06 26 09 10
  22399694.752   -13610077.847 8 -10594481.83847  22399698.357    22399704.3634
  20286723.220   -24660181.569 9  -6966646.09248  20286727.045    20286733.1054
  23021037.306   -10156629.229 8  -4098402.53846  23021040.102    23021056.9434
  20420864.061   -23475302.872 9   1850837.53948  20420867.769    20420873.2294
  23025739.723    -7413085.413 8  -5733596.35846  23025751.559    23025766.7604
  24076891.006    -4190260.886 7   8139683.80245  24076889.764    24076897.6734
 00  4  7  1 37 30.0000000  0  6 23 17 06 26 09 10
  22389655.998   -13662831.716 8 -10635588.73747  22389659.085    22389665.6894
  20279547.609   -24697891.407 9  -6996030.24448  20279550.820    20279556.9184
  23038503.768   -10064826.838 8  -4026869.89946  23038511.011    23038527.1244
  20430564.708   -23424333.611 9   1890553.84348  20430567.223    20430572.5844
  23006919.113    -7512027.901 8  -5810692.66846  23006923.427    23006936.9324
  24091751.902    -4112153.889 7   8200546.43445  24091753.217    24091760.3114
 00  4  7  1 38  0.0000000  0  6 23 17 06 26 09 10
  22379643.215   -13715463.741 8 -10676600.70647  22379643.575    22379650.0434
  20272464.717   -24735120.106 9  -7025039.64948  20272466.845    20272472.8944
  23056015.436    -9972831.764 8  -3955187.08346  23056018.754    23056036.2344
  20440346.579   -23372914.236 9   1930620.90748  20440351.676    20440357.0994
  22988132.485    -7610762.338 8  -5887626.93546  22988132.730    22988146.8824
  24106628.222    -4034010.490 8   8261437.26945  24106625.425    24106631.7504
 00  4  7  1 38 30.0000000  0  6 23 17 06 26 09 10
  22369648.844   -13767961.965 8 -10717508.44847  22369653.404    22369660.5324
  20265472.947   -24771859.183 9  -7053667.48748  20265475.374    20265481.2014
  23073566.103    -9880618.223 8  -3883334.06346  23073566.975    23073585.1364
  20450220.610   -23321041.980 9   1971040.87348  20450222.771    20450228.0934
  22969376.097    -7709295.522 8  -5964404.38946  22969381.064    22969394.9124
  24121500.761    -3955812.782 8   8322370.62445  24121504.238    24121513.0274
 00  4  7  1 39  0.0000000  0  6 23 17 06 26 09 10
  22359684.642   -13820333.936 8 -10758317.73847  22359688.035    22359693.8834
  20258572.611   -24808113.392 9  -7081917.51848  20258576.370    20258583.0334
  23091152.137    -9788193.120 8  -3811316.17046  23091155.830    23091173.5044
  20460176.071   -23268726.763 9   2011805.95048  20460178.084    20460183.0934
  22950665.300    -7807639.231 8  -6041034.23446  22950665.749    22950678.9594
  24136392.105    -3877566.557 7   8383341.71345  24136394.554    24136401.7824
 00  4  7  1 39 30.0000000  0  6 23 17 06 26 09 10
  22349737.637   -13872606.807 8 -10799049.75247  22349740.635    22349746.2144
  20251764.218   -24843889.967 9  -7109795.27248  20251768.079    20251774.4094
  23108772.358    -9695567.259 8  -3739141.76546  23108782.963    23108801.4314
  20470212.638   -23215968.696 9   2052916.02948  20470217.329    20470223.4054
  22931979.693    -7905789.922 8  -6117513.70146  22931986.271    22931999.6794
  24151299.939    -3799293.403 7   8444333.75845  24151288.420    24151297.0524
 00  4  7  1 40  0.0000000  0  6 23 17 06 26 09 10
  22339808.306   -13924789.020 9 -10839711.19347  22339811.068    22339816.7604
  20245048.142   -24879186.053 9  -7137298.68148  20245051.137    20245057.5614
  23126447.981    -9602746.349 8  -3666815.37046  23126448.908    23126467.1934
  20480336.608   -23162779.992 9   2094361.71848  20480338.722    20480344.4594
  22913339.959    -8003740.741 8  -6193837.53246  22913345.930    22913358.3244
  24166179.810    -3721009.025 7   8505334.57945  24166186.613    24166193.4554
 00  4  7  1 40 30.0000000  0  6 23 17 06 26 09 10
  22329891.715   -13976887.316 8 -10880307.26547  22329896.850    22329902.9454
  20238423.434   -24913995.435 9  -7164422.75248  20238427.231    20238433.4154
  23144141.079    -9509755.985 8  -3594356.88446  23144143.727    23144163.7714
  20490538.727   -23109161.251 9   2136142.57148  20490541.923    20490547.6694
  22894738.756    -8101483.067 8  -6269998.95146  22894746.019    22894757.7744
  24181088.040    -3642698.262 8   8566355.92045  24181089.719    24181095.2194
 00  4  7  1 41  0.0000000  0  6 23 17 06 26 09 10
  22319994.558   -14028905.700 8 -10920840.90947  22319998.378    22320004.2004
  20231896.342   -24948296.726 9  -7191150.98648  20231900.092    20231906.1834
  23161859.119    -9416628.901 8  -3521791.84546  23161866.473    23161887.1334
  20500820.708   -23055134.135 9   2178241.62648  20500823.143    20500828.9084
  22876182.151    -8199012.929 8  -6345994.89546  22876185.421    22876197.1984
  24195984.662    -3564362.450 7   8627396.88945  24195994.599    24196000.3114
 00  4  7  1 41 30.0000000  0  6 23 17 06 26 09 10
  22310115.344   -14080836.534 9 -10961306.44347  22310116.495    22310121.6064
  20225470.454   -24982072.328 9  -7217469.56648  20225472.702    20225478.6754
  23179610.850    -9323357.951 8  -3449114.68146  23179616.240    23179637.8904
  20511175.696   -23000703.742 9   2220654.84848  20511181.222    20511186.4134
  22857661.482    -8296331.195 8  -6421826.10746  22857666.029    22857677.2624
  24210909.538    -3485983.356 7   8688471.43545  24210909.998    24210918.6584
 00  4  7  1 42  0.0000000  0  6 23 17 06 26 09 10
  22300250.615   -14132664.170 9 -11001691.52147  22300253.231    22300258.9504
  20219141.786   -25015324.769 9  -7243380.57748  20219144.925    20219151.2814
  23197394.020    -9229926.989 8  -3376312.78346  23197398.335    23197418.2084
  20521611.934   -22945866.764 9   2263384.92548  20521616.132    20521621.8244
  22839191.466    -8393430.898 8  -6497487.07746  22839187.893    22839197.9284
  24225835.872    -3407542.734 8   8749594.03145  24225836.360    24225843.7104
 00  4  7  1 42 30.0000000  0  6 23 17 06 26 09 10
  22290408.190   -14184385.291 9 -11041993.69447  22290411.530    22290417.2164
  20212913.089   -25048065.304 9  -7268892.67848  20212915.033    20212920.4414
  23215207.645    -9136327.008 8  -3303379.10646  23215211.520    23215231.5394
  20532126.394   -22890622.438 9   2306432.53848  20532129.062    20532134.4784
  22820751.798    -8490308.212 8  -6572974.75846  22820751.467    22820761.9724
  24240773.434    -3329032.129 8   8810771.21145  24240776.957    24240784.1734
 00  4  7  1 43  0.0000000  0  6 23 17 06 26 09 10
  22280585.349   -14235999.274 8 -11082212.34447  22280589.102    22280595.2374
  20206773.569   -25080311.137 9  -7294019.26448  20206778.282    20206784.4134
  23233058.551    -9042538.180 8  -3230298.24346  23233059.555    23233079.8934
  20542714.133   -22834974.979 9   2349794.13148  20542718.043    20542723.6244
  22802356.977    -8586962.221 8  -6648288.58746  22802358.463    22802368.8734
  24255722.403    -3250458.693 8   8871997.26245  24255730.285    24255736.4754
 00  4  7  1 43 30.0000000  0  6 23 17 06 26 09 10
  22270784.690   -14287506.105 9 -11122347.46447  22270788.247    22270793.5534
  20200727.110   -25112095.899 9  -7318786.57248  20200730.489    20200736.3284
  23250942.220    -8948554.271 8  -3157065.34246  23250944.707    23250965.2944
  20553383.883   -22778907.332 9   2393483.17248  20553387.233    20553392.8784
  22784002.047    -8683382.795 8  -6723420.51246  22784009.581    22784019.9874
  24270686.820    -3171833.197 7   8933263.91045  24270690.379    24270699.3204
 00  4  7  1 44  0.0000000  0  6 23 17 06 26 09 10
  22261004.803   -14338902.631 9 -11162396.74547  22261007.397    22261013.4274
  20194764.746   -25143429.847 9  -7343202.60348  20194767.120    20194773.5324
  23268860.988    -8854397.837 8  -3083697.94246  23268863.253    23268883.6254
  20564133.207   -22722417.313 9   2437501.41448  20564136.894    20564142.5364
  22765703.439    -8779561.467 8  -6798364.00346  22765705.819    22765715.9034
  24285657.711    -3093164.649 7   8994564.01845  24285660.407    24285668.0874
 00  4  7  1 44 30.0000000  0  6 23 17 06 26 09 10
  22251242.775   -14390194.641 8 -11202364.51847  22251246.058    22251253.1214
  20188887.830   -25174307.869 9  -7367263.44748  20188891.348    20188897.5644
  23286808.682    -8760088.872 8  -3010211.72646  23286810.253    23286832.6244
  20574967.499   -22665497.834 9   2481854.23148  20574968.912    20574974.5104
  22747449.230    -8875501.135 8  -6873121.26446  22747448.220    22747458.7164
  24300638.514    -3014447.090 8   9055902.44945  24300640.891    24300647.3554
 00  4  7  1 45  0.0000000  0  6 23 17 06 26 09 10
  22241504.834   -14441378.705 9 -11242248.30947  22241507.166    22241513.1334
  20183102.756   -25204715.451 9  -7390957.59248  20183104.904    20183111.1184
  23304780.539    -8665646.801 8  -2936621.66946  23304783.350    23304805.8734
  20585881.936   -22608128.519 9   2526557.51748  20585885.875    20585891.2144
  22729234.601    -8971191.175 8  -6947684.11546  22729238.114    22729248.0034
  24315622.626    -2935687.743 7   9117273.44645  24315627.053    24315635.2264
 00  4  7  1 45 30.0000000  0  6 23 17 06 26 09 10
  22231787.777   -14492453.043 9 -11282046.46147  22231788.076    22231794.0844
  20177410.037   -25234626.902 9  -7414265.14748  20177412.983    20177419.5864
  23322773.075    -8571082.672 8  -2862936.49946  23322778.326    23322801.4954
  20596882.936   -22550296.313 9   2571621.64748  20596890.273    20596896.2074
  22711074.190    -9066628.290 8  -7022049.88746  22711077.317    22711086.6354
  24330631.407    -2856889.243 7   9178674.78545  24330622.249    24330629.5864
 00  4  7  1 46  0.0000000  0  6 23 17 06 26 09 10
  22222082.716   -14543420.909 8 -11321761.73147  22222088.222    22222094.4354
  20171818.148   -25264010.983 9  -7437161.86648  20171821.370    20171827.3944
  23340800.538    -8476403.323 8  -2789161.47946  23340797.073    23340818.9814
  20607982.531   -22491997.961 9   2617048.87148  20607984.854    20607989.9924
  22692959.906    -9161811.519 8  -7096217.86646  22692964.179    22692973.5134
  24345631.434    -2778033.198 7   9240121.10145  24345630.112    24345635.1234
 00  4  7  1 46 30.0000000  0  6 23 17 06 26 09 10
  22212404.188   -14594290.214 9 -11361400.15147  22212408.148    22212414.1564
  20166327.743   -25292864.922 9  -7459645.42348  20166330.958    20166336.6314
  23358833.375    -8381605.611 8  -2715294.24246  23358836.385    23358859.1644
  20619166.676   -22433236.293 9   2662837.20948  20619167.525    20619171.9014
  22674898.489    -9256743.835 8  -7170190.34546  22674898.090    22674908.3674
  24360640.495    -2699124.760 7   9301608.10645  24360643.261    24360652.2274
 00  4  7  1 47  0.0000000  0  6 23 17 06 26 09 10
  22202743.794   -14645069.702 9 -11400968.53947  22202746.462    22202752.4214
  20160940.576   -25321175.400 9  -7481705.50348  20160942.963    20160949.6344
  23376893.813    -8286675.880 8  -2641324.09546  23376902.870    23376924.0094
  20630426.172   -22374043.817 9   2708961.33348  20630430.837    20630435.5094
  22656876.395    -9351426.189 8  -7243968.01346  22656879.813    22656889.5304
  24375674.839    -2620175.272 7   9363127.15445  24375667.851    24375676.2864
 00  4  7  1 47 30.0000000  0  6 23 17 06 26 09 10
  22193099.275   -14695763.142 9 -11440469.90747  22193099.348    22193106.5304
  20155657.413   -25348942.521 9  -7503342.22748  20155659.295    20155665.5074
  23394991.318    -8191608.798 8  -2567246.90946  23394994.033    23395017.2764
  20641766.830   -22314449.976 9   2755397.96348  20641770.448    20641776.2534
  22638899.590    -9445877.547 8  -7317565.83646  22638905.473    22638915.3334
  24390693.702    -2541182.479 7   9424679.93245  24390699.813    24390706.7064
 00  4  7  1 48  0.0000000  0  6 23 17 06 26 09 10
  22183465.680   -14746359.234 8 -11479895.31847  22183470.767    22183478.1684
  20150474.112   -25376177.862 9  -7524564.52048  20150476.523    20150482.5664
  23413107.413    -8096403.121 8  -2493061.67146  23413111.430    23413135.5034
  20653179.924   -22254468.411 9   2802136.85448  20653184.847    20653190.2994
  22620973.590    -9540105.627 8  -7390989.70946  22620974.880    22620983.9514
  24405737.665    -2462151.829 7   9486262.29545  24405738.641    24405745.4114
 00  4  7  1 48 30.0000000  0  6 23 17 06 26 09 10
  22173860.620   -14796847.000 9 -11519236.38547  22173862.633    22173870.1174
  20145391.461   -25402893.723 9  -7545382.08648  20145392.907    20145398.9084
  23431253.080    -8001042.436 8  -2418755.67346  23431258.147    23431282.8954
  20664669.380   -22194114.175 9   2849166.15548  20664670.242    20664675.4194
  22603081.312    -9634106.654 8  -7464236.69446  22603086.816    22603094.5734
  24420786.738    -2383100.629 8   9547860.64745  24420784.043    24420787.6754
 00  4  7  1 49  0.0000000  0  6 23 17 06 26 09 10
  22164275.586   -14847203.534 8 -11558475.36347  22164280.562    22164287.4004
  20140403.769   -25429095.886 9  -7565799.40648  20140406.867    20140412.7524
  23449430.899    -7905520.547 8  -2344324.02445  23449436.367    23449460.9044
  20676225.674   -22133379.864 9   2896491.56248  20676227.779    20676232.7664
  22585233.899    -9727866.430 8  -7537295.76646  22585243.409    22585251.9824
  24435821.589    -2304020.246 7   9609481.71245  24435830.634    24435837.6864
 00  4  7  1 49 30.0000000  0  6 23 17 06 26 09 10
  22154725.107   -14897404.711 9 -11597593.17947  22154727.908    22154734.4274
  20135509.910   -25454808.302 9  -7585835.10548  20135513.800    20135519.7274
  23467641.198    -7809843.520 8  -2269771.50145  23467643.235    23467667.8994
  20687859.014   -22072228.755 9   2944141.78848  20687864.193    20687869.7004
  22567453.311    -9821374.566 8  -7610158.72746  22567449.529    22567458.5664
  24450876.702    -2224904.228 7   9671130.56845  24450884.895    24450892.1414
 00  4  7  1 50  0.0000000  0  6 23 17 06 26 09 10
  22145205.322   -14947441.433 9 -11636582.79947  22145206.148    22145212.4524
  20130709.946   -25480038.117 9  -7605494.62748  20130712.817    20130718.6654
  23485878.149    -7714010.474 8  -2195097.40545  23485880.453    23485904.5844
  20699577.710   -22010653.323 9   2992122.56648  20699581.194    20699587.3324
  22549706.612    -9914602.822 8  -7682803.65146  22549708.417    22549717.0574
  24465954.501    -2145739.706 7   9732817.18545  24465950.602    24465956.8084
 00  4  7  1 50 30.0000000  0  6 23 17 06 26 09 10
  22135713.995   -14997325.796 9 -11675453.63547  22135712.575    22135720.3184
  20126000.806   -25504782.942 9  -7624776.35548  20126004.072    20126009.8214
  23504143.567    -7618032.775 8  -2120310.60745  23504146.174    23504170.8564
  20711374.531   -21948664.962 9   3040425.27248  20711377.565    20711383.3124
  22532020.094   -10007529.847 8  -7755213.84546  22532025.533    22532032.7054
  24481019.523    -2066512.246 7   9794552.82945  24481025.965    24481033.4724
 00  4  7  1 51  0.0000000  0  6 23 17 06 26 09 10
  22126245.153   -15047069.077 9 -11714214.67447  22126248.144    22126254.1914
  20121387.444   -25529024.755 9  -7643666.06448  20121390.912    20121396.8664
  23522427.850    -7521937.820 8  -2045432.40645  23522433.160    23522458.8194
  20723247.548   -21886271.977 9   3089043.21748  20723251.183    20723255.8374
  22514397.172   -10100155.823 8  -7827389.51846  22514399.595    22514405.8984
  24496108.936    -1987209.703 7   9856347.01145  24496118.474    24496124.5514
 00  4  7  1 51 30.0000000  0  6 23 17 06 26 09 10
  22116803.917   -15096695.122 9 -11752884.26147  22116804.523    22116809.7104
  20116874.070   -25552739.481 9  -7662144.99248  20116877.989    20116883.9474
  23540739.990    -7425735.481 8  -1970470.48446  23540740.136    23540765.7394
  20735194.702   -21823498.924 9   3137957.19748  20735196.166    20735201.5364
  22496822.737   -10192484.869 8  -7899333.80546  22496828.515    22496835.7704
  24511218.745    -1907838.541 7   9918194.62945  24511221.119    24511227.2724
 00  4  7  1 52  0.0000000  0  6 23 17 06 26 09 10
  22107376.436   -15146220.536 9 -11791475.30747  22107379.997    22107385.9554
  20112466.955   -25575897.788 9  -7680190.43848  20112471.142    20112476.8304
  23559067.550    -7329440.422 8  -1895436.33546  23559065.278    23559091.9924
  20747201.777   -21760382.413 9   3187138.87448  20747206.142    20747212.2534
  22479305.838   -10284514.716 8  -7971044.89646  22479315.465    22479322.4144
  24526321.153    -1828406.383 7   9980089.71745  24526337.345    24526343.5714
 00  4  7  1 52 30.0000000  0  6 23 17 06 26 09 10
  22097967.736   -15195667.373 9 -11830005.28947  22097969.877    22097977.0734
  20108170.406   -25598484.041 9  -7697790.09048  20108173.237    20108178.7684
  23577406.368    -7233054.442 8  -1820331.29545  23577407.287    23577433.3684
  20759278.872   -21696918.514 9   3236591.20947  20759282.892    20759288.8824
  22461857.165   -10376254.689 8  -8042530.18546  22461857.669    22461864.7234
  24541440.432    -1748931.526 7  10042018.21945  24541458.318    24541467.4914
 00  4  7  1 53  0.0000000  0  6 23 17 06 26 09 10
  22088572.124   -15245045.264 9 -11868481.61547  22088573.837    22088581.0184
  20103978.075   -25620507.614 9  -7714951.25348  20103982.288    20103988.3504
  23595772.395    -7136571.021 8  -1745150.30945  23595769.296    23595794.7394
  20771427.418   -21633095.725 9   3286323.22947  20771428.332    20771433.6594
  22444452.560   -10467709.885 8  -8113793.65646  22444454.601    22444461.3764
  24556584.519    -1669438.545 7  10103960.67345  24556588.816    24556592.1194
 00  4  7  1 53 30.0000000  0  6 23 17 06 26 09 10
  22079187.347   -15294355.980 9 -11906905.52147  22079189.874    22079197.1504
  20099893.911   -25641984.796 9  -7731686.72248  20099895.633    20099901.3234
  23614142.300    -7039981.866 8  -1669886.95945  23614150.232    23614174.8824
  20783641.888   -21568907.720 9   3336339.81747  20783642.990    20783648.1904
  22427102.446   -10558869.646 8  -8184826.90246  22427107.410    22427114.2784
  24571708.407    -1589941.224 7  10165906.63645  24571714.846    24571721.6694
 00  4  7  1 54  0.0000000  0  6 23 17 06 26 09 10
  22069815.252   -15343598.721 9 -11945276.45547  22069819.374    22069825.9594
  20095904.720   -25662939.801 9  -7748015.28148  20095907.550    20095913.5384
  23632544.674    -6943288.497 8  -1594542.34945  23632550.159    23632577.6854
  20795926.793   -21504338.374 9   3386653.57447  20795930.189    20795934.7964
  22409820.694   -10649730.457 8  -8255627.21246  22409816.016    22409822.4944
  24586837.187    -1510433.592 7  10227860.60944  24586845.766    24586850.8814
 00  4  7  1 54 30.0000000  0  6 23 17 06 26 09 10
  22060460.910   -15392768.871 9 -11983590.86647  22060463.380    22060469.7784
  20092010.784   -25683396.964 9  -7763955.94048  20092015.042    20092020.5394
  23650971.539    -6846490.400 8  -1519116.19846  23650971.702    23650998.7864
  20808288.318   -21439377.495 9   3437272.39847  20808291.892    20808297.2654
  22392572.660   -10740295.217 8  -8326196.86646  22392581.869    22392588.9324
  24601970.686    -1430916.153 7  10289822.26044  24601978.206    24601985.1584
 00  4  7  1 55  0.0000000  0  6 23 17 06 26 09 10
  22051123.618   -15441838.458 9 -12021826.87247  22051124.869    22051132.2714
  20088213.410   -25703354.247 9  -7779507.04048  20088217.204    20088222.8644
  23669400.984    -6749603.933 8  -1443621.11845  23669408.770    23669434.8894
  20820720.745   -21374036.920 9   3488187.11247  20820725.940    20820731.1874
  22375404.192   -10830558.327 8  -8396531.47746  22375405.606    22375412.4334
  24617095.396    -1351371.356 7  10351805.18945  24617111.740    24617119.4264
 00  4  7  1 55 30.0000000  0  6 23 17 06 26 09 10
  22041804.272   -15490790.816 8 -12059971.52447  22041808.965    22041816.8084
  20084513.976   -25722790.986 9  -7794652.53048  20084518.134    20084524.3914
  23687863.564    -6652638.691 8  -1368064.66045  23687861.128    23687887.6764
  20833227.237   -21308323.420 9   3539392.38147  20833230.951    20833236.4504
  22358284.132   -10920522.132 8  -8466632.88246  22358285.463    22358293.1574
  24632266.269    -1271773.745 7  10413829.26045  24632260.552    24632268.8004
 00  4  7  1 56  0.0000000  0  6 23 17 06 26 09 10
  22032515.611   -15539614.714 9 -12098016.11647  22032518.885    22032525.2944
  20080917.724   -25741692.229 9  -7809380.80848  20080921.443    20080927.7924
  23706324.891    -6555593.172 8  -1292445.63045  23706328.831    23706355.8934
  20845801.591   -21242241.910 9   3590884.39547  20845805.281    20845811.1174
  22341218.321   -11010196.329 8  -8536508.60346  22341221.019    22341228.7924
  24647419.241    -1192115.644 7  10475900.51945  24647417.910    24647424.1414
 00  4  7  1 56 30.0000000  0  6 23 17 06 26 09 10
  22023254.063   -15588300.198 9 -12135952.80947  22023254.179    22023260.4984
  20077428.804   -25760029.716 9  -7823669.78748  20077431.959    20077438.2024
  23724806.214    -6458476.005 8  -1216770.76245  23724810.066    23724838.1634
  20858444.689   -21175800.837 9   3642656.55047  20858449.040    20858454.5894
  22324209.936   -11099572.999 8  -8606152.48646  22324212.910    22324220.4084
  24662584.684    -1112399.368 7  10538017.11544  24662584.827    24662595.2424
 00  4  7  1 57  0.0000000  0  6 23 17 06 26 09 10
  22014014.613   -15636850.159 9 -12173784.00347  22014015.416    22014020.8854
  20074048.539   -25777786.714 9  -7837506.41548  20074052.633    20074058.9264
  23743311.486    -6361285.382 8  -1141038.66345  23743305.471    23743333.9974
  20871156.108   -21109009.419 9   3694701.72447  20871159.382    20871164.1274
  22307260.874   -11188642.209 8  -8675556.84346  22307263.278    22307270.4954
  24677768.791    -1032619.916 7  10600182.91645  24677770.352    24677776.8624
 00  4  7  1 57 30.0000000  0  6 23 17 06 26 09 10
  22004799.484   -15685280.156 9 -12211521.83347  22004800.274    22004805.6164
  20070777.494   -25794983.591 9  -7850906.54048  20070780.574    20070786.4904
  23761810.985    -6264005.599 8  -1065237.09845  23761817.432    23761845.9424
  20883933.036   -21041866.449 9   3747021.12147  20883936.091    20883940.9414
  22290365.348   -11277400.703 8  -8744718.99746  22290372.962    22290380.4604
  24692956.566     -952789.610 7  10662388.34345  24692962.078    24692967.6254
 00  4  7  1 58  0.0000000  0  6 23 17 06 26 09 10
  21995601.141   -15733600.734 9 -12249174.26947  21995604.860    21995611.2124
  20067608.401   -25811630.670 9  -7863878.32748  20067612.671    20067618.6424
  23780347.279    -6166639.701 8   -989368.37945  23780345.373    23780375.1714
  20896777.365   -20974372.058 9   3799614.16947  20896779.904    20896784.6614
  22273544.229   -11365832.884 8  -8813626.94047  22273545.339    22273551.6324
  24708146.956     -872916.764 7  10724626.88544  24708160.584    24708168.2064
 00  4  7  1 58 30.0000000  0  6 23 17 06 26 09 10
  21986429.584   -15781820.330 9 -12286747.97647  21986428.789    21986435.2274
  20064545.136   -25827738.799 9  -7876430.12348  20064547.799    20064553.5274
  23798880.573    -6069202.412 8   -913444.03945  23798888.694    23798917.1014
  20909685.755   -20906528.941 9   3852478.93947  20909689.760    20909695.1024
  22256776.972   -11453926.509 8  -8882271.05646  22256780.537    22256787.5224
  24723357.375     -793000.338 7  10786899.42944  24723367.937    24723373.8454
 00  4  7  1 59  0.0000000  0  6 23 17 06 26 09 10
  21977272.159   -15829942.394 9 -12324245.60247  21977271.600    21977277.5864
  20061577.565   -25843328.782 9  -7888578.06748  20061580.931    20061586.8404
  23817443.648    -5971694.067 8   -837464.30145  23817445.574    23817474.5064
  20922662.756   -20838330.472 9   3905620.60747  20922666.620    20922672.4924
  22240073.968   -11541686.308 8  -8950655.02646  22240080.175    22240087.1254
  24738586.904     -713049.195 7  10849198.93844  24738584.871    24738587.7724
 00  4  7  1 59 30.0000000  0  6 23 17 06 26 09 10
  21968128.865   -15877962.434 9 -12361663.87547  21968133.768    21968139.8714
  20058709.896   -25858396.351 9  -7900319.00948  20058713.645    20058719.5604
  23836009.429    -5874130.253 8   -761441.39745  23836010.107    23836039.7474
  20935713.141   -20769760.186 9   3959051.95847  20935715.426    20935721.2184
  22223442.026   -11629116.490 8  -9018782.20246  22223443.392    22223449.8054
  24753795.856     -633062.582 7  10911526.14444  24753801.113    24753811.4734
 00  4  7  2  0  0.0000000  0  6 23 17 06 26 09 10
  21959016.445   -15925869.930 9 -12398994.35247  21959017.741    21959023.9924
  20055948.374   -25872914.401 9  -7911631.75948  20055951.265    20055956.3644
  23854568.157    -5776534.936 7   -685393.92345  23854582.114    23854612.6134
  20948830.066   -20700821.036 9   4012770.70647  20948833.706    20948839.9674
  22206868.634   -11716220.420 8  -9086655.16746  22206868.398    22206873.9144
  24769019.980     -553035.729 7  10973884.75244  24769032.796    24769038.2504
 00  4  7  2  0 30.0000000  0  6 23 17 06 26 09 10
  21949921.457   -15973652.956 9 -12436227.88647  21949924.814    21949930.8234
  20053291.550   -25886875.674 9  -7922510.60148  20053294.211    20053299.9484
  23873154.100    -5678914.001 7   -609326.46745  23873159.750    23873189.8474
  20962019.072   -20631519.749 9   4066771.71747  20962022.159    20962027.4904
  22190345.218   -11803005.705 8  -9154279.81846  22190352.155    22190358.1664
  24784261.081     -472966.867 7  11036276.02745  24784268.146    24784275.7604
 00  4  7  2  1  0.0000000  0  5 23 17 06 26 09
  21940852.603   -16021309.041 9 -12473362.62847  21940856.097    21940861.6434
  20050743.939   -25900268.035 9  -7932946.25048  20050745.785    20050751.6164
  23891738.800    -5581260.503 8   -533233.63945  23891744.625    23891773.1034
  20975276.726   -20561860.889 9   4121051.30647  20975278.315    20975283.3644
  22173900.971   -11889465.388 8  -9221650.77046  22173900.248    22173905.6534
 00  4  7  2  1 30.0000000  0  5 23 17 06 26 09
  21931806.687   -16068849.435 9 -12510406.95347  21931808.481    21931814.7934
  20048305.179   -25913075.185 9  -7942925.86148  20048308.584    20048314.3204
  23910335.301    -5483569.909 8   -457111.84145  23910334.626    23910365.2124
  20988593.696   -20491866.430 9   4175592.38747  20988597.063    20988603.1004
  22157506.235   -11975586.952 8  -9288758.22046  22157511.088    22157517.2264
 00  4  7  2  2  0.0000000  0  5 23 17 06 26 09
  21922778.643   -16116287.753 9 -12547371.99047  21922781.717    21922788.2734
  20045978.432   -25925307.102 9  -7952457.18948  20045980.487    20045986.8284
  23928932.676    -5385828.383 8   -380950.40945  23928934.741    23928965.8894
  21001972.904   -20421560.187 9   4230376.45447  21001976.353    21001981.2724
  22141188.490   -12061352.787 8  -9355588.54647  22141189.828    22141196.7214
 00  4  7  2  2 30.0000000  0  5 23 17 06 26 09
  21913768.653   -16163639.252 9 -12584269.21847  21913770.995    21913776.7174
  20043755.976   -25936975.570 9  -7961549.49248  20043760.436    20043766.2834
  23947534.836    -5288022.081 8   -304738.49145  23947547.447    23947577.4354
  21015407.302   -20350949.470 9   4285397.72947  21015412.656    21015418.5574
  22124938.486   -12146742.394 8  -9422125.69547  22124941.247    22124947.6494
 00  4  7  2  3  0.0000000  0  6 23 17 06 03 26 09
  21904775.491   -16210916.858 9 -12621108.97147  21904775.231    21904779.8044
  20041643.816   -25948081.903 9  -7970203.72548  20041646.728    20041652.9244
  23966163.281    -5190138.535 8   -228466.35745  23966174.557    23966205.3004
  24644684.422    -1392570.62117  -1072874.68055  24644682.126    24644691.4234
  21028902.413   -20280038.975 9   4340652.63447  21028906.559    21028912.5024
  22108759.284   -12231744.841 8  -9488361.15547  22108764.844    22108771.7604
 00  4  7  2  3 30.0000000  0  6 23 17 06 03 26 09
  21895791.228   -16258115.241 9 -12657886.99147  21895793.092    21895799.1884
  20039637.728   -25958629.328 9  -7978422.50448  20039639.331    20039645.6114
  23984816.135    -5092177.921 8   -152134.15745  23984816.756    23984846.8964
  24636907.456    -1433436.287 8  -1104717.75245  24636907.562    24636913.5464
  21042453.230   -20208824.499 9   4396144.30747  21042458.328    21042464.0514
  22092659.671   -12316360.893 8  -9554295.60447  22092663.409    22092669.3074
 00  4  7  2  4  0.0000000  0  6 23 17 06 03 26 09
  21886829.217   -16305208.121 9 -12694582.80447  21886831.706    21886837.8294
  20037736.060   -25968616.625 9  -7986204.74848  20037738.801    20037745.0704
  24003460.515    -4994153.337 8    -75752.11445  24003469.599    24003501.6124
  24629218.341    -1473774.058 7  -1136149.62745  24629228.966    24629238.8084
  21056070.071   -20137297.872 9   4451879.36647  21056069.824    21056075.3374
  22076629.604   -12400593.568 8  -9619931.39647  22076634.974    22076640.7644
 00  4  7  2  4 30.0000000  0  6 23 17 06 03 26 09
  21877889.169   -16352180.509 9 -12731184.66647  21877892.752    21877899.0054
  20035942.481   -25978037.082 9  -7993545.38348  20035946.295    20035952.2924
  24022135.666    -4896074.353 8       672.32845  24022135.485    24022165.7374
  24621655.874    -1513593.732 7  -1167177.93945  24621652.208    24621661.1144
  21069741.584   -20065444.253 9   4507869.24647  21069743.526    21069749.0774
  22060677.294   -12484451.306 9  -9685274.98247  22060677.451    22060683.2254
 00  4  7  2  5  0.0000000  0  6 23 17 06 03 26 09
  21868975.739   -16399016.236 9 -12767679.96447  21868980.174    21868986.8624
  20034259.039   -25986885.938 9  -8000440.60548  20034262.729    20034268.4994
  24040814.689    -4797958.497 8     77125.51045  24040806.223    24040838.1244
  24614172.208    -1552899.143 7  -1197805.32344  24614171.310    24614181.4184
  21083477.157   -19993256.260 9   4564119.63047  21083480.264    21083485.3084
  22044787.169   -12567943.920 8  -9750333.93947  22044789.012    22044794.4994
 00  4  7  2  5 30.0000000  0  6 23 17 06 03 26 09
  21860093.312   -16445702.216 9 -12804058.66447  21860096.431    21860102.4144
  20032684.346   -25995166.503 9  -8006892.98148  20032686.728    20032692.6004
  24059479.996    -4699824.015 7    153593.14145  24059480.753    24059513.7324
  24606780.283    -1591705.678 7  -1228043.86745  24606788.473    24606796.9284
  21097277.292   -19920730.571 9   4620633.16447  21097281.028    21097286.5884
  22028964.769   -12651079.070 8  -9815114.38347  22028969.041    22028973.8394
 00  4  7  2  6  0.0000000  0  6 23 17 06 03 26 09
  21851237.151   -16492247.057 9 -12840327.28847  21851239.357    21851244.8934
  20031214.739   -26002884.949 9  -8012907.34648  20031218.036    20031224.0034
  24078151.908    -4601686.885 7    230062.88345  24078156.239    24078188.3784
  24599487.879    -1630013.049 7  -1257893.57645  24599497.685    24599507.0924
  21111139.354   -19847878.442 9   4677401.06247  21111143.861    21111149.6464
  22013209.571   -12733860.000 8  -9879618.90247  22013216.073    22013221.3804
 00  4  7  2  6 30.0000000  0  6 23 17 06 03 26 09
  21842403.293   -16538670.173 9 -12876501.08947  21842406.036    21842411.1344
  20029852.429   -26010039.359 9  -8018482.12848  20029856.265    20029862.4144
  24096831.641    -4503543.912 7    306537.18445  24096833.563    24096866.0114
  24592302.584    -1667830.406 7  -1287361.42745  24592301.051    24592311.5804
  21125062.684   -19774699.000 9   4734424.03247  21125069.512    21125075.2704
  21997529.444   -12816282.664 8  -9943844.22347  21997530.930    21997537.4154
 00  4  7  2  7  0.0000000  0  6 23 17 06 03 26 09
  21833592.135   -16584976.123 9 -12912583.59647  21833593.967    21833599.8464
  20028601.995   -26016619.147 9  -8023609.30248  20028604.165    20028610.1304
  24115505.561    -4405393.592 7    383017.15845  24115510.513    24115543.9474
  24585198.994    -1705156.138 7  -1316446.36045  24585198.999    24585206.7154
  21139052.663   -19701201.881 9   4791694.52147  21139055.539    21139061.1734
  21981910.960   -12898345.449 8 -10007789.17347  21981914.817    21981921.0794
 00  4  7  2  7 30.0000000  0  6 23 17 06 03 26 09
  21824799.744   -16631180.727 9 -12948587.17647  21824801.044    21824807.9174
  20027459.010   -26022622.444 9  -8028287.15648  20027462.023    20027467.9074
  24134182.488    -4307218.503 7    459516.50445  24134193.803    24134227.0974
  24578179.802    -1741984.099 7  -1345143.48445  24578189.132    24578199.9624
  21153098.382   -19627396.622 9   4849205.05247  21153100.488    21153105.7054
  21966371.405   -12980035.362 8 -10071443.57147  21966369.837    21966375.7724
 00  4  7  2  8  0.0000000  0  7 23 17 06 03 21 26 09
  21816023.857   -16677294.616 9 -12984520.01947  21816026.305    21816032.6884
  20026427.990   -26028038.982 9  -8032507.83748  20026431.116    20026437.3184
  24152876.612    -4209020.452 8    536033.69945  24152880.188    24152913.4684
  24571277.309    -1778307.049 7  -1373447.14045  24571278.147    24571286.6704
  24945627.861     -175490.46217   -125183.01155  24945631.981    24945640.3274
  21167203.174   -19553287.486 9   4906952.41447  21167203.386    21167208.9704
  21950893.586   -13061336.646 8 -10134795.11147  21950897.876    21950904.3784
 00  4  7  2  8 30.0000000  0  7 23 17 06 03 21 26 09
  21807265.792   -16723316.336 9 -13020381.18247  21807268.474    21807274.7174
  20025509.838   -26032865.190 9  -8036268.57648  20025512.730    20025518.6904
  24171565.160    -4110795.570 7    612571.78445  24171572.343    24171605.5974
  24564459.559    -1814124.335 7  -1401356.62645  24564460.890    24564470.1484
  24930891.502     -252925.394 7   -185521.88645  24930898.569    24930904.2354
  21181358.480   -19478873.818 9   4964937.08747  21181364.017    21181369.0914
  21935503.513   -13142241.757 8 -10197838.04347  21935501.937    21935507.5684
 00  4  7  2  9  0.0000000  0  7 23 17 06 03 21 26 09
  21798526.815   -16769238.829 9 -13056165.03047  21798529.009    21798536.0984
  20024699.380   -26037116.759 9  -8039581.45848  20024703.334    20024709.6304
  24190252.698    -4012550.512 7    689125.64545  24190269.475    24190302.1704
  24557730.465    -1849435.329 7  -1428871.57845  24557743.386    24557752.7184
  24916158.265     -330382.507 7   -245878.03545  24916158.197    24916166.0714
  21195578.655   -19404167.334 9   5023149.93947  21195579.773    21195585.5544
  21920180.145   -13222746.363 8 -10260568.84247  21920183.202    21920189.1534
 00  4  7  2  9 30.0000000  0  7 23 17 06 03 21 26 09
  21789807.902   -16815053.709 9 -13091864.83847  21789810.704    21789817.4514
  20023997.113   -26040812.003 9  -8042460.88448  20024000.243    20024006.5894
  24208954.780    -3914306.912 7    765678.37045  24208964.145    24208998.9764
  24551123.047    -1884245.739 7  -1455996.51645  24551118.030    24551126.0014
  24901411.087     -407869.943 7   -306257.85245  24901414.662    24901418.7744
  21209850.070   -19329172.651 9   5081587.40747  21209850.907    21209856.3874
  21904936.278   -13302848.116 8 -10322985.80047  21904940.330    21904945.9904
 00  4  7  2 10  0.0000000  0  7 23 17 06 03 21 26 09
  21781113.047   -16860734.890 9 -13127460.51647  21781118.014    21781124.6934
  20023397.756   -26043954.341 9  -8044909.43648  20023402.388    20023408.4284
  24227651.534    -3816093.599 7    842207.46745  24227654.945    24227688.3154
  24544582.994    -1918563.076 7  -1482736.96145  24544587.360    24544596.0034
  24886660.192     -485380.922 7   -366655.95545  24886662.599    24886671.7304
  21224171.675   -19253896.208 9   5140244.33147  21224174.745    21224180.7564
  21889766.915   -13382565.733 8 -10385103.37447  21889770.301    21889776.2424
 00  4  7  2 10 30.0000000  0  7 23 17 06 03 21 26 09
  21772450.587   -16906274.793 9 -13162946.21347  21772452.410    21772458.0924
  20022905.966   -26046538.626 9  -8046923.12448  20022910.621    20022917.1334
  24246336.015    -3717909.593 7    918713.74945  24246338.655    24246371.6044
  24538151.496    -1952388.052 8  -1509093.80945  24538152.725    24538159.7284
  24871908.964     -562914.376 7   -427071.67745  24871910.608    24871916.3104
  21238551.400   -19178331.227 9   5199126.06647  21238554.500    21238560.8754
  21874672.626   -13461901.839 8 -10446923.63547  21874673.213    21874679.0414
 00  4  7  2 11  0.0000000  0  7 23 17 06 03 21 26 09
  21763810.707   -16951665.448 9 -13198315.59047  21763814.575    21763820.1434
  20022525.592   -26048547.707 9  -8048488.63048  20022528.417    20022534.6954
  24265011.313    -3619758.979 7    995193.99045  24265015.879    24265050.6294
  24531807.052    -1985725.383 8  -1535070.85645  24531807.792    24531814.2114
  24857146.507     -640480.814 7   -487513.02445  24857148.012    24857155.3264
  21252986.071   -19102472.407 9   5258236.76547  21252989.960    21252996.1194
  21859647.077   -13540856.861 8 -10508446.99247  21859648.970    21859654.9024
 00  4  7  2 11 30.0000000  0  7 23 17 06 03 21 26 09
  21755203.833   -16996906.920 9 -13233568.64147  21755205.332    21755212.1224
  20022256.968   -26049961.231 9  -8049590.12948  20022259.612    20022265.6504
  24283697.450    -3521642.007 7   1071648.04545  24283689.972    24283722.5414
  24525555.062    -2018571.477 7  -1560664.95445  24525557.138    24525563.7524
  24842378.390     -718074.649 7   -547975.71645  24842384.752    24842388.1984
  21267478.905   -19026318.262 9   5317577.64147  21267481.770    21267487.6504
  21844693.492   -13619427.683 8 -10569670.99247  21844697.447    21844703.4084
 00  4  7  2 12  0.0000000  0  7 23 17 06 03 21 26 09
  21746618.950   -17042014.934 9 -13268717.68947  21746621.505    21746628.1884
  20022105.240   -26050757.052 9  -8050210.26548  20022107.934    20022113.8534
  24302368.760    -3423534.750 7   1148094.51245  24302356.417    24302392.0324
  24519392.293    -2050913.616 7  -1585866.54745  24519400.936    24519410.5404
  24827615.081     -795687.727 7   -608453.46145  24827613.230    24827620.6924
  21282026.836   -18949873.008 9   5377145.37147  21282029.045    21282034.7014
  21829816.877   -13697596.715 8 -10630581.90347  21829822.304    21829828.1034
 00  4  7  2 12 30.0000000  0  8 23 17 06 03 21 26 29 09
  21738052.841   -17087019.672 9 -13303786.30847  21738057.075    21738064.6004
  20022072.827   -26050922.275 9  -8050339.04048  20022076.437    20022082.5524
  24321030.193    -3325420.513 7   1224546.43845  24321029.690    24321063.1474
  24513339.302    -2082741.784 7  -1610667.56945  24513344.811    24513353.6274
  24812830.483     -873321.986 7   -668947.72345  24812840.026    24812846.7204
  21296628.193   -18873135.459 9   5436940.74547  21296632.607    21296638.0454
  24558221.468    -1453197.12917  -1122931.14055  24558218.801    24558242.1514
  21815027.857   -13775334.234 9 -10691156.56647  21815029.352    21815034.3994
 00  4  7  2 13  0.0000000  0  8 23 17 06 03 21 26 29 09
  21729510.656   -17131927.953 9 -13338779.82847  21729511.753    21729518.1554
  20022160.365   -26050473.334 9  -8049989.20348  20022162.293    20022167.9414
  24339701.678    -3227299.360 7   1301003.78845  24339700.747    24339734.6264
  24507384.529    -2114057.907 7  -1635069.55645  24507385.640    24507394.5154
  24798059.625     -950983.459 7   -729463.08545  24798060.285    24798068.6624
  21311283.870   -18796124.635 9   5496949.15147  21311286.855    21311292.1964
  24540244.654    -1547636.850 7  -1196520.48145  24540247.807    24540273.1654
  21800314.135   -13852632.090 8 -10751388.66847  21800319.109    21800325.8994
 00  4  7  2 13 30.0000000  0  8 23 17 06 03 21 26 29 09
  21720976.862   -17176749.545 9 -13373705.82847  21720982.500    21720989.0514
  20022357.652   -26049427.443 9  -8049174.23048  20022361.145    20022366.8484
  24358376.385    -3129168.764 7   1377468.46045  24358375.316    24358410.8594
  24501515.815    -2144852.181 7  -1659065.01145  24501525.178    24501533.0574
  24783279.627    -1028678.137 7   -790004.46245  24783279.533    24783282.7194
  21325989.600   -18718851.472 9   5557162.04947  21325991.843    21325997.2454
  24522303.651    -1641940.852 7  -1270004.06645  24522301.654    24522327.7974
  21785692.972   -13929477.942 8 -10811268.52947  21785695.959    21785702.4134
 00  4  7  2 14  0.0000000  0  8 23 17 06 03 21 26 29 09
  21712465.278   -17221483.593 9 -13408563.53347  21712469.793    21712476.4994
  20022665.827   -26047797.510 9  -8047904.12948  20022670.851    20022677.3904
  24377047.817    -3031033.129 7   1453937.04145  24377050.489    24377086.9374
  24495765.324    -2175118.563 7  -1682649.18145  24495765.875    24495774.3844
  24768482.787    -1106421.832 7   -850583.92145  24768485.245    24768488.9754
  21340743.110   -18641309.003 9   5617584.74747  21340746.686    21340753.1154
  24504379.841    -1736119.798 7  -1343390.21145  24504379.879    24504405.4604
  21771159.078   -14005868.635 8 -10870793.73947  21771159.541    21771165.0774
 00  4  7  2 14 30.0000000  0  8 23 17 06 03 21 26 29 09
  21703973.249   -17266126.313 9 -13443350.06347  21703975.153    21703981.1984
  20023084.953   -26045601.732 9  -8046193.13448  20023088.694    20023095.1684
  24395719.561    -2932911.232 7   1530394.92845  24395723.494    24395758.8954
  24490104.347    -2204864.169 7  -1705827.54745  24490107.215    24490112.3884
  24753678.474    -1184218.946 7   -911205.08345  24753676.934    24753687.1194
  21355551.706   -18563495.336 9   5678218.74847  21355554.377    21355560.3714
  24486477.792    -1830173.501 7  -1416678.75745  24486483.511    24486508.1154
  21756699.101   -14081821.485 8 -10929977.84647  21756706.268    21756711.7564
 00  4  7  2 15  0.0000000  0  8 23 17 06 03 21 26 29 09
  21695499.538   -17310659.491 9 -13478051.16647  21695500.911    21695506.9664
  20023610.652   -26042848.063 9  -8044047.40048  20023613.198    20023619.0984
  24414374.003    -2834811.598 7   1606835.47545  24414391.063    24414425.7734
  24484547.717    -2234089.320 7  -1728600.36645  24484543.753    24484551.4734
  24738862.680    -1262071.522 7   -971869.42545  24738863.197    24738871.0894
  21370409.052   -18485411.551 9   5739063.24747  21370413.199    21370419.6984
  24468616.429    -1924096.401 7  -1489865.32645  24468610.036    24468634.7124
  21742332.744   -14157353.455 8 -10988833.97547  21742333.057    21742338.7164
 00  4  7  2 15 30.0000000  0  8 23 17 06 03 21 26 29 09
  21687048.659   -17355065.207 9 -13512652.97847  21687050.375    21687057.0704
  20024243.331   -26039521.420 9  -8041455.24548  20024246.109    20024252.4414
  24433044.508    -2736745.135 7   1683250.18145  24433054.784    24433089.3774
  24479074.925    -2262781.419 7  -1750957.84045  24479084.962    24479093.0444
  24724031.231    -1339963.404 7  -1032564.38245  24724039.974    24724047.7624
  21385322.449   -18407048.334 9   5800125.52947  21385325.410    21385331.3194
  24450747.820    -2017873.769 7  -1562938.45145  24450762.495    24450790.1874
  21728040.351   -14232465.420 9 -11047362.84047  21728039.733    21728046.1154
 00  4  7  2 16  0.0000000  0  8 23 17 06 03 21 26 29 09
  21678624.278   -17399331.947 9 -13547146.63247  21678626.556    21678633.3244
  20024987.576   -26035610.855 9  -8038408.06948  20024990.271    20024996.7204
  24451706.444    -2638724.029 7   1759629.49645  24451707.271    24451742.0394
  24473719.379    -2290941.959 7  -1772901.18145  24473725.407    24473732.8314
  24709213.794    -1417882.873 7  -1093280.80245  24709212.834    24709220.1884
  21400284.579   -18328405.090 9   5861405.97647  21400290.381    21400296.6564
  24432939.313    -2111492.907 7  -1635888.26345  24432945.053    24432972.5964
  21713824.214   -14307162.045 9 -11105568.01447  21713826.184    21713831.8854
 00  4  7  2 16 30.0000000  0  8 23 17 06 03 21 26 29 09
  21670225.308   -17443455.212 9 -13581528.46547  21670229.690    21670236.5384
  20025842.116   -26031105.120 9  -8034897.09848  20025847.447    20025853.9704
  24470355.036    -2540754.478 8   1835968.71445  24470351.856    24470385.6534
  24468454.146    -2318581.254 7  -1794438.24345  24468465.968    24468472.8454
  24694380.538    -1495816.567 7  -1154008.35745  24694381.122    24694390.8364
  21415303.513   -18249490.295 9   5922898.04447  21415307.302    21415313.6694
  24415154.909    -2204940.058 7  -1708704.01545  24415164.462    24415190.7914
  21699687.539   -14381440.584 8 -11163447.36347  21699691.165    21699697.2044
 00  4  7  2 17  0.0000000  0  8 23 17 06 03 21 26 29 09
  21661859.607   -17487422.102 9 -13615788.19647  21661863.901    21661870.3994
  20026815.330   -26025997.391 9  -8030917.06048  20026819.602    20026826.2254
  24488976.612    -2442842.486 7   1912263.11045  24488983.002    24489019.4014
  24463305.782    -2345695.152 7  -1815565.93845  24463306.234    24463313.5754
  24679550.088    -1573757.579 7  -1214741.58045  24679554.288    24679559.8184
  21430375.147   -18170302.295 9   5984603.00247  21430376.627    21430382.8724
  24397407.337    -2298212.564 7  -1781383.62745  24397415.496    24397441.4214
  21685635.051   -14455283.071 9 -11220986.98447  21685639.322    21685645.1214
 00  4  7  2 17 30.0000000  0  8 23 17 06 03 21 26 29 09
  21653522.372   -17531245.271 9 -13649936.04147  21653524.336    21653530.7764
  20027902.363   -26020288.576 9  -8026468.67048  20027905.937    20027912.9554
  24507602.247    -2344991.598 8   1988509.84245  24507604.820    24507640.0744
  24458243.697    -2372297.300 7  -1836294.79645  24458243.419    24458249.7544
  24664698.884    -1651701.823 7  -1275477.32045  24664719.864    24664726.8544
  21445493.210   -18090843.375 9   6046519.04347  21445497.389    21445503.6804
  24379696.527    -2391311.870 7  -1853928.21045  24379699.642    24379725.6544
  21671671.170   -14528676.864 9 -11278176.98847  21671672.840    21671678.9334
 00  4  7  2 18  0.0000000  0  7 23 17 03 21 26 29 09
  21645204.317   -17574943.687 9 -13683986.71547  21645208.124    21645215.4634
  20029101.827   -26013988.519 9  -8021559.48548  20029104.860    20029111.3984
  24453277.897    -2398395.348 7  -1856630.77445  24453276.633    24453286.8404
  24649885.453    -1729654.697 7  -1336219.83245  24649885.615    24649893.7434
  21460665.919   -18011134.177 9   6108630.03047  21460665.385    21460671.4284
  24362017.613    -2484251.837 8  -1926348.57645  24362014.923    24362038.9644
  21657786.551   -14601623.679 9 -11335018.63447  21657791.700    21657797.8654
 00  4  7  2 18 30.0000000  0  7 23 17 03 21 26 29 09
  21636911.327   -17618527.949 9 -13717948.48847  21636915.194    21636921.2754
  20030412.423   -26007103.805 9  -8016194.80948  20030415.273    20030421.5434
  24448405.241    -2423992.575 7  -1876576.62745  24448406.913    24448414.8244
  24635049.638    -1807615.458 7  -1396968.46245  24635050.153    24635058.0474
  21475874.657   -17931187.321 9   6170926.14647  21475878.898    21475884.3054
  24344352.453    -2577049.591 7  -1998658.06345  24344355.863    24344378.4454
  21643995.262   -14674121.579 9 -11391510.49947  21643996.306    21644001.7894
 00  4  7  2 19  0.0000000  0  7 23 17 03 21 26 29 09
  21628638.893   -17662010.769 9 -13751831.11447  21628640.576    21628646.5844
  20031832.539   -25999636.520 9  -8010376.14448  20031836.047    20031842.2464
  24443629.438    -2449083.411 7  -1896127.97745  24443630.930    24443640.1164
  24620206.869    -1885597.731 7  -1457733.86145  24620210.399    24620217.2554
  21491132.645   -17851009.501 9   6233402.28147  21491136.604    21491141.9264
  24326723.512    -2669703.585 7  -2070855.47045  24326723.886    24326746.3944
  21630280.537   -14746169.733 9 -11447651.85747  21630285.346    21630290.4264
 00  4  7  2 19 30.0000000  0  7 23 17 03 21 26 29 09
  21620380.416   -17705402.173 9 -13785642.56247  21620383.275    21620389.3934
  20033364.936   -25991584.804 9  -8004102.08348  20033368.126    20033374.2794
  24438952.665    -2473665.090 7  -1915282.45045  24438952.895    24438963.6444
  24605364.079    -1963616.021 7  -1518527.29845  24605363.332    24605371.0304
  21506426.840   -17770610.606 8   6296050.94047  21506435.703    21506441.0554
  24309112.944    -2762213.486 7  -2142940.51245  24309119.923    24309142.6814
  21616658.845   -14817759.843 9 -11503436.36247  21616662.477    21616667.7314
 00  4  7  2 20  0.0000000  0  7 23 17 03 21 26 29 09
  21612140.445   -17748695.973 9 -13819377.90047  21612144.472    21612150.8044
  20035009.690   -25982943.633 9  -7997368.68848  20035012.364    20035018.6144
  24434368.731    -2497730.575 7  -1934034.61645  24434374.089    24434382.3654
  24590509.349    -2041684.715 7  -1579360.04345  24590508.345    24590515.9844
  21521772.971   -17689981.907 9   6358878.43847  21521778.707    21521784.3264
  24291544.030    -2854568.607 7  -2214904.91345  24291543.598    24291566.4274
  21603122.018   -14888891.933 9 -11558863.92047  21603126.393    21603131.9934
 00  4  7  2 20 30.0000000  0  7 23 17 03 21 26 29 09
  21603924.685   -17791887.369 9 -13853033.55547  21603925.816    21603932.0354
  20036767.019   -25973704.417 9  -7990169.29848  20036770.705    20036776.8064
  24429886.176    -2521286.936 7  -1952390.03245  24429891.485    24429900.7714
  24575637.717    -2119815.714 7  -1640241.36045  24575640.075    24575647.2344
  21537165.485   -17609102.978 9   6421900.97047  21537169.710    21537174.4434
  24273992.189    -2946748.095 7  -2286732.42545  24274001.767    24274025.8154
  21589672.833   -14959562.064 8 -11613931.51147  21589677.700    21589683.7634
 00  4  7  2 21  0.0000000  0  7 23 17 03 21 26 29 09
  21595722.964   -17834966.762 9 -13886601.93747  21595727.360    21595734.4114
  20038639.828   -25963859.617 9  -7982498.05648  20038644.055    20038650.3174
  24425505.276    -2544328.959 8  -1970344.73745  24425507.424    24425515.9174
  24560756.249    -2198009.089 7  -1701171.28545  24560760.241    24560768.7944
  21552610.030   -17527963.054 8   6485126.85947  21552609.722    21552614.9294
  24256494.841    -3038735.604 7  -2358410.20045  24256495.231    24256520.2614
  21576316.895   -15029758.390 9 -11668629.97247  21576320.289    21576326.0864
 00  4  7  2 21 30.0000000  0  7 23 17 03 21 26 29 09
  21587548.276   -17877927.773 9 -13920078.15847  21587552.653    21587559.3234
  20040629.550   -25953409.911 9  -7974355.39848  20040632.868    20040638.7294
  24421217.000    -2566855.430 8  -1987897.82245  24421220.635    24421229.4814
  24545873.336    -2276249.981 7  -1762138.23945  24545870.833    24545878.9364
  21568097.198   -17446565.345 9   6548553.58247  21568099.566    21568104.5624
  24239021.713    -3130541.893 7  -2429946.78045  24239024.755    24239050.5914
  21563049.534   -15099478.095 9 -11722956.97147  21563053.014    21563058.7034
 00  4  7  2 22  0.0000000  0  7 23 17 03 21 26 29 09
  21579397.953   -17920765.160 9 -13953457.93947  21579400.965    21579407.1424
  20042733.712   -25942347.679 9  -7965735.44648  20042737.744    20042743.9574
  24417031.637    -2588860.795 7  -2005044.76245  24417032.780    24417041.3114
  24530979.670    -2354520.282 7  -1823128.15445  24530978.486    24530985.4934
  21583638.999   -17364914.387 9   6612177.71347  21583638.045    21583642.6734
  24221584.372    -3222170.584 7  -2501344.82245  24221587.951    24221612.7694
  21549871.484   -15168734.040 9 -11776922.65447  21549874.205    21549880.0494
 00  4  7  2 22 30.0000000  0  7 23 17 03 21 26 29 09
  21571271.854   -17963473.698 9 -13986737.34547  21571273.769    21571279.7964
  20044957.019   -25930669.543 9  -7956635.59848  20044960.151    20044966.2974
  24412942.330    -2610335.683 7  -2021778.23845  24412946.866    24412955.1834
  24516074.016    -2432797.433 7  -1884123.31245  24516082.135    24516088.7794
  21599213.874   -17283033.527 9   6675980.95247  21599219.693    21599224.1964
  24204180.315    -3313635.901 7  -2572615.60045  24204182.560    24204206.0354
  21536780.863   -15237516.716 9 -11830519.46747  21536784.359    21536790.3794
 00  4  7  2 23  0.0000000  0  7 23 17 03 21 26 29 09
  21563166.481   -18006053.691 9 -14019916.51447  21563170.750    21563176.8074
  20047298.041   -25918376.426 9  -7947056.52248  20047299.516    20047305.6254
  24408966.859    -2631270.995 8  -2038091.46245  24408962.925    24408970.3134
  24501188.783    -2511074.292 7  -1945118.24145  24501186.524    24501192.2744
  21614840.388   -17200937.291 9   6739951.99147  21614841.425    21614846.1524
  24186804.027    -3404950.113 7  -2643768.55545  24186805.668    24186828.5544
  21523784.393   -15305825.417 9 -11883747.03647  21523785.832    21523791.9934
 00  4  7  2 23 30.0000000  0  7 23 17 03 21 26 29 09
  21555090.352   -18048510.332 9 -14052999.62647  21555092.285    21555097.7774
  20049751.170   -25905470.442 9  -7936999.92548  20049755.475    20049761.4754
  24405075.450    -2651665.757 7  -2053983.41345  24405080.904    24405089.6704
  24486283.546    -2589348.071 7  -2006110.80945  24486290.471    24486297.7884
  21630499.760   -17118634.580 8   6804083.95547  21630502.667    21630507.8934
  24169453.920    -3496119.144 7  -2714808.29145  24169455.407    24169478.0044
  21510873.192   -15373668.057 9 -11936611.40747  21510876.404    21510881.8934
 00  4  7  2 24  0.0000000  0  7 23 17 03 21 26 29 09
  21547035.728   -18090831.769 9 -14085977.32147  21547038.474    21547043.9804
  20052324.755   -25891945.838 9  -7926461.26348  20052329.046    20052335.0134
  24401297.370    -2671526.867 7  -2069459.62745  24401302.877    24401309.2174
  24471394.008    -2667626.362 7  -2067106.83545  24471393.990    24471401.5434
  21646198.470   -17036124.440 8   6868377.54847  21646203.470    21646209.4284
  24152130.988    -3587128.587 7  -2785723.63245  24152135.077    24152158.5694
  21498051.953   -15441044.055 9 -11989112.18847  21498055.305    21498060.6954
 00  4  7  2 24 30.0000000  0  7 23 17 03 21 26 29 09
  21539006.639   -18133016.824 9 -14118848.75847  21539010.796    21539016.9964
  20055013.483   -25877816.657 9  -7915451.51948  20055017.477    20055023.8304
  24397616.512    -2690866.717 7  -2084529.50045  24397621.729    24397629.1614
  24456498.511    -2745919.326 7  -2128114.30945  24456496.727    24456502.7444
  21661941.118   -16953409.041 9   6932830.96147  21661945.011    21661949.6744
  24134847.961    -3677968.479 8  -2856506.80345  24134849.190    24134871.6644
  21485320.819   -15507953.856 9 -12041249.66747  21485322.156    21485327.8144
 00  4  7  2 25  0.0000000  0  7 23 17 03 21 26 29 09
  21531005.787   -18175073.642 9 -14151620.27647  21531007.268    21531013.8444
  20057816.834   -25863092.961 9  -7903978.52648  20057819.203    20057825.6254
  24394033.400    -2709691.521 7  -2099198.01045  24394039.039    24394046.6344
  24441589.575    -2824234.700 7  -2189139.26045  24441593.685    24441601.8624
  21677722.029   -16870479.335 8   6997451.47947  21677725.337    21677730.6274
  24117602.139    -3768624.934 7  -2927146.99845  24117596.986    24117618.3184
  21472674.091   -15574399.269 9 -12093025.25447  21472677.939    21472684.2264
 00  4  7  2 25 30.0000000  0  7 23 17 03 21 26 29 09
  21523027.448   -18216988.155 9 -14184280.86347  21523031.226    21523037.3604
  20060730.824   -25847775.220 9  -7892042.62248  20060734.126    20060740.1534
  24390554.862    -2728007.436 7  -2113470.14045  24390554.715    24390562.3144
  24426686.518    -2902576.594 7  -2250184.90445  24426684.639    24426690.5754
  21693547.763   -16787326.716 9   7062245.70947  21693549.377    21693554.3324
  24100374.711    -3859097.965 8  -2997644.22745  24100381.108    24100401.3624
  21460125.733   -15640363.161 9 -12144425.72047  21460125.884    21460131.9274
 00  4  7  2 26  0.0000000  0  7 23 17 03 21 26 29 09
  21515081.876   -18258751.141 9 -14216823.40347  21515084.065    21515089.8684
  20063756.607   -25831873.808 9  -7879651.92248  20063760.289    20063766.1124
  24387158.231    -2745819.138 7  -2127349.27945  24387164.361    24387172.2214
  24411769.668    -2980949.685 7  -2311254.88045  24411771.892    24411778.6074
  21709411.164   -16703951.344 8   7127213.54347  21709414.307    21709420.5394
  24083190.452    -3949388.946 7  -3067999.53545  24083196.819    24083217.8204
  21447667.010   -15705829.749 9 -12195438.58247  21447667.951    21447673.5834
 00  4  7  2 26 30.0000000  0  7 23 17 03 21 26 29 09
  21507160.299   -18300378.960 9 -14249260.66647  21507162.627    21507168.4834
  20066892.203   -25815396.657 9  -7866812.60748  20066895.749    20066901.9124
  24383866.593    -2763116.010 7  -2140827.22345  24383871.602    24383881.2664
  24396848.049    -3059354.074 8  -2372349.18645  24396852.013    24396858.3234
  21725320.620   -16620352.468 8   7192355.45647  21725322.423    21725329.3314
  24066041.453    -4039507.735 7  -3138220.60845  24066046.136    24066067.5814
  21435300.619   -15770785.061 9 -12246053.09447  21435307.180    21435312.4244
 00  4  7  2 27  0.0000000  0  7 23 17 03 21 26 29 09
  21499267.695   -18341872.685 9 -14281593.44747  21499266.866    21499272.4534
  20070139.263   -25798333.343 9  -7853516.53548  20070143.123    20070149.1274
  24380678.062    -2779884.391 7  -2153893.37145  24380682.517    24380690.5434
  24381921.559    -3137793.215 7  -2433470.59945  24381925.137    24381932.8414
  21741274.989   -16536520.282 8   7257679.19047  21741275.286    21741281.6164
  24048925.315    -4129463.597 7  -3208314.68045  24048927.433    24048948.8264
  21423045.173   -15835209.007 9 -12296253.55647  21423047.758    21423052.8214
 00  4  7  2 27 30.0000000  0  7 23 17 03 21 26 29 09
  21491394.570   -18383224.153 9 -14313815.39847  21491398.013    21491403.3154
  20073499.808   -25780680.786 9  -7839761.29948  20073502.334    20073508.0344
  24377589.205    -2796122.739 7  -2166546.51845  24377589.700    24377600.1464
  24366990.843    -3216267.262 7  -2494619.18645  24366992.104    24366999.1544
  21757268.883   -16452459.433 8   7323181.11047  21757271.814    21757277.6354
  24031827.937    -4219265.377 7  -3278288.62345  24031838.152    24031858.3984
  21410887.693   -15899098.159 9 -12346037.30347  21410890.353    21410895.9754
 00  4  7  2 28  0.0000000  0  7 23 17 03 21 26 29 09
  21483549.096   -18424453.431 9 -14345942.04847  21483552.356    21483557.6434
  20076970.034   -25762436.170 9  -7825544.71548  20076973.871    20076979.8244
  24374601.913    -2811825.933 7  -2178782.57445  24374602.447    24374611.5784
  24352050.432    -3294776.021 8  -2555794.88545  24352051.782    24352059.0814
  21773305.160   -16368182.157 8   7388851.76447  21773309.890    21773314.4234
  24014777.041    -4308905.366 7  -3348136.46945  24014778.187    24014800.2934
  21398826.884   -15962474.662 9 -12395421.57047  21398829.862    21398836.0414
 00  4  7  2 28 30.0000000  0  7 23 17 03 21 26 29 09
  21475723.072   -18465569.313 9 -14377980.35847  21475727.559    21475733.6864
  20080559.167   -25743581.227 9  -7810852.58748  20080562.054    20080567.8694
  24371706.521    -2826994.447 7  -2190602.20945  24371716.953    24371723.5094
  24337102.906    -3373321.513 8  -2616999.19245  24337106.108    24337112.8674
  21789385.292   -16283688.076 9   7454691.30747  21789388.993    21789393.8894
  23997746.639    -4398377.296 7  -3417853.29945  23997752.109    23997770.8744
  21386863.002   -16025352.964 9 -12444417.63347  21386864.642    21386870.3594
 00  4  7  2 29  0.0000000  0  7 23 17 03 21 26 29 09
  21467925.430   -18506559.068 9 -14409920.40247  21467928.086    21467933.6864
  20084265.156   -25724110.332 9  -7795680.45248  20084267.218    20084272.9824
  24368925.504    -2841636.428 7  -2202011.39645  24368931.430    24368938.2954
  24322147.916    -3451901.601 7  -2678230.41445  24322152.471    24322159.5744
  21805503.980   -16198982.532 9   7520695.60347  21805507.347    21805512.9094
  23980758.962    -4487678.355 8  -3487436.90745  23980756.971    23980777.2204
  21374989.742   -16087738.582 9 -12493029.78647  21374992.997    21374997.9594
 00  4  7  2 29 30.0000000  0  7 23 17 03 21 26 29 09
  21460149.900   -18547416.865 9 -14441757.68347  21460153.645    21460158.9614
  20088087.194   -25704017.203 9  -7780023.46548  20088090.565    20088096.8834
  24366234.768    -2855761.578 7  -2213017.83745  24366241.598    24366250.6564
  24307185.080    -3530514.569 7  -2739487.30045  24307192.405    24307200.1924
  21821658.871   -16114082.768 8   7586851.23747  21821662.771    21821668.8694
  23963793.617    -4576801.505 8  -3556881.82245  23963796.369    23963813.6704
  21363209.929   -16149645.501 9 -12541268.92947  21363212.515    21363217.8924
 00  4  7  2 30  0.0000000  0  7 23 17 03 21 26 29 09
  21452401.722   -18588142.830 9 -14473492.15947  21452403.516    21452408.6714
  20092031.597   -25683291.656 9  -7763873.73048  20092034.537    20092040.7724
  24363649.576    -2869376.669 7  -2223626.81645  24363649.530    24363659.5424
  24292224.087    -3609163.516 7  -2800772.19445  24292225.361    24292234.9354
  21837851.139   -16028992.007 8   7653155.73847  21837854.892    21837861.1654
  23946865.741    -4665744.776 8  -3626186.48245  23946869.921    23946887.9654
  21351521.530   -16211065.555 9 -12589128.72447  21351524.365    21351530.4284
 00  4  7  2 30 30.0000000  0  7 23 17 03 21 26 29 09
  21444677.698   -18628725.341 9 -14505114.96847  21444680.510    21444686.6394
  20096093.070   -25661938.481 9  -7747234.90148  20096097.998    20096103.9224
  24361152.110    -2882482.198 7  -2233838.75845  24361157.616    24361164.6984
  24277261.301    -3687835.027 8  -2862074.70345  24277256.530    24277264.7764
  21854082.521   -15943709.272 8   7719609.84047  21854083.624    21854089.6914
  23929974.493    -4754518.181 7  -3695358.76845  23929974.172    23929994.2394
  21339929.114   -16271971.314 9 -12636587.72747  21339934.505    21339940.0684
 00  4  7  2 31  0.0000000  0  7 23 17 03 21 26 29 09
  21436982.954   -18669162.889 9 -14536624.77047  21436985.794    21436991.7174
  20100273.267   -25639974.470 9  -7730120.12348  20100277.428    20100283.5984
  24358752.086    -2895073.370 7  -2243649.90545  24358759.039    24358769.1364
  24262287.687    -3766516.848 8  -2923385.24345  24262284.199    24262291.3614
  21870343.459   -15858239.591 8   7786209.62347  21870347.794    21870354.3374
  23913115.389    -4843114.776 8  -3764393.22745  23913113.578    23913132.1624
  21328441.927   -16332349.762 9 -12683635.85547  21328444.769    21328450.1104
 00  4  7  2 31 30.0000000  0  7 23 17 03 21 26 29 09
  21429312.965   -18709461.659 9 -14568026.40247  21429317.268    21429323.1204
  20104567.823   -25617407.666 9  -7712535.56948  20104571.719    20104577.8684
  24356464.138    -2907150.576 7  -2253060.53845  24356463.231    24356471.9274
  24247311.230    -3845205.092 8  -2984700.79145  24247309.073    24247317.3494
  21886643.802   -15772588.836 9   7852950.49047  21886647.570    21886652.9194
  23896276.311    -4931536.958 7  -3833291.82645  23896286.114    23896303.9384
  21317053.281   -16392200.285 9 -12730272.59647  21317055.465    21317061.0654
 00  4  7  2 32  0.0000000  0  7 23 17 03 21 26 29 09
  21421669.962   -18749634.236 9 -14599329.75147  21421672.269    21421678.5584
  20108975.329   -25594257.492 9  -7694496.49748  20108977.171    20108983.5854
  24354257.773    -2918710.995 7  -2262068.51045  24354261.856    24354270.7304
  24232328.876    -3923891.523 7  -3046014.88345  24232334.351    24232344.6314
  21902977.529   -15686756.777 8   7919832.52247  21902980.583    21902985.9064
  23879489.429    -5019785.257 8  -3902054.84845  23879492.216    23879509.2264
  21305763.997   -16451517.954 9 -12776494.14847  21305767.758    21305774.0254
 00  4  7  2 32 30.0000000  0  7 23 17 03 21 26 29 09
  21414047.719   -18789686.028 9 -14630538.99647  21414050.748    21414056.8494
  20113488.283   -25570532.854 9  -7676009.77848  20113491.981    20113498.1954
  24352161.324    -2929742.104 7  -2270664.08145  24352163.043    24352170.7934
  24217357.418    -4002576.797 7  -3107328.03945  24217359.894    24217371.5114
  21919339.120   -15600749.922 8   7986850.87047  21919346.868    21919351.9544
  23862729.482    -5107847.155 8  -3970672.70045  23862733.349    23862749.2114
  21294576.502   -16510315.981 9 -12822310.75047  21294578.920    21294584.9554
 00  4  7  2 33  0.0000000  0  7 23 17 03 21 26 29 09
  21406446.825   -18829618.615 9 -14661655.28547  21406451.818    21406458.0144
  20118115.493   -25546224.731 9  -7657068.37848  20118117.479    20118123.7384
  24350156.530    -2940244.726 7  -2278847.83445  24350164.336    24350173.4344
  24202388.790    -4081274.973 8  -3168651.32345  24202387.558    24202396.0684
  21935741.563   -15514573.528 8   8054001.23147  21935745.505    21935751.2274
  23846009.598    -5195709.120 8  -4039134.83745  23846012.205    23846028.4404
  21283485.060   -16568607.765 9 -12867732.89347  21283486.431    21283492.1224
 00  4  7  2 33 30.0000000  0  7 23 17 03 21 26 29 09
  21398875.054   -18869435.911 9 -14692681.68647  21398875.095    21398881.2684
  20122854.671   -25521316.139 9  -7637659.09948  20122857.207    20122863.5974
  24348262.662    -2950218.305 7  -2286619.43645  24348266.943    24348273.8194
  24187400.486    -4159999.002 8  -3229994.73145  24187406.080    24187414.2644
  21952169.727   -15428225.914 8   8121285.02647  21952176.989    21952183.0724
  23829321.306    -5283379.954 8  -4107448.09045  23829328.044    23829343.1044
  21272488.662   -16626391.761 9 -12912759.36147  21272490.267    21272495.9834
 00  4  7  2 34  0.0000000  0  7 23 17 03 21 26 29 09
  21391314.683   -18909144.118 9 -14723623.19847  21391318.744    21391324.9854
  20127708.849   -25495797.165 9  -7617774.15248  20127713.317    20127719.3504
  24346460.338    -2959661.903 7  -2293978.00145  24346467.992    24346478.1244
  24172419.575    -4238755.064 8  -3291363.13145  24172419.515    24172426.4604
  21968644.671   -15341695.266 8   8188711.42247  21968643.836    21968649.5734
  23812684.139    -5370835.431 8  -4175593.57545  23812684.048    23812699.9034
  21261589.844   -16683664.864 9 -12957387.74147  21261591.405    21261597.1914
 00  4  7  2 34 30.0000000  0  7 23 17 03 21 26 29 09
  21383783.165   -18948732.400 9 -14754471.15148  21383785.548    21383790.9414
  20132684.485   -25469653.087 9  -7597402.14448  20132688.797    20132694.4014
  24344771.165    -2968578.968 7  -2300926.31145  24344773.669    24344780.6014
  24157425.136    -4317549.618 8  -3352761.51945  24157426.270    24157432.3324
  21985144.498   -15254963.609 8   8256294.42847  21985148.344    21985154.2184
  23796084.422    -5458070.576 8  -4243567.47645  23796081.582    23796096.7064
  21250786.321   -16740418.979 9 -13001611.69647  21250791.745    21250797.3424
 00  4  7  2 35  0.0000000  0  7 23 17 03 21 26 29 09
  21376271.989   -18988192.135 9 -14785219.05747  21376276.349    21376282.4654
  20137778.013   -25442895.741 9  -7576552.27248  20137780.582    20137786.3884
  24343169.078    -2976983.120 7  -2307474.88445  24343172.335    24343178.9844
  24142425.227    -4396371.430 8  -3414181.11245  24142426.475    24142432.9124
  22001687.276   -15168023.847 8   8324039.61047  22001692.418    22001698.3444
  23779516.972    -5545104.179 8  -4311384.40045  23779519.353    23779533.6064
  21240092.018   -16796637.813 9 -13045418.58347  21240093.606    21240099.0524
 00  4  7  2 35 30.0000000  0  7 23 17 03 21 26 29 09
  21368789.877   -19027517.794 9 -14815862.38347  21368792.599    21368798.8454
  20142982.301   -25415532.990 9  -7555230.64048  20142987.018    20142993.3974
  24341670.609    -2984875.197 7  -2313624.51645  24341670.093    24341679.4604
  24127424.637    -4475214.471 8  -3475617.21445  24127424.039    24127429.8544
  22018270.303   -15080882.889 8   8391941.63747  22018274.364    22018280.4244
  23762987.779    -5631946.829 8  -4379052.62745  23762992.778    23763007.3474
  21229496.593   -16852311.532 9 -13088800.71447  21229499.370    21229504.5944
 00  4  7  2 36  0.0000000  0  7 23 17 03 21 26 29 09
  21361336.900   -19066696.420 9 -14846391.12747  21361337.718    21361343.3634
  20148304.814   -25387575.705 9  -7533445.78748  20148307.529    20148313.7364
  24340260.834    -2992259.376 7  -2319378.38145  24340265.934    24340273.5024
  24112412.920    -4554067.880 8  -3537061.41345  24112417.445    24112424.1334
  22034884.586   -14993550.227 8   8459993.05246  22034892.263    22034898.9464
  23746501.514    -5718599.459 8  -4446572.74845  23746502.668    23746516.4814
  21219007.640   -16907434.416 9 -13131753.57147  21219009.776    21219015.4464
 00  4  7  2 36 30.0000000  0  7 23 17 03 21 26 29 09
  21353910.430   -19105713.356 9 -14876793.91647  21353912.818    21353918.5194
  20153736.876   -25359026.521 9  -7511199.68848  20153740.412    20153746.3664
  24338945.341    -2999132.451 7  -2324733.95945  24338956.294    24338966.1964
  24097411.550    -4632925.764 8  -3598509.09545  24097409.853    24097417.5344
  22051545.606   -14906049.101 8   8528175.75846  22051543.491    22051549.9154
  23730040.937    -5805082.059 8  -4513960.53045  23730043.813    23730058.3404
  21208622.899   -16962002.137 9 -13174273.88647  21208625.758    21208631.7564
 00  4  7  2 37  0.0000000  0  7 23 17 03 21 26 29 09
  21346518.207   -19144560.117 9 -14907064.07847  21346520.475    21346526.6104
  20159281.847   -25329883.038 9  -7488490.48148  20159286.241    20159292.1344
  24337739.194    -3005487.862 7  -2329686.14645  24337749.948    24337756.9474
  24082399.184    -4711795.161 8  -3659965.81845  24082402.908    24082409.7474
  22068218.185   -14818405.814 8   8596469.29746  22068221.626    22068227.8334
  23713614.385    -5891391.376 8  -4581213.36645  23713620.335    23713632.2564
  21198342.491   -17016010.484 9 -13216358.28247  21198348.322    21198354.3304
 00  4  7  2 37 30.0000000  0  7 23 17 03 21 26 29 09
  21339156.805   -19183240.973 9 -14937205.04347  21339159.639    21339165.6034
  20164946.535   -25300116.115 9  -7465295.46448  20164950.665    20164956.4774
  24336636.016    -3011312.299 7  -2334224.61445  24336639.743    24336649.1444
  24067391.187    -4790687.069 8  -3721440.05645  24067390.800    24067398.1714
  22084923.502   -14730624.266 8   8664870.60947  22084926.855    22084932.5504
  23697228.685    -5977510.127 8  -4648317.76445  23697231.674    23697242.5894
  21188172.013   -17069470.326 9 -13258015.31347  21188175.311    21188180.8644
 00  4  7  2 38  0.0000000  0  7 23 17 03 21 26 29 09
  21331825.975   -19221760.815 9 -14967220.50847  21331829.831    21331835.6674
  20170732.097   -25269724.538 9  -7441613.73448  20170734.179    20170739.9844
  24335636.170    -3016607.324 7  -2338350.50545  24335631.691    24335640.3824
  24052368.067    -4869604.695 8  -3782934.35345  24052373.412    24052380.1174
  22101657.255   -14642695.854 8   8733386.24847  22101659.039    22101665.0344
  23680882.395    -6063424.697 8  -4715263.10745  23680881.951    23680892.9644
  21178098.914   -17122388.005 9 -13299249.87447  21178105.712    21178110.8734
 00  4  7  2 38 30.0000000  0  7 23 17 03 21 26 29 09
  21324528.196   -19260117.683 9 -14997108.89347  21324530.990    21324536.0744
  20176632.613   -25238714.514 9  -7417450.10548  20176635.199    20176641.0444
  24334724.029    -3021367.536 7  -2342059.69345  24334727.165    24334736.3484
  24037348.263    -4948558.989 8  -3844457.14645  24037349.427    24037354.9264
  22118413.222   -14554615.464 8   8802020.21347  22118419.774    22118425.9414
  23664564.320    -6149136.032 8  -4782050.16745  23664569.519    23664582.2854
  21168135.963   -17174769.069 9 -13340066.28747  21168137.881    21168143.1384
 00  4  7  2 39  0.0000000  0  7 23 17 03 21 26 29 09
  21317255.819   -19298320.929 9 -15026877.63647  21317260.456    21317266.2304
  20182650.763   -25207090.725 9  -7392808.20148  20182652.782    20182658.4654
  24333918.265    -3025593.114 7  -2345352.31145  24333921.266    24333930.1564
  24022313.779    -5027548.395 8  -3906007.30545  24022318.876    24022324.5624
  22135205.481   -14466369.933 8   8870783.03447  22135212.540    22135218.6064
  23648290.102    -6234660.884 8  -4848691.97645  23648294.258    23648307.6244
  21158272.126   -17226611.492 9 -13380462.97547  21158272.349    21158278.1504
 00  4  7  2 39 30.0000000  0  7 23 17 03 21 26 29 09
  21310011.474   -19336392.602 9 -15056543.88647  21310015.579    21310021.7244
  20188780.618   -25174865.733 9  -7367697.82948  20188784.841    20188790.9664
  24333214.600    -3029289.453 7  -2348232.56545  24333218.420    24333227.3844
  24007279.940    -5106552.005 8  -3967568.62045  24007283.923    24007290.6284
  22152035.046   -14377952.599 8   8939679.62346  22152037.537    22152043.7264
  23632052.530    -6320009.257 8  -4915196.29445  23632052.982    23632064.4824
  21148505.577   -17277919.510 9 -13420443.26047  21148508.764    21148514.4714
 00  4  7  2 40  0.0000000  0  7 23 17 03 21 26 29 09
  21302794.110   -19374329.163 9 -15086104.83847  21302796.803    21302802.6794
  20195023.128   -25142067.998 9  -7342141.18248  20195026.325    20195032.1194
  24332607.750    -3032469.723 7  -2350710.68345  24332613.360    24332621.4614
  23992242.502    -5185569.407 8  -4029140.67745  23992247.082    23992254.3794
  22168890.059   -14289367.711 8   9008706.86246  22168894.515    22168901.0624
  23615831.313    -6405191.643 8  -4981571.34045  23615841.733    23615854.8634
  21138846.768   -17328676.155 9 -13459993.89347  21138850.038    21138855.8534
 00  4  7  2 40 30.0000000  0  7 23 17 03 21 26 29 09
  21295600.469   -19412130.411 9 -15115560.40247  21295603.393    21295609.1184
  20201372.886   -25108698.986 9  -7316139.36448  20201376.141    20201381.9274
  24332113.311    -3035131.055 7  -2352784.39645  24332109.134    24332114.9864
  23977208.159    -5264599.680 8  -4090722.73745  23977208.777    23977214.9564
  22185777.588   -14200623.215 8   9077858.42646  22185782.253    22185788.3244
  23599657.730    -6490216.475 8  -5047823.65845  23599661.254    23599673.7004
  21129296.454   -17378861.834 9 -13499099.59147  21129300.333    21129306.0184
 00  4  7  2 41  0.0000000  0  7 23 17 03 21 26 29 09
  21288431.166   -19449809.761 9 -15144921.00247  21288433.230    21288438.9804
  20207834.565   -25074743.927 9  -7289680.89148  20207837.789    20207843.4774
  24331697.985    -3037278.670 7  -2354457.79545  24331698.873    24331706.8144
  23962167.437    -5343636.752 8  -4152310.03445  23962167.902    23962175.6944
  22202687.812   -14111729.727 8   9147126.18846  22202697.784    22202704.1284
  23583519.453    -6575066.390 8  -5113939.61745  23583515.576    23583525.6314
  21119860.427   -17428454.683 9 -13537743.35847  21119863.043    21119868.6664
 00  4  7  2 41 30.0000000  0  7 23 17 03 21 26 29 09
  21281287.823   -19487356.313 9 -15174177.95547  21281288.366    21281294.3354
  20214410.207   -25040194.005 9  -7262758.91648  20214412.325    20214418.0844
  24331379.714    -3038915.432 7  -2355733.15945  24331387.788    24331393.8244
  23947121.456    -5422690.730 8  -4213910.50046  23947125.096    23947132.0574
  22219639.595   -14022697.075 8   9216502.25447  22219640.143    22219647.2334
  23567411.518    -6659699.885 8  -5179886.99345  23567409.561    23567420.4274
  21110536.269   -17477447.305 9 -13575919.45147  21110540.088    21110545.7384
 00  4  7  2 42  0.0000000  0  7 23 17 03 21 26 29 09
  21274167.384   -19524754.808 9 -15203319.69747  21274171.402    21274177.5954
  20221098.614   -25005039.437 9  -7235365.72248  20221102.016    20221107.7224
  24331171.807    -3040046.032 7  -2356614.13545  24331172.891    24331179.2164
  23932073.735    -5501777.168 8  -4275536.30945  23932075.482    23932081.7474
  22236608.722   -13933525.474 8   9285986.58046  22236608.836    22236615.6074
  23551337.313    -6744103.107 8  -5245654.99245  23551347.744    23551359.1084
  21101329.073   -17525825.059 9 -13613616.41947  21101334.400    21101339.7264
 00  4  7  2 42 30.0000000  0  7 23 17 03 21 26 29 09
  21267078.971   -19562008.361 9 -15232348.45847  21267082.253    21267088.2574
  20227906.526   -24969260.008 9  -7207485.65448  20227910.561    20227916.6754
  24331054.817    -3040663.109 7  -2357094.93145  24331054.804    24331062.7764
  23917020.396    -5580881.260 8  -4337175.81845  23917022.077    23917028.6174
  22253597.195   -13844217.068 8   9355577.51746  22253604.016    22253610.7614
  23535330.479    -6828267.571 8  -5311236.97945  23535331.019    23535340.5604
  21092242.194   -17573596.931 9 -13650841.23347  21092243.415    21092249.0104
 00  4  7  2 43  0.0000000  0  7 23 17 03 21 26 29 09
  21260020.040   -19599109.153 9 -15261258.17947  21260022.100    21260028.2774
  20234836.949   -24932852.924 9  -7179116.47948  20234838.536    20234844.6984
  24331021.876    -3040771.261 7  -2357179.14945  24331032.005    24331041.7434
  23901965.749    -5659995.317 8  -4398823.08845  23901967.392    23901973.8994
  22270623.651   -13754774.409 8   9425272.96646  22270624.321    22270631.3624
  23519357.389    -6912187.245 8  -5376628.24545  23519360.850    23519371.2684
  21083262.397   -17620785.963 9 -13687611.90947  21083263.431    21083268.7904
 00  4  7  2 43 30.0000000  0  7 23 17 03 21 26 29 09
  21252987.292   -19636052.626 9 -15290045.30147  21252991.774    21252998.5134
  20241881.492   -24895825.709 9  -7150264.09248  20241884.658    20241890.6484
  24331109.315    -3040374.465 7  -2356869.83745  24331109.985    24331115.4804
  23886909.142    -5739113.573 8  -4460473.58345  23886911.326    23886917.8684
  22287665.926   -13665195.493 8   9495074.66446  22287671.197    22287677.5144
  23503432.249    -6995873.248 8  -5441837.46945  23503435.591    23503445.7264
  21074384.326   -17667420.984 9 -13723950.86047  21074389.347    21074394.5864
 00  4  7  2 44  0.0000000  0  7 23 17 03 21 26 29 09
  21245988.312   -19672838.304 9 -15318709.42147  21245992.091    21245998.0284
  20249045.058   -24858185.666 9  -7120934.24348  20249047.649    20249053.3074
  24331275.806    -3039473.957 7  -2356168.07545  24331280.332    24331288.4874
  23871853.593    -5818226.139 8  -4522119.69145  23871855.779    23871863.3974
  22304740.898   -13575485.995 8   9564978.16146  22304742.688    22304747.8454
  23487544.978    -7079362.146 8  -5506893.09445  23487546.536    23487557.2774
  21065612.855   -17713516.628 9 -13759869.53247  21065617.416    21065622.9554
 00  4  7  2 44 30.0000000  0  7 23 17 03 21 26 29 09
  21239019.623   -19709466.458 9 -15347250.79747  21239022.103    21239027.7794
  20256322.363   -24819937.278 9  -7091130.34148  20256325.921    20256331.9624
  24331547.674    -3038064.986 7  -2355070.06445  24331549.408    24331554.1294
  23856800.636    -5897337.135 8  -4583764.60745  23856801.098    23856808.3764
  22321837.028   -13485653.444 8   9634977.45146  22321836.884    22321842.2134
  23471693.129    -7162674.061 8  -5571810.94345  23471692.898    23471703.2074
  21056941.191   -17759098.492 9 -13795387.85947  21056943.543    21056949.4734
 00  4  7  2 45  0.0000000  0  7 23 17 03 21 26 29 09
  21232077.527   -19745941.937 9 -15375673.25947  21232080.780    21232087.0504
  20263714.271   -24781092.271 9  -7060861.52548  20263717.914    20263723.9714
  24331913.131    -3036149.391 7  -2353577.30945  24331913.963    24331918.5454
  23841744.119    -5976460.297 8  -4645418.95145  23841744.174    23841751.9114
  22338947.267   -13395705.095 8   9705067.05146  22338953.785    22338958.3804
  23455865.276    -7245817.843 8  -5636597.66645  23455871.482    23455880.2314
  21048366.251   -17804153.177 9 -13830495.39947  21048370.270    21048375.6254
 00  4  7  2 45 30.0000000  0  7 23 17 03 21 26 29 09
  21225166.210   -19782267.155 9 -15403978.64947  21225168.783    21225174.5104
  20271219.986   -24741651.580 9  -7030128.49248  20271222.954    20271229.3704
  24332370.501    -3033733.198 7  -2351694.50345  24332373.429    24332380.8404
  23826679.591    -6055608.872 8  -4707093.14445  23826682.707    23826690.1534
  22356090.191   -13305633.722 8   9775252.52146  22356093.183    22356098.9714
  23440072.070    -7328801.168 8  -5701259.38845  23440079.135    23440089.0294
  21039900.273   -17848654.951 9 -13865172.11247  21039901.785    21039907.1224
 00  4  7  2 46  0.0000000  0  7 23 17 03 21 26 29 09
  21218281.766   -19818442.337 9 -15432167.25848  21218285.063    21218290.9654
  20278838.972   -24701619.218 9  -6998934.42348  20278840.715    20278847.1604
  24332923.746    -3030814.879 7  -2349420.41445  24332928.242    24332934.3514
  23811618.172    -6134786.643 8  -4768790.09545  23811616.629    23811621.6694
  22373254.743   -13215429.181 8   9845541.76246  22373258.120    22373264.4124
  23424315.514    -7411622.251 8  -5765794.71246  23424318.629    23424328.9424
  21031539.800   -17892576.146 9 -13899396.42847  21031544.194    21031549.0754
 00  4  7  2 46 30.0000000  0  7 23 17 03 21 26 29 09
  21211422.072   -19854481.753 9 -15460249.95148  21211426.847    21211432.5604
  20286567.818   -24661002.426 9  -6967285.04448  20286570.269    20286576.3894
  24333577.504    -3027394.500 7  -2346755.13345  24333579.879    24333583.1744
  23796542.227    -6213996.568 8  -4830512.16745  23796543.055    23796549.6244
  22390447.973   -13125080.443 8   9915943.26946  22390451.191    22390457.2774
  23408591.717    -7494251.235 8  -5830180.32445  23408594.658    23408603.5374
  21023299.138   -17935889.483 9 -13933147.08547  21023301.723    21023307.2644
 00  4  7  2 47  0.0000000  0  7 23 17 03 21 26 29 09
  21204593.611   -19890384.061 9 -15488225.70548  21204594.912    21204600.2884
  20294405.434   -24619804.554 9  -6935182.88348  20294410.079    20294415.8534
  24334324.321    -3023468.831 7  -2343696.14545  24334326.621    24334334.8954
  23781460.064    -6293218.921 8  -4892243.83645  23781467.361    23781475.1734
  22407666.293   -13034582.947 8   9986460.85146  22407672.236    22407678.8714
  23392912.297    -7576658.984 8  -5894393.55546  23392912.821    23392921.3144
  21015175.126   -17978566.632 9 -13966402.02947  21015180.831    21015185.8034
 00  4  7  2 47 30.0000000  0  7 23 17 03 21 26 29 09
  21197788.621   -19926134.598 9 -15516083.29448  21197792.144    21197797.5294
  20302357.980   -24578018.337 9  -6902622.21948  20302361.487    20302367.5804
  24335164.378    -3019032.653 7  -2340239.35545  24335171.451    24335177.9774
  23766386.208    -6372445.211 8  -4953978.63645  23766390.639    23766398.7984
  22424920.934   -12943929.576 8  10057099.87446  22424923.303    22424929.3234
  23377267.990    -7658835.843 8  -5958426.89545  23377274.323    23377282.8684
  21007176.435   -18020621.620 9 -13999172.14147  21007177.528    21007182.8134
 00  4  7  2 48  0.0000000  0  7 23 17 03 21 26 29 09
  21191015.894   -19961730.704 9 -15543820.54748  21191018.375    21191024.5254
  20310422.685   -24535645.668 9  -6869604.56948  20310424.860    20310430.5504
  24336118.457    -3014078.990 7  -2336379.33245  24336114.275    24336118.3684
  23751311.487    -6451664.401 8  -5015707.88445  23751316.967    23751323.7344
  22442195.692   -12853144.891 8  10127841.12846  22442198.992    22442204.8504
  23361679.216    -7740781.312 8  -6022280.01246  23361680.484    23361689.9804
  20999287.208   -18062069.904 9 -14031469.50447  20999290.350    20999295.3924
 00  4  7  2 48 30.0000000  0  7 23 17 03 21 26 29 09
  21184273.639   -19997159.308 9 -15571427.22548  21184276.351    21184282.5774
  20318596.725   -24492686.448 9  -6836129.83748  20318599.885    20318605.4394
  24337145.177    -3008606.379 7  -2332114.85145  24337154.240    24337160.5564
  23736237.729    -6530873.348 8  -5077429.10146  23736244.294    23736250.5304
  22459484.355   -12762255.967 8  10198663.69946  22459494.198    22459499.5854
  23346129.300    -7822493.666 8  -6085951.48646  23346131.716    23346140.3544
  20991512.856   -18102927.423 9 -14063306.52547  20991515.409    20991520.5484
 00  4  7  2 49  0.0000000  0  7 23 17 03 21 26 29 09
  21177566.598   -20032405.602 9 -15598891.91548  21177569.382    21177575.2204
  20326882.239   -24449133.400 9  -6802192.38248  20326887.286    20326893.4634
  24338297.824    -3002619.467 7  -2327449.70045  24338295.699    24338297.6014
  23721172.406    -6610063.291 8  -5139135.60746  23721173.570    23721181.5834
  22476805.010   -12671271.789 8  10269560.44046  22476808.668    22476814.2724
  23330617.826    -7903986.929 8  -6149452.26146  23330623.566    23330631.6394
  20983847.422   -18143214.707 9 -14094699.21847  20983848.987    20983853.8744
 00  4  7  2 49 30.0000000  0  7 23 17 03 21 26 29 09
  21170894.382   -20067466.876 9 -15626212.36548  21170897.926    21170902.9514
  20335285.958   -24404984.878 9  -6767790.93848  20335288.767    20335294.8934
  24339520.657    -2996128.383 7  -2322391.66245  24339529.533    24339535.3804
  23706103.227    -6689250.162 8  -5200839.64346  23706105.380    23706111.9904
  22494134.667   -12580194.399 8  10340529.80146  22494139.911    22494145.5334
  23315151.840    -7985277.338 8  -6212795.01646  23315152.956    23315161.8864
  20976285.078   -18182939.856 9 -14125653.87847  20976289.515    20976294.4114
 00  4  7  2 50  0.0000000  0  7 23 17 03 21 26 29 09
  21164255.822   -20102357.338 9 -15653399.67848  21164257.888    21164263.4904
  20343797.199   -24360262.615 9  -6732942.45248  20343799.207    20343805.4214
  24340860.279    -2989135.260 7  -2316942.45845  24340858.740    24340867.8664
  23691033.250    -6768437.615 8  -5262544.18646  23691037.578    23691043.1774
  22511484.936   -12489028.405 8  10411568.25046  22511488.790    22511494.5354
  23299724.770    -8066358.178 8  -6275974.45846  23299723.945    23299732.6604
  20968835.990   -18222088.961 9 -14156159.66647  20968839.533    20968844.5684
 00  4  7  2 50 30.0000000  0  7 23 17 03 21 26 29 09
  21157644.070   -20137084.769 9 -15680459.96948  21157649.056    21157654.9774
  20352417.062   -24314964.964 9  -6697645.58648  20352418.979    20352424.8754
  24342278.897    -2981635.445 7  -2311098.36844  24342286.404    24342293.3174
  23675967.652    -6847625.378 8  -5324248.93846  23675969.085    23675974.8234
  22528856.348   -12397742.113 8  10482700.44846  22528859.431    22528865.2614
  23284326.515    -8147215.478 8  -6338979.71446  23284336.700    23284345.9674
  20961498.651   -18260656.611 9 -14186212.38547  20961500.520    20961505.8134
 00  4  7  2 51  0.0000000  0  7 23 17 03 21 26 29 09
  21151069.478   -20171657.396 9 -15707399.57948  21151070.276    21151076.2544
  20361147.016   -24269081.874 9  -6661892.52648  20361150.194    20361156.2364
  24343808.950    -2973626.499 7  -2304857.61245  24343811.300    24343819.0684
  23660895.703    -6926824.250 8  -5385962.35746  23660897.321    23660903.9744
  22546254.812   -12306312.966 8  10553943.88046  22546257.389    22546264.3224
  23268989.397    -8227851.545 8  -6401812.61346  23268992.177    23269000.5444
  20954270.308   -18298624.503 9 -14215797.73947  20954275.325    20954280.8474
 00  4  7  2 51 30.0000000  0  7 23 17 03 21 26 29 09
  21144515.403   -20206079.995 9 -15734222.36448  21144519.583    21144525.9084
  20369989.266   -24222617.468 9  -6625686.48048  20369992.060    20369998.3704
  24345427.947    -2965112.242 7  -2298223.07745  24345432.924    24345437.8224
  23645818.234    -7006050.997 8  -5447697.51645  23645820.873    23645826.0764
  22563677.274   -12214752.976 8  10625289.27246  22563681.069    22563686.5084
  23253689.199    -8308264.887 8  -6464471.96146  23253689.909    23253697.3974
  20947162.122   -18335983.034 9 -14244908.26447  20947166.168    20947171.7684
 00  4  7  2 52  0.0000000  0  7 23 17 03 21 26 29 09
  21137995.461   -20240362.560 9 -15760936.08148  21137995.788    21138002.0764
  20378943.725   -24175565.912 9  -6589022.90248  20378945.924    20378951.9074
  24347141.584    -2956100.484 7  -2291200.85745  24347146.588    24347151.4364
  23630739.630    -7085292.429 8  -5509444.11146  23630741.094    23630747.8994
  22581128.514   -12123077.072 8  10696725.11546  22581126.707    22581133.1224
  23238429.831    -8388458.550 8  -6526960.11646  23238428.208    23238437.0614
  20940169.624   -18372732.992 9 -14273544.57347  20940173.115    20940178.3944
 00  4  7  2 52 30.0000000  0  7 23 17 03 21 26 29 09
  21131500.333   -20274491.872 9 -15787530.41948  21131501.064    21131507.8704
  20388013.588   -24127897.769 9  -6551878.92048  20388016.647    20388022.8114
  24348948.769    -2946603.497 7  -2283800.52545  24348954.505    24348959.7414
  23615660.475    -7164543.753 8  -5571198.34846  23615661.174    23615667.4054
  22598586.719   -12031292.800 8  10768245.27346  22598592.829    22598598.6744
  23223201.883    -8468440.822 8  -6589283.52246  23223207.303    23223216.1824
  20933293.846   -18408869.585 9 -14301702.95447  20933296.264    20933301.3854
 00  4  7  2 53  0.0000000  0  7 23 17 03 21 26 29 09
  21125034.018   -20308463.080 9 -15814001.53548  21125036.839    21125043.4904
  20397201.962   -24079618.733 9  -6514258.92448  20397203.788    20397209.7464
  24350847.890    -2936639.251 7  -2276036.04945  24350848.888    24350855.4574
  23600574.936    -7243808.305 8  -5632962.89546  23600578.196    23600583.9654
  22616074.622   -11939437.474 8  10839820.79546  22616072.509    22616078.4384
  23208020.272    -8548222.633 8  -6651450.72546  23208026.356    23208033.9364
  20926534.522   -18444387.780 9 -14329379.46547  20926537.389    20926542.5804
 00  4  7  2 53 30.0000000  0  7 23 17 03 21 26 29 09
  21118597.032   -20342277.926 9 -15840350.74948  21118602.171    21118608.6684
  20406500.939   -24030746.723 9  -6476176.87448  20406503.854    20406509.9054
  24352828.626    -2926218.890 7  -2267916.25045  24352832.124    24352838.0504
  23585495.124    -7323066.798 8  -5694722.73646  23585495.136    23585501.0664
  22633561.663   -11847522.518 8  10911442.81246  22633563.858    22633569.6764
  23192879.073    -8627802.846 8  -6713460.84346  23192882.289    23192889.4184
  20919892.195   -18479296.753 9 -14356581.26947  20919894.109    20919899.5584
 00  4  7  2 54  0.0000000  0  7 23 17 03 21 26 29 09
  21112196.021   -20375934.633 9 -15866576.76948  21112197.712    21112203.3784
  20415913.790   -23981282.955 9  -6437633.68848  20415916.546    20415922.7864
  24354889.273    -2915323.030 7  -2259425.91745  24354902.992    24354914.1554
  23570415.405    -7402305.952 8  -5756467.48246  23570415.750    23570422.6094
  22651064.455   -11755526.163 8  10983128.26846  22651069.242    22651075.5804
  23177772.922    -8707182.198 8  -6775314.43446  23177775.601    23177784.4194
  20913364.820   -18513586.159 9 -14383300.28247  20913369.146    20913374.3734
 00  4  7  2 54 30.0000000  0  7 23 17 03 21 26 29 09
  21105823.183   -20409420.495 9 -15892669.60848  21105825.424    21105831.6164
  20425435.244   -23931241.421 9  -6398640.28748  20425439.094    20425445.3994
  24357069.652    -2903931.259 7  -2250549.25245  24357072.895    24357081.7014
  23555336.412    -7481537.582 8  -5818206.42746  23555338.354    23555345.8094
  22668591.281   -11663431.676 8  11054890.24046  22668594.429    22668601.0014
  23162706.857    -8786357.954 8  -6837009.41846  23162708.798    23162716.9744
  20906960.186   -18547250.227 9 -14409532.01047  20906963.166    20906969.0434
 00  4  7  2 55  0.0000000  0  7 23 17 03 21 26 29 09
  21099482.975   -20442739.177 9 -15918632.22248  21099485.294    21099491.6084
  20435063.157   -23880647.160 9  -6359216.18148  20435066.751    20435073.0304
  24359336.855    -2892032.862 7  -2241277.67545  24359339.360    24359342.6324
  23540262.899    -7560765.929 8  -5879942.83546  23540261.364    23540269.1844
  22686141.691   -11571222.841 8  11126741.31546  22686140.738    22686147.2864
  23147674.113    -8865330.215 8  -6898545.86046  23147680.334    23147689.2214
  20900671.473   -18580300.953 9 -14435285.80947  20900673.852    20900679.5584
 00  4  7  2 55 30.0000000  0  7 23 17 03 21 26 29 09
  21093176.360   -20475881.956 9 -15944457.73948  21093178.157    21093184.4714
  20444797.941   -23829497.072 9  -6319358.98548  20444800.111    20444806.3354
  24361695.935    -2879614.661 7  -2231601.06045  24361699.938    24361708.7004
  23525181.002    -7639988.982 8  -5941675.24646  23525186.279    23525193.4374
  22703707.650   -11478876.955 8  11198699.07946  22703713.182    22703720.4684
  23132688.385    -8944092.896 8  -6959918.99646  23132691.894    23132700.0004
  20894499.536   -18612741.698 9 -14460564.32147  20894500.846    20894505.9784
 00  4  7  2 56  0.0000000  0  7 23 17 03 21 26 29 09
  21086902.991   -20508835.005 9 -15970135.41248  21086907.421    21086913.7624
  20454639.329   -23777777.848 9  -6279058.29848  20454641.854    20454648.3314
  24364156.160    -2866666.952 7  -2221511.87545  24364163.881    24364173.6654
  23510103.892    -7719221.366 8  -6003414.86946  23510108.135    23510115.7754
  22721306.549   -11386399.603 8  11270759.31146  22721310.899    22721317.2094
  23117739.907    -9022643.120 8  -7021126.54646  23117744.505    23117751.9494
  20888440.991   -18644571.587 9 -14485366.83647  20888442.979    20888448.7664
 00  4  7  2 56 30.0000000  0  7 23 17 03 21 26 29 09
  21080671.030   -20541593.069 9 -15995661.15748  21080673.604    21080679.8274
  20464588.829   -23725488.093 9  -6238313.05148  20464592.523    20464598.9784
  24366719.823    -2853219.089 7  -2211032.96745  24366723.304    24366730.0194
  23495024.977    -7798462.185 8  -6065160.97046  23495028.749    23495037.4534
  22738930.145   -11293810.527 8  11342906.67746  22738930.274    22738937.1124
  23102836.150    -9100970.796 8  -7082160.70846  23102838.691    23102846.0494
  20882495.714   -18675807.476 9 -14509706.49247  20882499.662    20882504.9394
 00  4  7  2 57  0.0000000  0  7 23 17 03 21 26 29 09
  21074472.657   -20574159.885 9 -16021037.82048  21074475.957    21074482.4874
  20474647.700   -23672614.973 9  -6197113.23048  20474653.760    20474660.2044
  24369367.412    -2839288.368 7  -2200177.78545  24369372.065    24369383.3664
  23479945.593    -7877703.224 8  -6126907.30546  23479950.153    23479957.9194
  22756564.066   -11201123.811 8  11415130.01046  22756568.144    22756574.8434
  23087974.548    -9179064.378 8  -7143012.45246  23087978.139    23087985.6374
  20876665.201   -18706455.521 9 -14533588.06947  20876667.262    20876673.2734
 00  4  7  2 57 30.0000000  0  6 23 17 21 26 29 09
  21068314.041   -20606536.048 9 -16046266.02348  21068315.024    21068321.5174
  20484825.857   -23619147.068 9  -6155449.95648  20484828.510    20484834.8464
  23464864.127    -7956936.610 8  -6188647.53946  23464872.357    23464881.2774
  22774213.564   -11108375.413 8  11487401.43546  22774217.699    22774224.4614
  23073153.006    -9256931.232 8  -7203687.54746  23073158.966    23073167.3274
  20870947.416   -18736503.035 9 -14557001.71047  20870949.776    20870955.0924
 00  4  7  2 58  0.0000000  0  6 23 17 21 26 29 09
  21062184.984   -20638736.326 9 -16071357.14748  21062187.900    21062193.8164
  20495112.645   -23565089.326 9  -6113327.03248  20495115.337    20495121.5284
  23449797.604    -8036161.645 8  -6250381.26246  23449797.018    23449805.2484
  22791870.443   -11015578.947 8  11559710.31346  22791876.732    22791882.2714
  23058380.614    -9334576.608 8  -7264190.08246  23058383.400    23058391.1314
  20865343.567   -18765950.113 9 -14579947.47147  20865346.737    20865351.3654
 00  4  7  2 58 30.0000000  0  6 23 17 21 26 29 09
  21056087.696   -20670779.576 9 -16096325.88948  21056089.998    21056095.9544
  20505512.022   -23510445.245 9  -6070747.26348  20505514.042    20505519.8394
  23434722.151    -8115368.143 8  -6312100.59546  23434724.213    23434731.7164
  22809540.572   -10922735.026 8  11632056.20846  22809544.337    22809550.5814
  23043650.327    -9412002.255 8  -7324521.41446  23043650.407    23043656.9444
  20859855.093   -18794789.451 9 -14602419.66847  20859858.073    20859863.5664
 00  4  7  2 59  0.0000000  0  6 23 17 21 26 29 09
  21050018.957   -20702674.060 9 -16121178.73748  21050020.742    21050026.7324
  20516020.248   -23455221.122 9  -6027715.45848  20516022.778    20516029.1184
  23419648.703    -8194557.559 8  -6373806.57346  23419655.237    23419661.7874
  22827218.483   -10829844.268 8  11704438.63246  22827221.325    22827227.8944
  23028949.939    -9489223.419 8  -7384693.45646  23028954.929    23028961.9714
  20854487.979   -18823005.083 9 -14624405.88847  20854488.479    20854493.8524
 00  4  7  2 59 30.0000000  0  7 23 17 03 21 26 29 09
  21043975.443   -20734420.458 9 -16145916.17048  21043979.666    21043985.3574
  20526635.511   -23399429.580 9  -5984241.54848  20526639.409    20526645.8904
  24383949.155       13993.60017
  23404584.259    -8273738.839 8  -6435506.15446  23404587.256    23404594.2724
  22844906.631   -10736898.295 8  11776863.95046  22844908.243    22844914.1004
  23014294.766    -9566245.163 8  -7444710.04146  23014299.683    23014304.5254
  20849238.974   -18850589.134 9 -14645899.94347  20849240.017    20849244.9324
 00  4  7  3  0  0.0000000  0  7 23 17 03 21 26 29 09
  21037965.086   -20766014.405 9 -16170534.82548  21037967.527    21037973.7374
  20537361.797   -23343078.187 9  -5940331.40148  20537362.992    20537369.2714
  24387154.668       30749.164 7     16596.84454                  24387162.7054
  23389513.817    -8352916.773 8  -6497203.28746  23389520.158    23389528.0614
  22862605.219   -10643865.049 8  11849357.38646  22862611.840    22862617.0934
  22999680.715    -9643050.325 8  -7504557.92246  22999683.623    22999688.3444
  20844107.020   -18877542.263 9 -14666902.37947  20844111.368    20844116.2004
 00  4  7  3  0 30.0000000  0  7 23 17 03 21 26 29 09
  21031984.482   -20797441.257 9 -16195023.31248  21031987.313    21031993.2384
  20548188.194   -23286171.711 9  -5895988.68648  20548191.863    20548198.1544
  24390430.808       47986.791 7     30028.78244  24390440.062    24390448.2504
  23374449.234    -8432091.317 8  -6558897.72546  23374454.013    23374461.5214
  22880325.319   -10550745.170 8  11921918.27146  22880331.732    22880338.2224
  22985106.346    -9719633.499 8  -7564232.80446  22985109.507    22985114.9374
  20839099.003   -18903853.677 9 -14687404.76647  20839103.828    20839109.5384
 00  4  7  3  1  0.0000000  0  7 23 17 03 21 26 29 09
  21026039.898   -20828682.368 9 -16219367.04448  21026042.570    21026047.9944
  20559121.329   -23228721.032 9  -5851221.96948  20559124.222    20559130.4534
  24393815.484       65720.993 7     43847.66244  24393813.759    24393821.9464
  23359381.701    -8511275.893 8  -6620600.05246  23359385.959    23359392.3104
  22898067.688   -10457533.665 8  11994550.60346  22898068.411    22898075.5794
  22970575.725    -9795991.414 8  -7623732.19046  22970578.629    22970584.2444
  20834212.600   -18929530.105 9 -14707412.36747  20834217.404    20834223.3914
 00  4  7  3  1 30.0000000  0  7 23 17 03 21 26 29 09
  21020131.448   -20859726.915 9 -16243557.58748  21020134.943    21020140.7584
  20570156.539   -23170724.284 9  -5806029.69748  20570160.656    20570166.7684
  24397275.616       83959.138 7     58059.25544  24397284.836    24397292.1094
  23344315.557    -8590469.215 8  -6682309.14446  23344316.511    23344322.9474
  22915820.205   -10364231.982 8  12067253.15846  22915823.390    22915829.5174
  22956088.302    -9872119.534 8  -7683052.48846  22956092.635    22956097.4744
  20829449.670   -18954567.735 9 -14726922.19747  20829453.053    20829459.1624
 00  4  7  3  2  0.0000000  0  7 23 17 03 21 26 29 09
  21014262.974   -20890572.025 9 -16267592.75648  21014265.270    21014271.2804
  20581297.034   -23112177.724 9  -5760409.00348  20581301.395    20581308.2254
  24400848.393      102700.019 7     72662.58044  24400853.337    24400858.0964
  23329245.112    -8669650.221 8  -6744008.59446  23329248.519    23329254.9454
  22933589.463   -10270855.424 8  12140014.00446  22933592.410    22933598.0974
  22941643.700    -9948016.132 8  -7742192.38746  22941649.587    22941655.2124
  20824808.691   -18978963.275 9 -14745931.68247  20824810.543    20824816.5944
 00  4  7  3  2 30.0000000  0  7 23 17 03 21 26 29 09
  21008433.159   -20921214.877 9 -16291470.26548  21008434.190    21008440.2104
  20592544.553   -23053078.923 9  -5714358.00448  20592547.933    20592554.2954
  24404513.730      121935.262 7     87651.09545  24404512.766    24404518.3374
  23314182.409    -8748822.506 8  -6805701.20346  23314183.262    23314188.6944
  22951367.833   -10177417.341 8  12212822.90146  22951373.297    22951379.0474
  22927250.891   -10023686.524 8  -7801155.95846  22927249.304    22927255.7374
  20820288.088   -19002720.853 9 -14764444.09147  20820289.713    20820295.4824
 00  4  7  3  3  0.0000000  0  7 23 17 03 21 26 29 09
  21002638.702   -20951653.205 9 -16315188.44348  21002642.136    21002648.4184
  20603899.459   -22993418.238 9  -5667869.14248  20603901.415    20603907.1384
  24408262.742      141642.957 7    103007.74545  24408264.705    24408268.7734
  23299114.849    -8827982.992 8  -6867384.63846  23299119.718    23299124.9954
  22969164.212   -10083924.709 8  12285674.26246  22969164.546    22969170.7714
  22912885.096   -10099133.707 8  -7859945.67346  22912891.550    22912898.6644
  20815887.446   -19025846.002 9 -14782463.69747  20815889.392    20815894.9544
 00  4  7  3  3 30.0000000  0  7 23 17 03 21 26 29 09
  20996883.760   -20981901.691 9 -16338758.65548  20996885.720    20996891.9144
  20615357.921   -22933191.179 9  -5620938.98848  20615361.795    20615367.8894
  24412098.228      161808.106 7    118720.88645  24412101.757    24412104.2184
  23284058.562    -8907110.332 8  -6929042.32846  23284060.865    23284067.3614
  22986955.477    -9990386.713 8  12358560.98746  22986963.841    22986968.8764
  22898575.364   -10174354.283 8  -7918558.76846  22898578.633    22898582.7964
  20811604.861   -19048339.740 9 -14799991.28948  20811608.837    20811614.5954
 00  4  7  3  4  0.0000000  0  7 23 17 03 21 26 29 09
  20991162.351   -21011966.517 9 -16362185.77948  20991164.603    20991170.7564
  20626927.228   -22872395.490 9  -5573565.75148  20626930.905    20626936.9784
  24416023.105      182412.951 7    134776.66045  24416020.681    24416025.2184
  23269006.441    -8986205.722 8  -6990675.06146  23269009.476    23269017.1114
  23004767.377    -9896795.793 8  12431488.96546  23004773.483    23004779.2564
  22884303.066   -10249331.139 8  -7976982.12646  22884309.800    22884315.4864
  20807440.288   -19070221.642 9 -14817042.14148  20807444.972    20807450.6284
 00  4  7  3  4 30.0000000  0  7 23 17 03 21 26 29 09
  20985475.185   -21041849.545 9 -16385471.27448  20985477.796    20985484.2394
  20638604.399   -22811038.030 9  -5525754.74748  20638606.856    20638612.9584
  24420020.890      203458.091 7    151175.42645  24420026.939    24420031.0514
  23253955.734    -9065295.528 8  -7052303.43946  23253959.706    23253967.2604
  23022593.537    -9803150.500 8  12504459.26346  23022594.724    23022600.5954
  22870083.883   -10324077.378 8  -8035225.69646  22870086.101    22870091.6694
  20803391.007   -19091495.420 9 -14833619.09947  20803396.734    20803402.0674
 00  4  7  3  5  0.0000000  0  7 23 17 03 21 26 29 09
  20979820.613   -21071563.387 9 -16408624.91748  20979823.640    20979829.9464
  20650385.825   -22749122.275 9  -5477508.69948  20650388.990    20650395.8004
  24424111.076      224946.524 7    167919.64944  24424114.307    24424119.5454
  23238908.841    -9144366.542 8  -7113917.25346  23238912.469    23238919.6004
  23040418.645    -9709450.332 8  12577472.32446  23040424.673    23040430.5064
  22855902.358   -10398597.346 8  -8093292.97446  22855905.278    22855910.5514
  20799460.336   -19112163.834 9 -14849724.34448  20799463.685    20799469.4144
 00  4  7  3  5 30.0000000  0  7 23 17 03 21 26 29 09
  20974198.068   -21101117.280 9 -16431653.97748  20974199.919    20974206.0064
  20662273.046   -22686657.751 9  -5428835.09848  20662275.591    20662282.0854
  24428290.225      246889.143 7    185017.81345  24428292.575    24428297.3484
  23223865.442    -9223413.620 8  -7175512.32146  23223868.646    23223876.2064
  23058263.496    -9615680.475 8  12650539.70146  23058268.846    23058274.2614
  22841765.864   -10472890.980 8  -8151183.87946  22841767.506    22841772.7784
  20795643.361   -19132225.815 9 -14865357.03948  20795646.051    20795651.7894
 00  4  7  3  6  0.0000000  0  7 23 17 03 21 26 29 09
  20968607.053   -21130496.704 9 -16454547.07248  20968609.422    20968615.6604
  20674261.758   -22623647.463 9  -5379736.19747  20674266.042    20674272.5684
  24432547.925      269294.387 7    202476.40045  24432554.018    24432558.8354
  23208823.892    -9302456.232 8  -7237103.90646  23208828.819    23208834.8954
  23076118.903    -9521845.071 8  12723658.16546  23076125.271    23076131.4144
  22827666.323   -10546973.189 8  -8208910.07746  22827670.657    22827674.8844
  20791942.138   -19151668.870 9 -14880507.49048  20791946.321    20791951.8294
 00  4  7  3  6 30.0000000  0  7 23 17 03 21 26 29 09
  20963048.686   -21159696.955 9 -16477300.51948  20963052.650    20963058.6144
  20686356.004   -22560092.659 9  -5330212.99147  20686360.246    20686366.6324
  24436909.969      292170.046 7    220301.56845  24436908.403    24436912.7914
  23193792.358    -9381491.616 8  -7298689.94646  23193789.732    23193795.8194
  23093994.062    -9427949.463 8  12796823.60746  23093993.007    23093999.5284
  22813603.281   -10620869.304 8  -8266491.27046  22813607.448    22813613.4914
  20788363.742   -19170482.683 9 -14895167.60648  20788366.038    20788371.1694
 00  4  7  3  7  0.0000000  0  7 23 17 03 21 26 29 09
  20957529.391   -21188709.037 9 -16499907.30948  20957531.640    20957537.9054
  20698553.901   -22495990.280 9  -5280263.08247  20698558.418    20698564.3644
  24441342.073      315511.314 7    238489.59045  24441349.251    24441353.6834
  23178750.504    -9460495.986 8  -7360251.85346  23178754.241    23178762.0914
  23111865.825    -9333986.011 8  12870041.82146  23111873.470    23111880.3014
  22799583.058   -10694556.913 8  -8323909.97346  22799585.091    22799590.9494
  20784904.958   -19188657.754 9 -14909329.97948  20784907.395    20784912.9524
 00  4  7  3  7 30.0000000  0  7 23 17 03 21 26 29 09
  20952046.492   -21217510.413 9 -16522349.95948  20952050.789    20952056.9154
  20710856.500   -22431340.144 9  -5229886.37747  20710861.058    20710867.2514
  24445882.439      339323.159 7    257044.27845  24445881.262    24445885.0894
  23163717.151    -9539485.137 8  -7421801.73446  23163722.189    23163731.0324
  23129761.266    -9239959.500 8  12943309.21646  23129766.452    23129772.6854
  22785601.183   -10768024.497 8  -8381157.21246  22785603.951    22785609.5354
  20781568.251   -19206179.064 9 -14922982.95848  20781572.913    20781578.4254
 00  4  7  3  8  0.0000000  0  7 23 17 03 21 26 29 09
  20946609.200   -21246088.948 9 -16544618.96848  20946612.722    20946618.5064
  20723265.842   -22366138.569 9  -5179079.98647  20723268.497    20723274.3714
  24450495.841      363600.396 7    275961.60445  24450501.072    24450507.9804
  23148692.430    -9618456.817 8  -7483338.11646  23148696.201    23148702.2424
  23147667.457    -9145875.952 8  13016621.06446  23147669.702    23147676.1754
  22771666.615   -10841267.609 8  -8438229.55446  22771667.307    22771671.4034
  20778360.494   -19223040.337 9 -14936121.61448  20778364.708    20778370.1724
 00  4  7  3  8 30.0000000  0  7 23 17 03 21 26 29 09
  20941214.229   -21274447.820 9 -16566716.78448  20941216.246    20941221.8094
  20735774.624   -22300387.924 9  -5127845.71847  20735780.446    20735786.4604
  24455194.724      388325.188 7    295227.69345  24455205.325    24455211.1164
  23133673.948    -9697394.170 8  -7544847.77146  23133675.486    23133681.0534
  23165583.590    -9051725.478 8  13089985.09146  23165586.162    23165592.8034
  22757772.300   -10914262.894 8  -8495108.87646  22757775.997    22757781.6954
  20775278.408   -19239240.334 9 -14948744.98948  20775282.137    20775287.6304
 00  4  7  3  9  0.0000000  0  7 23 17 03 21 26 29 09
  20935857.070   -21302590.557 9 -16588646.11548  20935860.559    20935866.4304
  20748393.192   -22234099.625 9  -5076192.50647  20748394.713    20748401.0654
  24459991.070      413495.100 7    314840.61245  24459994.482    24460001.1294
  23118656.822    -9776300.716 8  -7606333.36446  23118659.262    23118665.9184
  23183503.737    -8957518.359 8  13163393.21146  23183511.605    23183518.6734
  22743930.848   -10986997.697 8  -8551785.16246  22743935.110    22743940.4534
  20772322.588   -19254772.694 9 -14960848.11348  20772325.986    20772331.7044
 00  4  7  3  9 30.0000000  0  7 23 17 03 21 26 29 09
  20930542.121   -21330527.271 9 -16610414.99148  20930544.387    20930550.4524
  20761109.531   -22167271.668 9  -5024118.79747  20761111.711    20761117.4764
  24464865.027      439108.959 7    334799.43145  24464868.770    24464874.8034
  23103641.786    -9855194.078 8  -7667808.71846  23103646.428    23103653.9704
  23201443.096    -8863259.966 8  13236841.22246  23201449.093    23201455.8494
  22730137.883   -11059496.041 8  -8608277.30046  22730138.675    22730144.0494
  20769492.926   -19269646.324 9 -14972437.97647  20769495.538    20769501.3334
 00  4  7  3 10  0.0000000  0  7 23 17 03 21 26 29 09
  20925260.773   -21358282.407 9 -16632042.37648  20925262.936    20925268.6114
  20773927.755   -22099908.658 9  -4971628.16347  20773930.486    20773936.5364
  24469818.059      465156.258 7    355096.00445  24469823.552    24469830.9444
  23088634.301    -9934065.874 8  -7729267.34846  23088638.169    23088644.8004
  23219388.967    -8768958.570 8  13310322.80546  23219394.385    23219400.5484
  22716380.611   -11131770.922 8  -8664595.25146  22716384.252    22716391.1614
  20766786.209   -19283866.326 9 -14983518.50048  20766789.953    20766794.9764
 00  4  7  3 10 30.0000000  0  7 23 17 03 21 26 29 09
  20920010.411   -21385869.120 9 -16653538.50748  20920013.280    20920019.1934
  20786843.155   -22032025.732 9  -4918732.37547  20786848.076    20786854.3414
  24474860.241      491641.759 7    375734.07845  24474864.426    24474872.5864
  23073628.348   -10012935.078 8  -7790723.87846  23073630.441    23073637.1754
  23237346.175    -8674629.803 8  13383825.74346  23237344.637    23237351.6314
  22702670.403   -11203823.877 8  -8720740.35046  22702673.828    22702680.1304
  20764204.133   -19297436.478 9 -14994092.65247  20764207.455    20764212.5314
 00  4  7  3 11  0.0000000  0  7 23 17 03 21 26 29 09
  20914793.067   -21413288.820 9 -16674904.46848  20914795.436    20914801.4654
  20799861.398   -21963615.975 9  -4865426.06447  20799865.708    20799872.3324
  24479987.497      518575.098 7    396721.10045  24479991.227    24479997.7684
  23058615.677   -10091820.099 8  -7852192.71246  23058618.853    23058625.4304
  23255299.351    -8580282.439 8  13457343.09146  23255299.352    23255304.8624
  22689001.695   -11275669.759 8  -8776724.13346  22689002.148    22689008.4624
  20761744.583   -19310361.957 9 -15004164.45748  20761747.966    20761753.2774
 00  4  7  3 11 30.0000000  0  7 23 17 03 21 26 29 09
  20909607.298   -21440544.001 9 -16696142.26048  20909609.100    20909614.8694
  20812981.189   -21894676.325 9  -4811706.85547  20812984.699    20812991.3894
  24485198.531      545953.368 7    418054.80245  24485201.067    24485208.5274
  23043604.155   -10170715.650 8  -7913669.77946  23043605.550    23043612.5034
  23273246.583    -8485918.164 8  13530873.57846  23273255.643    23273261.6204
  22675366.716   -11347297.239 8  -8832537.74946  22675372.018    22675377.7144
  20759408.229   -19322642.104 9 -15013733.38048  20759411.387    20759416.3304
 00  4  7  3 12  0.0000000  0  7 23 17 03 21 26 29 09
  20904453.550   -21467621.083 9 -16717241.27148  20904456.424    20904462.3134
  20826200.362   -21825212.071 9  -4757578.91747  20826203.603    20826209.8764
  24490497.150      573781.674 7    439739.18844  24490495.092    24490503.2364
  23028587.138   -10249609.542 8  -7975145.57246  23028592.159    23028598.9274
  23291207.302    -8391545.125 8  13604410.95846  23291214.609    23291221.0714
  22661781.845   -11418696.037 8  -8888173.10946  22661785.080    22661789.7874
  20757194.177   -19334273.961 9 -15022797.16448  20757197.938    20757202.5144
 00  4  7  3 12 30.0000000  0  7 23 17 03 21 26 29 09
  20899338.756   -21494500.435 9 -16738186.20248  20899341.282    20899347.4184
  20839520.943   -21755216.924 9  -4703037.25147  20839523.215    20839529.1634
  24495865.186      602070.837 7    461782.70344  24495876.665    24495885.9924
  23013578.667   -10328492.339 8  -8036612.62646  23013582.083    23013588.1914
  23309171.448    -8297152.606 8  13677963.45546  23309177.046    23309183.3144
  22648240.254   -11489857.243 8  -8943623.34146  22648244.018    22648249.7984
  20755104.766   -19345257.418 9 -15031355.68548  20755107.342    20755112.7404
 00  4  7  3 13  0.0000000  0  7 23 17 03 21 26 29 09
  20894263.762   -21521171.957 9 -16758969.18248  20894265.549    20894272.1024
  20852944.536   -21684675.653 9  -4648070.05647  20852946.997    20852952.7524
  24501347.818      630809.806 7    484176.72844  24501348.168    24501353.7044
  22998577.796   -10407337.314 8  -8098050.19846  22998577.566    22998584.3174
  23327141.795    -8202732.076 8  13751537.80246  23327144.246    23327150.3124
  22634743.842   -11560779.972 8  -8998887.75946  22634747.642    22634754.0694
  20753136.683   -19355593.473 9 -15039409.75848  20753140.793    20753146.2334
 00  4  7  3 13 30.0000000  0  7 23 17 03 21 26 29 09
  20889230.490   -21547619.062 9 -16779577.28448  20889232.990    20889239.5604
  20866470.142   -21613590.350 9  -4592678.93047  20866473.826    20866480.0984
  24506901.352      660000.494 7    506922.70544  24506903.542    24506911.4854
  22983579.411   -10486123.242 8  -8159441.77046  22983584.514    22983592.7764
  23345115.636    -8108275.785 8  13825139.93346  23345118.902    23345124.8094
  22621292.575   -11631465.729 8  -9053967.50346  22621295.878    22621301.9934
  20751293.068   -19365287.586 9 -15046963.60448  20751296.037    20751301.5294
 00  4  7  3 14  0.0000000  0  7 23 17 03 21 26 29 09
  20884242.588   -21573831.119 9 -16800002.22048  20884245.218    20884251.5414
  20880099.134   -21541961.214 9  -4536864.03147  20880104.360    20880110.5354
  24512540.494      689634.672 7    530014.25344  24512542.681    24512548.4954
  22968596.623   -10564846.185 8  -8220784.35146  22968603.705    22968611.3504
  23363098.724    -8013767.572 8  13898782.60446  23363103.547    23363110.6484
  22607887.875   -11701921.314 8  -9108867.92746  22607889.230    22607894.7824
  20749569.539   -19374350.605 9 -15054025.69348  20749571.761    20749576.9724
 00  4  7  3 14 30.0000000  0  7 23 17 03 21 26 29 09
  20879297.442   -21599811.973 9 -16820247.01448  20879300.877    20879307.5814
  20893835.715   -21469797.771 9  -4480632.78347  20893837.167    20893842.8434
  24518256.300      719692.646 7    553436.03744  24518263.836    24518269.6104
  22953635.881   -10643505.476 8  -8282077.43646  22953636.672    22953642.8274
  23381099.301    -7919201.004 8  13972470.86746  23381099.479    23381105.6984
  22594524.670   -11772134.453 8  -9163579.41946  22594527.899    22594533.5704
  20747962.725   -19382784.606 9 -15060597.62948  20747966.484    20747971.4484
 00  4  7  3 15  0.0000000  0  7 23 17 03 21 26 29 09
  20874397.454   -21625560.878 9 -16840311.11048  20874401.011    20874407.5764
  20907665.915   -21397112.207 9  -4423994.74147  20907668.657    20907674.6074
  24524060.673      750161.159 7    577177.77544  24524061.207    24524067.3734
  22938673.054   -10722106.645 8  -8343325.13746  22938679.031    22938685.5524
  23399097.038    -7824583.759 8  14046198.53646  23399104.296    23399110.2084
  22581209.122   -11842104.511 8  -9218101.51646  22581212.366    22581218.5874
  20746475.099   -19390598.919 9 -15066686.70548  20746479.276    20746484.5374
 00  4  7  3 15 30.0000000  0  7 23 17 03 21 26 29 09
  20869543.245   -21651079.495 9 -16860195.72548  20869545.361    20869551.6304
  20921593.807   -21323924.695 9  -4366965.50447  20921595.154    20921601.7104
  24529931.523      781044.319 7    601242.54244  24529935.876    24529943.8954
  22923729.768   -10800651.266 8  -8404528.67546  22923731.200    22923740.2264
  23417113.319    -7729920.619 8  14119962.01046  23417118.697    23417124.5994
  22567943.605   -11911825.875 8  -9272429.80446  22567945.561    22567951.2924
  20745108.400   -19397791.589 9 -15072291.36848  20745110.660    20745116.1904
 00  4  7  3 16  0.0000000  0  7 23 17 03 21 26 29 09
  20864723.893   -21676387.734 9 -16879916.41948  20864729.272    20864735.3354
  20935612.894   -21250251.227 9  -4309557.68547  20935615.547    20935621.1514
  24535892.330      812329.373 7    625620.53344  24535886.904    24535896.4114
  22908793.257   -10879139.150 8  -8465687.96446  22908796.449    22908803.4634
  23435133.382    -7635234.310 8  14193743.53546  23435135.772    23435143.8934
  22554723.778   -11981290.685 8  -9326558.18846  22554726.535    22554732.3434
  20743857.511   -19404352.076 9 -15077403.44148  20743862.178    20743867.7714
 00  4  7  3 16 30.0000000  0  7 23 17 03 21 26 29 09
  20859951.562   -21701487.448 9 -16899474.64148  20859952.934    20859959.0004
  20949722.375   -21176092.847 9  -4251771.97947  20949726.925    20949733.1924
  24541920.852      844025.392 7    650318.64844  24541923.307    24541927.9314
  22893868.770   -10957565.815 8  -8526799.46946  22893872.483    22893878.8054
  23453147.172    -7540547.088 8  14267525.83446  23453154.479    23453160.3394
  22541548.914   -12050503.786 8  -9380490.40446  22541555.493    22541561.2454
  20742731.533   -19410273.642 9 -15082017.66448  20742734.857    20742740.5034
 00  4  7  3 17  0.0000000  0  7 23 17 03 21 26 29 09
  20855213.816   -21726389.711 9 -16918878.96648  20855213.900    20855220.2934
  20963930.530   -21101439.217 9  -4193600.32847  20963933.027    20963939.4804
  24548022.954      876142.624 7    675345.08744  24548032.214    24548040.3034
  22878960.021   -11035927.201 8  -8587860.31446  22878960.628    22878967.2434
  23471169.473    -7445866.707 8  14341302.76045  23471171.011    23471177.2854
  22528428.517   -12119471.881 8  -9434231.73846  22528431.117    22528437.4224
  20741726.995   -19415560.918 9 -15086137.60748  20741728.953    20741734.6344
 00  4  7  3 17 30.0000000  0  7 23 17 03 21 26 29 09
  20850507.019   -21751103.024 9 -16938136.09348  20850511.128    20850517.0654
  20978232.539   -21026286.302 9  -4135039.62047  20978234.227    20978240.5354
  24554219.084      908676.975 7    700696.56144  24554226.662    24554230.3134
  22864059.477   -11114224.320 8  -8648871.05546  22864060.433    22864068.3464
  23489187.384    -7351191.711 8  14415075.42745  23489187.415    23489193.7264
  22515354.275   -12188205.935 8  -9487790.66646  22515351.280    22515357.8924
  20740842.606   -19420207.234 9 -15089758.12948  20740844.995    20740850.5754
 00  4  7  3 18  0.0000000  0  7 23 17 03 21 26 29 09
  20845840.538   -21775623.201 9 -16957242.71148  20845844.774    20845850.8934
  20992626.394   -20950623.975 9  -4076082.00847  20992632.112    20992638.7224
  24560498.015      941624.807 7    726370.21444  24560494.439    24560503.4874
  22849170.422   -11192476.286 8  -8709846.68346  22849170.296    22849176.8404
  23507199.347    -7256515.707 8  14488848.79646  23507202.726    23507211.4374
  22502312.392   -12256709.774 8  -9541170.19546  22502316.301    22502321.8344
  20740078.589   -19424222.413 9 -15092886.84548  20740080.892    20740086.4704
 00  4  7  3 18 30.0000000  0  7 23 17 03 21 26 29 09
  20841214.101   -21799949.032 9 -16976197.94748  20841216.196    20841222.0314
  21007125.622   -20874442.239 9  -4016719.61547  21007129.152    21007135.3784
  24566840.610      974993.019 7    752371.37244  24566843.717    24566849.0584
  22834282.426   -11270705.936 8  -8770804.85546  22834283.841    22834290.0834
  23525223.062    -7161817.003 8  14562639.86346  23525224.175    23525231.0024
  22489318.184   -12324990.693 8  -9594376.04646  22489322.704    22489327.9324
  20739431.983   -19427613.523 9 -15095529.27348  20739435.294    20739441.0434
 00  4  7  3 19  0.0000000  0  7 23 17 03 21 26 29 09
  20836620.164   -21824079.921 9 -16995001.23048  20836624.285    20836630.2814
  21021718.709   -20797749.169 9  -3956958.80647  21021723.373    21021729.5864
  24573266.894     1008778.505 7    778697.67844  24573273.101    24573279.1084
  22819397.802   -11348929.479 8  -8831758.17746  22819398.886    22819404.9974
  23543247.759    -7067076.826 8  14636463.35045  23543252.064    23543258.9374
  22476368.396   -12393061.746 8  -9647418.36746  22476369.819    22476373.4904
  20738906.366   -19430375.442 9 -15097681.41948  20738910.160    20738915.8184
 00  4  7  3 19 30.0000000  0  7 23 17 03 21 26 29 09
  20832071.746   -21847990.804 9 -17013633.09448  20832074.263    20832080.3644
  21036410.098   -20720551.872 9  -3896805.07847  21036413.538    21036419.3764
  24579788.896     1042975.547 7    805344.77644  24579783.696    24579788.5764
  22804510.689   -11427156.750 8  -8892714.48546  22804512.423    22804518.5784
  23561283.755    -6972292.811 8  14710320.99145  23561289.083    23561297.3754
  22463454.370   -12460930.457 8  -9700303.09346  22463454.534    22463458.9824
  20738502.503   -19432497.391 9 -15099334.88448  20738506.108    20738511.6994
 00  4  7  3 20  0.0000000  0  7 23 17 03 21 26 29 09
  20827563.822   -21871668.927 9 -17032083.58448  20827568.708    20827574.1964
  21051194.014   -20642861.620 9  -3836267.29947  21051197.706    21051203.8534
  24586368.890     1077596.645 7    832322.17744  24586368.759    24586376.5514
  22789622.831   -11505386.606 8  -8953672.82546  22789625.219    22789632.3474
  23579330.277    -6877469.928 8  14784208.88145  23579333.441    23579341.3664
  22450572.484   -12528593.951 8  -9753027.89846  22450577.203    22450582.9944
  20738222.744   -19433966.288 9 -15100479.48048  20738226.797    20738232.2774
 00  4  7  3 20 30.0000000  0  6 23 17 21 26 29 09
  20823102.963   -21895116.646 9 -17050354.49348  20823106.322    20823112.2564
  21066066.418   -20564688.721 9  -3775353.36547  21066073.206    21066079.8624
  22774741.415   -11583606.533 8  -9014623.44646  22774741.620    22774747.3664
  23597380.371    -6782617.491 8  14858119.82745  23597384.483    23597391.2104
  22437732.256   -12596059.938 8  -9805598.77446  22437738.497    22437745.5374
  20738074.295   -19434759.021 9 -15101097.20648  20738076.281    20738081.3974
 00  4  7  3 21  0.0000000  0  6 23 17 21 26 29 09
  20818688.456   -21918316.230 9 -17068432.08448  20818691.229    20818697.7744
  21081036.463   -20486042.472 9  -3714070.59547  21081039.487    21081045.7294
  22759859.831   -11661789.793 8  -9075545.59246  22759863.064    22759869.1424
  23615433.950    -6687754.293 8  14932039.27045  23615435.764    23615441.5014
  22424936.611   -12663316.910 8  -9858006.81546  22424941.105    22424947.0194
  20738052.214   -19434870.361 9 -15101183.98048  20738054.494    20738060.1944
 00  4  7  3 21 30.0000000  0  6 23 17 21 26 29 09
  20814320.593   -21941272.150 9 -17086319.81848  20814323.093    20814329.5434
  21096093.489   -20406927.848 9  -3652422.88147  21096094.698    21096100.9934
  22744992.141   -11739923.116 8  -9136428.74146  22744995.105    22745000.9024
  23633483.882    -6592895.226 8  15005955.36545  23633486.418    23633492.6264
  22412183.604   -12730347.719 8  -9910238.60146  22412186.347    22412190.7954
  20738156.400   -19434307.867 9 -15100745.68648  20738161.138    20738167.1104
 00  4  7  3 22  0.0000000  0  7 23 17 03 21 26 29 09
  20809994.729   -21964007.137 9 -17104035.36548  20809996.890    20810002.8384
  21111236.364   -20327342.889 9  -3590408.66947  21111238.876    21111245.5944
  24613525.837       18287.49317
  22730136.476   -11818000.742 8  -9197268.38046  22730136.932    22730143.5094
  23651535.237    -6498046.287 8  15079863.67045  23651535.571    23651542.5664
  22399470.339   -12797153.180 8  -9962294.78446  22399473.407    22399477.1784
  20738394.204   -19433075.045 9 -15099785.05248  20738396.709    20738401.6854
 00  4  7  3 22 30.0000000  0  6 23 17 21 26 29 09
  20805708.020   -21986530.008 9 -17121585.63048  20805710.523    20805716.7564
  21126474.284   -20247267.645 9  -3528012.46247  21126476.588    21126483.2544
  22715290.883   -11896008.444 8  -9258053.55846  22715293.181    22715299.2514
  23669575.076    -6403208.549 8  15153763.18945  23669582.822    23669590.0564
  22386799.126   -12863727.136 8 -10014170.56946  22386804.449    22386809.3474
  20738752.996   -19431194.584 9 -15098319.75648  20738754.637    20738759.3294
 00  4  7  3 23  0.0000000  0  7 23 17 03 21 26 29 09
  20801462.617   -22008837.080 9 -17138967.78248  20801466.151    20801471.9074
  21141805.922   -20166699.418 9  -3465231.99947  21141808.438    21141814.8104
  24627528.185        9597.26617
  22700460.087   -11973944.815 8  -9318783.18146  22700462.264    22700468.7724
  23687619.333    -6308383.356 8  15227652.94845  23687627.381    23687633.7694
  22374179.418   -12930053.830 8 -10065853.68746  22374182.695    22374188.9144
  20739228.243   -19428691.235 9 -15096369.10748  20739230.946    20739235.6554
 00  4  7  3 23 30.0000000  0  6 23 17 21 26 29 09
  20797257.203   -22030931.738 9 -17156184.37048  20797261.558    20797267.2224
  21157231.868   -20085636.586 9  -3402066.11447  21157234.482    21157240.5464
  22685638.104   -12051825.482 8  -9379469.42046  22685641.778    22685647.6924
  23705667.621    -6213564.908 8  15301537.31145  23705671.211    23705677.2244
  22361604.424   -12996139.472 8 -10117348.96246  22361606.866    22361613.3004
  20739821.643   -19425565.946 9 -15093933.81948  20739825.650    20739830.5144
 00  4  7  3 24  0.0000000  0  6 23 17 21 26 29 09
  20793098.272   -22052797.565 9 -17173222.64648  20793100.301    20793106.5634
  21172751.981   -20004077.666 9  -3338513.72047  21172754.410    21172760.9894
  22670830.667   -12129646.482 8  -9440109.12946  22670832.736    22670838.5984
  23723703.106    -6118749.815 8  15375419.22545  23723713.567    23723720.7744
  22349076.690   -13061967.712 8 -10168643.65646  22349080.015    22349086.2204
  20740539.353   -19421810.461 9 -15091007.48348  20740539.847    20740545.5094
 00  4  7  3 24 30.0000000  0  6 23 17 21 26 29 09
  20788984.078   -22074414.658 9 -17190067.14848  20788987.165    20788993.1524
  21188359.944   -19922038.176 9  -3274586.79247  21188365.686    21188372.4344
  22656028.803   -12207406.839 8  -9500701.58746  22656034.990    22656041.4414
  23741762.112    -6023924.151 8  15449309.30445  23741758.207    23741765.5084
  22336599.684   -13127522.133 8 -10219724.95846  22336604.918    22336610.7564
  20741371.635   -19417431.100 9 -15087595.01948  20741373.167    20741379.1004
 00  4  7  3 25  0.0000000  0  6 23 17 21 26 29 09
  20784920.586   -22095775.099 9 -17206711.63548  20784922.377    20784928.4374
  21204061.195   -19839539.793 8  -3210302.30747  21204064.570    21204071.2914
  22641243.724   -12285132.784 8  -9561267.20546  22641245.501    22641251.5194
  23759807.972    -5929084.168 8  15523210.59145  23759805.907    23759812.8384
  22324178.038   -13192802.180 8 -10270592.52846  22324183.239    22324189.6424
  20742326.397   -19412408.338 9 -15083681.19448  20742329.186    20742334.6994
 00  4  7  3 25 30.0000000  0  6 23 17 21 26 29 09
  20780903.077   -22116879.725 9 -17223156.80648  20780906.005    20780912.4064
  21219848.158   -19756576.451 9  -3145655.53247  21219852.055    21219858.7804
  22626455.056   -12362824.350 8  -9621806.04346  22626460.435    22626466.9004
  23777856.259    -5834221.664 8  15597129.41845  23777857.203    23777864.5054
  22311806.327   -13257827.730 8 -10321261.76846  22311809.289    22311814.7784
  20743406.575   -19406723.302 9 -15079251.31848  20743410.999    20743416.3034
 00  4  7  3 26  0.0000000  0  6 23 17 21 26 29 09
  20776930.152   -22137745.512 9 -17239415.82748  20776935.454    20776941.7394
  21235724.332   -19673142.330 9  -3080641.95647  21235729.173    21235735.2514
  22611684.345   -12440463.960 8  -9682304.44746  22611686.828    22611692.6574
  23795915.364    -5739334.669 8  15671067.29945  23795914.435    23795920.9904
  22299475.409   -13322606.100 8 -10371738.39646  22299482.004    22299487.6924
  20744613.534   -19400378.593 9 -15074307.40947  20744618.033    20744623.7714
 00  4  7  3 26 30.0000000  0  6 23 17 21 26 29 09
  20773004.224   -22158392.343 9 -17255504.24448  20773006.647    20773012.9364
  21251694.594   -19589227.487 9  -3015253.81947  21251697.429    21251703.7174
  22596914.548   -12518059.740 8  -9742768.69246  22596919.863    22596925.6094
  23813968.404    -5644427.598 8  15745020.73945  23813975.059    23813981.7254
  22287192.126   -13387167.123 8 -10422045.67746  22287195.890    22287201.5874
  20745948.346   -19393375.700 9 -15068850.61748  20745950.865    20745956.6974
 00  4  7  3 27  0.0000000  0  6 23 17 21 26 29 09
  20769114.635   -22178834.764 9 -17271433.42048  20769116.935    20769122.5594
  21267756.104   -19504827.343 9  -2949487.50247  21267758.355    21267764.6924
  22582166.358   -12595594.502 8  -9803185.28046  22582166.561    22582172.0994
  23832029.793    -5549516.933 8  15818977.11445  23832035.332    23832041.6744
  22274946.844   -13451519.273 8 -10472190.20346  22274950.356    22274957.3404
  20747407.520   -19385700.696 9 -15062870.10548  20747411.594    20747416.8544
 00  4  7  3 27 30.0000000  0  6 23 17 21 26 29 09
  20765264.411   -22199074.691 9 -17287204.79548  20765265.602    20765271.0234
  21283912.258   -19419930.258 9  -2883334.00347  21283914.218    21283920.0734
  22567427.579   -12673038.637 8  -9863531.32546  22567429.707    22567435.1194
  23850096.087    -5454605.524 8  15892934.05645  23850096.595    23850103.5344
  22262742.711   -13515655.481 8 -10522166.43146  22262745.792    22262751.8744
  20748994.663   -19377364.475 9 -15056374.34648  20748997.946    20749003.2304
 00  4  7  3 28  0.0000000  0  6 23 17 21 26 29 09
  20761450.135   -22219106.624 9 -17302814.08848  20761453.318    20761458.7544
  21300156.216   -19334546.144 9  -2816800.98947  21300161.818    21300167.9684
  22552707.112   -12750388.925 8  -9923804.29246  22552710.021    22552715.3334
  23868159.611    -5359701.535 8  15966885.09045  23868155.670    23868162.3754
  22250584.176   -13579554.817 8 -10571958.11046  22250587.125    22250592.3794
  20750701.882   -19368384.795 9 -15049377.19848  20750706.766    20750712.0634
 00  4  7  3 28 30.0000000  0  6 23 17 21 26 29 09
  20757680.785   -22238909.733 9 -17318245.05448  20757684.691    20757690.5724
  21316494.767   -19248690.808 9  -2749900.79847  21316499.598    21316505.9744
  22538004.188   -12827653.198 8  -9984010.30446  22538006.122    22538013.1294
  23886204.476    -5264818.281 8  16040819.99345  23886211.190    23886217.3464
  22238466.087   -13643204.672 8 -10621555.40546  22238474.291    22238479.9574
  20752531.936   -19358772.196 9 -15041886.86547  20752535.435    20752541.0004
 00  4  7  3 29  0.0000000  0  6 23 17 21 26 29 09
  20753960.855   -22258462.413 9 -17333480.89148  20753963.865    20753969.7114
  21332921.662   -19162383.813 9  -2682648.70447  21332923.325    21332929.9194
  22523320.005   -12904827.310 8 -10044145.95046  22523320.363    22523327.0004
  23904267.088    -5169957.743 8  16114737.31445  23904262.328    23904268.4784
  22226410.763   -13706594.104 8 -10670949.73646  22226412.138    22226416.9374
  20754477.521   -19348550.137 9 -15033921.64748  20754480.914    20754486.2784
 00  4  7  3 29 30.0000000  0  6 23 17 21 26 29 09
  20750290.035   -22277756.711 9 -17348515.38548  20750292.354    20750297.9744
  21349429.709   -19075625.841 9  -2615045.22647  21349433.426    21349439.6184
  22508643.699   -12981935.159 8 -10104229.90946  22508646.993    22508654.2634
  23922305.098    -5075119.876 8  16188637.02345  23922309.553    23922315.9694
  22214394.768   -13769727.921 8 -10720144.90846  22214397.813    22214403.0894
  20756534.672   -19337740.730 9 -15025498.73548  20756538.044    20756543.5834
 00  4  7  3 30  0.0000000  0  6 23 17 21 26 29 09
  20746665.283   -22296799.679 9 -17363354.09248  20746668.777    20746674.2984
  21366020.455   -18988444.720 9  -2547112.05147  21366023.648    21366029.7394
  22493980.682   -13058991.348 8 -10164273.66846  22493983.712    22493991.6744
  23940350.931    -4980312.985 8  16262512.53245  23940351.609    23940357.9124
  22202425.548   -13832619.264 8 -10769151.12246  22202429.885    22202435.5214
  20758705.048   -19326340.361 9 -15016615.32048  20758707.339    20758713.0354
 00  4  7  3 30 30.0000000  0  6 23 17 21 26 29 09
  20743088.198   -22315594.479 9 -17377999.41148  20743092.207    20743097.6974
  21382689.096   -18900853.284 8  -2478859.19247  21382691.833    21382698.4264
  22479327.786   -13135998.156 8 -10224278.93646  22479330.218    22479336.9844
  23958381.797    -4885537.655 8  16336363.37845  23958386.990    23958393.5134
  22190505.433   -13895285.792 8 -10817982.16846  22190505.462    22190509.9814
  20760990.793   -19314331.442 9 -15007257.70948  20760992.701    20760998.2884
 00  4  7  3 31  0.0000000  0  6 23 17 21 26 29 09
  20739559.312   -22334147.364 9 -17392456.15348  20739561.670    20739567.1144
  21399435.661   -18812851.122 9  -2410286.30347  21399438.048    21399444.2024
  22464682.084   -13212949.739 8 -10284241.14846  22464686.952    22464694.0814
  23976422.090    -4790778.030 8  16410201.89345  23976419.540    23976425.2014
  22178618.433   -13957733.424 8 -10866642.65146  22178620.850    22178626.5024
  20763395.246   -19301688.696 9 -14997406.20247  20763398.231    20763403.9664
 00  4  7  3 31 30.0000000  0  6 23 17 21 26 29 09
  20736071.462   -22352472.563 9 -17406735.50948  20736074.378    20736080.1894
  21416258.229   -18724435.633 8  -2341391.35947  21416263.297    21416269.4024
  22450047.966   -13289842.647 8 -10344157.71346  22450054.220    22450061.5414
  23994445.968    -4696029.921 8  16484031.61645  23994449.964    23994455.1934
  22166776.442   -14019960.949 8 -10915131.60446  22166779.847    22166784.5394
  20765927.439   -19288377.926 9 -14987034.17048  20765930.865    20765936.9884
 00  4  7  3 32  0.0000000  0  7 23 17 21 26 29 09 15
  20732628.367   -22370560.398 9 -17420829.91548  20732632.567    20732638.3034
  21433162.722   -18635609.177 9  -2272176.17547  21433166.911    21433172.6924
  22435433.848   -13366658.022 8 -10404013.75046  22435436.644    22435444.0874
  24012474.684    -4601288.248 8  16557856.25345  24012478.212    24012484.4674
  22154976.096   -14081970.731 8 -10963450.90846  22154980.656    22154984.5064
  20768591.554   -19274386.618 9 -14976131.85247  20768593.988    20768599.7324
  24250307.842     -941351.34017   -715369.01155  24250306.809    24250319.5264
 00  4  7  3 32 30.0000000  0  7 23 17 21 26 29 09 15
  20729235.510   -22388399.120 9 -17434730.20948  20729238.133    20729244.0024
  21450148.689   -18546350.753 8  -2202624.43447  21450151.893    21450158.2394
  22420832.303   -13443385.304 8 -10463801.21046  22420835.664    22420843.3384
  24030495.450    -4506552.772 8  16631676.00545  24030505.531    24030512.9624
  22143221.170   -14143749.785 8 -11011590.42347  22143224.877    22143228.6614
  20771381.928   -19259723.286 9 -14964705.87447  20771383.981    20771389.7884
  24230361.905    -1046165.265 7   -797042.61245  24230360.401    24230372.6314
 00  4  7  3 33  0.0000000  0  7 23 17 21 26 29 09 15
  20725890.436   -22405979.295 9 -17448428.99048  20725892.450    20725898.4444
  21467218.657   -18456649.868 8  -2132727.91247  21467221.777    21467228.1994
  22406251.434   -13520020.336 8 -10523516.80747  22406252.768    22406260.2304
  24048530.029    -4411828.185 8  16705487.31145  24048530.506    24048538.3564
  22131510.617   -14205280.650 8 -11059536.51746  22131514.777    22131520.0294
  20774296.642   -19244408.815 9 -14952772.52047  20774298.136    20774303.9464
  24210450.613    -1150762.600 7   -878547.10345  24210456.399    24210467.1464
 00  4  7  3 33 30.0000000  0  7 23 17 21 26 29 09 15
  20722596.434   -22423288.069 9 -17461916.33048  20722598.510    20722604.5674
  21484373.785   -18366505.570 8  -2062485.87347  21484375.418    21484382.4044
  22391679.979   -13596564.501 8 -10583161.63046  22391687.429    22391693.6034
  24066545.559    -4317131.419 8  16779276.91345  24066551.583    24066558.2674
  22119849.472   -14266560.193 8 -11107286.78946  22119853.743    22119858.3064
  20777327.099   -19228474.128 9 -14940355.88247  20777330.451    20777335.9534
  24190594.665    -1255142.050 7   -959882.56755  24190592.800    24190605.1504
 00  4  7  3 34  0.0000000  0  7 23 17 21 26 29 09 15
  20719355.715   -22440322.131 9 -17475189.60848  20719357.180    20719363.2704
  21501611.630   -18275905.605 8  -1991888.72547  21501616.690    21501623.4414
  22377139.217   -13673017.452 8 -10642735.35247  22377138.926    22377145.4724
  24084550.747    -4222470.438 8  16853038.58945  24084564.762    24084570.6574
  22108238.625   -14327589.104 8 -11154841.77346  22108240.279    22108244.3324
  20780472.291   -19211940.268 9 -14927472.35947  20780476.608    20780482.1454
  24170766.742    -1359298.013 7  -1041042.79255  24170773.371    24170785.2734
 00  4  7  3 34 30.0000000  0  7 23 17 21 26 29 09 15
  20716163.455   -22457090.459 9 -17488255.85648  20716166.150    20716172.0984
  21518939.731   -18184852.369 8  -1920938.38747  21518943.642    21518950.7064
  22362602.140   -13749392.559 8 -10702248.37347  22362604.734    22362612.1104
  24102569.625    -4127842.643 7  16926774.43345  24102571.521    24102578.0344
  22096670.959   -14388366.664 8 -11202200.88047  22096674.850    22096680.2734
  20783731.932   -19194810.780 9 -14914124.69347  20783736.553    20783742.2534
  24150986.441    -1463228.341 7  -1122026.78145  24150994.578    24151006.9264
 00  4  7  3 35  0.0000000  0  7 23 17 21 26 29 09 15
  20713021.938   -22473588.528 9 -17501111.47948  20713026.825    20713032.6214
  21536350.353   -18093345.381 8  -1849634.45347  21536356.729    21536363.9824
  22348075.477   -13825713.831 8 -10761719.46947  22348081.595    22348088.4134
  24120566.724    -4033243.421 8  17000487.94045  24120573.255    24120579.7634
  22085149.985   -14448913.190 8 -11249379.95547  22085153.020    22085159.1314
  20787109.846   -19177079.073 9 -14900307.76747  20787110.765    20787116.2434
  24131256.491    -1566930.624 7  -1202833.00845  24131260.055    24131273.5424
 00  4  7  3 35 30.0000000  0  7 23 17 21 26 29 09 15
  20709934.313   -22489830.245 9 -17513767.31848  20709936.156    20709941.7574
  21553855.438   -18001388.815 8  -1777980.21947  21553855.526    21553862.4984
  22333561.552   -13901984.350 8 -10821150.95146  22333566.816    22333573.2884
  24138567.491    -3938667.745 8  17074183.32345  24138571.638    24138576.7434
  22073672.142   -14509242.572 8 -11296389.83647  22073673.048    22073678.0524
  20790599.543   -19158717.504 9 -14886000.05947  20790604.318    20790610.8704
  24111572.757    -1670404.251 7                                  24111567.600
 00  4  7  3 36  0.0000000  0  7 23 17 21 26 29 09 15
  20706889.347   -22505828.642 9 -17526233.57348  20706892.082    20706897.7454
  21571436.321   -17908993.296 8  -1705983.88847  21571437.934    21571445.4424
  22319062.278   -13978199.052 8 -10880539.02247  22319064.768    22319070.6814
  24156566.209    -3844098.766 8  17147873.50745  24156566.706    24156572.1744
  22062228.910   -14569360.085 8 -11343234.63647  22062232.623    22062236.8994
  20794220.745   -19139704.526 9 -14871184.76047  20794222.518    20794228.5434
  24091921.562    -1773642.940 7  -1363906.50255  24091924.268    24091934.6494
 00  4  7  3 36 30.0000000  0  7 23 17 21 26 29 09 15
  20703894.085   -22521572.204 9 -17538501.30148  20703896.335    20703902.1884
  21589095.355   -17816186.777 8  -1633667.33347  21589098.318    21589105.9924
  22304570.893   -14054354.765 8 -10939881.15747  22304573.090    22304578.9734
  24174549.512    -3749531.890 7  17221562.09345  24174562.233    24174568.9454
  22050828.997   -14629260.520 8 -11389910.29147  22050833.794    22050839.2344
  20797964.713   -19120028.286 9 -14855852.63447  20797967.281    20797973.2454
  24072323.450    -1876647.137 7  -1444169.48155  24072325.043    24072332.9564
 00  4  7  3 37  0.0000000  0  7 23 17 21 26 29 09 15
  20700946.716   -22537057.355 9 -17550567.63548  20700949.205    20700955.0984
  21606833.603   -17722979.695 8  -1561038.65347  21606835.826    21606842.5644
  22290093.217   -14130434.048 8 -10999163.81547  22290095.745    22290102.1174
  24192544.422    -3654979.431 7  17295239.33945  24192553.799    24192561.1984
  22039475.822   -14688930.816 8 -11436406.57847  22039478.593    22039485.5624
  20801836.113   -19099678.346 9 -14839995.55147  20801839.315    20801845.3934
  24052767.051    -1979410.961 7  -1524244.30655  24052768.462    24052776.2064
 00  4  7  3 37 30.0000000  0  7 23 17 21 26 29 09 15
  20698046.594   -22552291.571 9 -17562438.41848  20698050.025    20698055.9424
  21624638.929   -17629397.391 8  -1488117.58347  21624643.744    21624651.4324
  22275636.401   -14206400.485 8 -11058358.49547  22275639.381    22275646.3044
  24210546.376    -3560437.704 8  17368908.11345  24210545.389    24210551.3944
  22028165.901   -14748353.061 8 -11482709.60247  22028170.357    22028177.1384
  20805835.130   -19078664.003 9 -14823620.74847  20805838.813    20805844.1494
  24033255.395    -2081933.626 7  -1604131.54945  24033259.527    24033266.4354
 00  4  7  3 38  0.0000000  0  7 23 17 21 26 29 09 15
  20695197.077   -22567267.805 9 -17574108.21048  20695200.083    20695205.8244
  21642525.406   -17535435.073 8  -1414900.40747  21642524.298    21642531.7954
  22261203.569   -14282249.269 8 -11117461.34847  22261206.278    22261212.4894
  24228519.970    -3465909.876 8  17442566.07545  24228532.747    24228539.9944
  22016908.018   -14807521.531 8 -11528814.90946  22016911.458    22016916.5234
  20809957.332   -19057007.638 9 -14806745.64247  20809959.984    20809964.7194
  24013797.183    -2184211.887 8  -1683828.59445  24013797.148    24013804.7084
 00  4  7  3 38 30.0000000  0  7 23 17 21 26 29 09 15
  20692397.075   -22581984.172 9 -17585575.53448  20692399.844    20692405.4964
  21660474.125   -17441089.406 8  -1341384.51247  21660478.054    21660485.6074
  22246791.613   -14357979.290 8 -11176471.72647  22246794.959    22246800.7514
  24246516.500    -3371408.657 8  17516203.29945  24246516.116    24246523.2224
  22005699.481   -14866427.482 8 -11574715.62547  22005702.298    22005707.7894
  20814197.101   -19034716.615 9 -14789376.01247  20814201.471    20814207.0534
  23994382.272    -2286242.261 8  -1763332.12145  23994380.805    23994388.0094
 00  4  7  3 39  0.0000000  0  7 23 17 21 26 29 09 15
  20689645.842   -22596444.553 9 -17596843.36148  20689648.028    20689653.3754
  21678501.070   -17346348.271 8  -1267560.48147  21678506.823    21678514.3724
  22232402.228   -14433591.529 8 -11235390.32647  22232406.563    22232413.0694
  24264486.648    -3276941.692 8  17589813.89945  24264492.189    24264499.4524
  21994540.635   -14925075.757 8 -11620415.54647  21994542.455    21994547.2794
  20818560.779   -19011806.905 9 -14771524.28447  20818560.883    20818566.6174
  23975009.462    -2388022.004 8  -1842640.46745  23975011.210    23975019.0804
 00  4  7  3 39 30.0000000  0  7 23 17 21 26 29 09 15
  20686941.994   -22610650.389 9 -17607912.82948  20686944.702    20686950.1184
  21696612.907   -17251196.612 8  -1193416.49847  21696614.004    21696621.2574
  22218033.290   -14509093.871 8 -11294223.26147  22218038.561    22218045.4944
  24282459.903    -3182512.541 8  17663395.04545  24282461.198    24282468.2954
  21983424.075   -14983476.531 8 -11665922.62947  21983428.429    21983433.9854
  20823033.734   -18988287.950 9 -14753197.83047  20823036.359    20823042.2244
  23955689.353    -2489548.474 8  -1921751.36145  23955691.557    23955699.6714
 00  4  7  3 40  0.0000000  0  7 23 17 21 26 29 09 15
  20684286.436   -22624600.211 9 -17618782.80548  20684290.244    20684295.8274
  21714798.389   -17155624.137 8  -1118944.61647  21714801.167    21714808.5324
  22203684.217   -14584511.911 8 -11352990.46847  22203687.496    22203693.5934
  24300414.082    -3088131.319 8  17736938.83745  24300422.502    24300429.0414
  21972357.227   -15041631.073 8 -11711237.81147  21972361.691    21972368.3484
  20827626.840   -18964155.021 9 -14734392.95247  20827628.843    20827634.1864
  23936417.732    -2590818.900 8  -2000663.02945  23936421.136    23936427.7234
 00  4  7  3 40 30.0000000  0  7 23 17 21 26 29 09 15
  20681684.409   -22638283.382 9 -17629444.99648  20681686.362    20681691.8014
  21733060.708   -17059646.294 8  -1044156.85147  21733065.257    21733072.4464
  22189345.680   -14659848.667 8 -11411694.35247  22189350.740    22189356.8804
  24318372.775    -2993804.636 8  17810440.18545  24318372.552    24318378.9094
  21961338.907   -15099549.860 8 -11756369.29947  21961340.631    21961346.8144
  20832334.332   -18939411.422 9 -14715112.20948  20832337.918    20832343.2174
  23917198.065    -2691830.542 8  -2079372.92045  23917197.730    23917205.0874
 00  4  7  3 41  0.0000000  0  7 23 17 21 26 29 09 15
  20679131.337   -22651692.098 9 -17639893.33548  20679134.625    20679140.1164
  21751401.645   -16963261.595 8   -969052.08447  21751405.833    21751413.8034
  22175025.967   -14735112.318 8 -11470341.34247  22175028.195    22175034.4604
  24336310.425    -2899533.042 7  17883898.61545  24336311.716    24336317.4784
  21950360.362   -15157237.030 8 -11801320.31047  21950363.696    21950369.5064
  20837159.548   -18914066.946 9 -14695363.25548  20837160.961    20837166.1274
  23898020.769    -2792580.781 8  -2157879.61445  23898024.970    23898032.6344
 00  4  7  3 41 30.0000000  0  7 23 17 21 26 29 09 15
  20676630.820   -22664828.087 9 -17650129.15448  20676634.900    20676640.6824
  21769818.700   -16866478.661 8   -893636.95347  21769823.753    21769831.0104
  22160717.223   -14810296.706 8 -11528926.51247  22160720.900    22160727.2584
  24354239.890    -2805306.260 8  17957322.01445  24354242.597    24354249.6854
  21939426.327   -15214695.432 8 -11846093.06547  21939429.485    21939435.0024
  20842095.887   -18888115.411 9 -14675141.27748  20842099.389    20842104.5654
  23878907.459    -2893066.546 8  -2236180.36345  23878905.588    23878911.5704
 00  4  7  3 42  0.0000000  0  7 23 17 21 26 29 09 15
  20674184.683   -22677687.680 9 -17660149.58648  20674188.090    20674193.3564
  21788306.639   -16769315.773 8   -817925.74247  21788312.940    21788320.9944
  22146428.200   -14885397.829 8 -11587446.81947  22146430.214    22146437.0194
  24372155.356    -2711115.803 8  18030717.10445  24372166.194    24372173.6784
  21928535.566   -15271923.331 8 -11890686.22547  21928539.119    21928544.5974
  20847150.264   -18861561.794 9 -14654450.12048  20847152.346    20847157.7474
  23859829.443    -2993284.141 8  -2314271.81645  23859833.914    23859841.0264
 00  4  7  3 42 30.0000000  0  7 23 17 21 26 29 09 15
  20671791.435   -22690262.122 9 -17669947.85048  20671795.141    20671800.6494
  21806870.787   -16671775.863 8   -741920.78047  21806874.752    21806882.3864
  22132155.499   -14960397.468 8 -11645888.08747  22132158.242    22132165.2274
  24390081.507    -2616955.137 8  18104088.98445  24390084.854    24390091.7694
  21917688.601   -15328927.229 8 -11935104.81947  21917691.202    21917696.9774
  20852317.433   -18834401.108 9 -14633285.95748  20852320.396    20852326.1044
  23840812.442    -3093231.045 8  -2392152.46645  23840813.206    23840821.9564
 00  4  7  3 43  0.0000000  0  7 23 17 21 26 29 09 15
  20669452.135   -22702557.740 9 -17679528.83948  20669455.250    20669460.9784
  21825505.308   -16573852.848 8   -665617.27547  21825509.451    21825516.8454
  22117904.286   -15035285.802 8 -11704242.53447  22117907.487    22117914.0184
  24407997.636    -2522818.347 7  18177442.29345  24407998.197    24408005.4314
  21906886.726   -15385691.445 8 -11979336.65247  21906889.804    21906895.3794
  20857602.255   -18806627.762 9 -14611644.38948  20857605.247    20857610.8514
  23821841.827    -3192904.899 8  -2469820.65045  23821845.120    23821853.5624
 00  4  7  3 43 30.0000000  0  7 23 17 21 26 29 09 15
  20667165.207   -22714578.958 9 -17688896.00848  20667167.509    20667173.3744
  21844212.925   -16475552.155 8   -589019.50547  21844214.797    21844223.1214
  22103679.034   -15110048.757 8 -11762499.41147  22103680.066    22103687.0214
  24425902.408    -2428703.274 7  18250778.66145  24425907.702    24425914.6844
  21896128.164   -15442224.378 8 -12023388.28347  21896132.005    21896137.0074
  20863004.804   -18778238.022 9 -14589522.49748  20863007.837    20863013.4894
  23802928.334    -3292301.942 8  -2547272.88945  23802930.638    23802939.2864
 00  4  7  3 44  0.0000000  0  7 23 17 21 26 29 09 15
  20664929.159   -22726322.402 9 -17698046.72948  20664933.054    20664938.5904
  21862993.224   -16376864.479 8   -512120.19747  21862995.558    21863003.0294
  22089473.864   -15184690.034 8 -11820661.50747  22089476.712    22089481.9394
  24443804.099    -2334617.053 7  18324092.54745  24443811.511    24443818.4874
  21885409.917   -15498520.537 8 -12067255.41047  21885418.907    21885424.4254
  20868524.096   -18749237.014 9 -14566924.31447  20868526.555    20868532.1214
  23784067.756    -3391420.156 7  -2624508.02245  23784070.257    23784078.3044
 00  4  7  3 44 30.0000000  0  7 23 17 21 26 29 09 15
  20662747.218   -22737788.558 9 -17706981.38348  20662751.265    20662756.7424
  21881843.078   -16277785.175 8   -434915.67647  21881849.216    21881857.2364
  22075296.079   -15259203.355 8 -11878723.76147  22075297.101    22075302.5314
  24461708.212    -2240567.484 7  18397377.94945  24461706.689    24461715.3364
  21874747.883   -15554581.465 8 -12110939.22547  21874751.388    21874756.4534
  20874156.761   -18719629.246 9 -14543853.30448  20874160.904    20874166.1674
  23765254.493    -3490255.555 7  -2701522.54445  23765262.236    23765269.9424
 00  4  7  3 45  0.0000000  0  7 23 17 21 26 29 09 15
  20660615.677   -22748988.389 9 -17715708.53048  20660619.944    20660625.6724
  21900774.996   -16178323.514 8   -357413.27747  21900776.796    21900784.3184
  22061137.932   -15333594.795 8 -11936691.14947  22061140.267    22061146.8094
  24479585.215    -2146567.766 7  18470624.43345  24479594.939    24479603.1504
  21864125.016   -15610405.670 8 -12154438.59647  21864128.204    21864133.1184
  20879907.311   -18689422.231 9 -14520315.35348  20879909.030    20879914.5504
  23746499.928    -3588806.369 7  -2778315.54145  23746507.683    23746517.6584
 00  4  7  3 45 30.0000000  0  7 23 17 21 26 29 09 15
  20658533.987   -22759927.383 9 -17724232.44848  20658538.289    20658544.0314
  21919771.845   -16078490.234 8   -279621.25947  21919774.250    21919781.9604
  22047003.571   -15407868.577 8 -11994566.77847  22047006.831    22047013.5794
  24497475.095    -2052620.020 7  18543830.37245  24497472.911    24497480.6264
  21853543.657   -15666003.405 8 -12197761.48947  21853547.650    21853552.4904
  20885770.899   -18658612.689 9 -14496307.90647  20885772.079    20885777.4764
  23727802.962    -3687068.780 8  -2854883.52345  23727808.010    23727818.6814
 00  4  7  3 46  0.0000000  0  7 23 17 21 26 29 09 15
  20656505.641   -22770594.406 9 -17732544.40048  20656508.490    20656514.1444
  21938836.468   -15978286.935 8   -201540.93846  21938841.932    21938850.1584
  22032891.872   -15482032.553 8 -12052356.88947  22032894.537    22032901.0144
  24515334.505    -1958724.489 7  18616995.60045  24515342.137    24515348.5424
  21843010.585   -15721364.674 8 -12240900.12647  21843013.468    21843018.3454
  20891747.191   -18627195.025 9 -14471826.61447  20891750.200    20891755.5184
  23709162.548    -3785039.943 8  -2931224.29145  23709166.660    23709175.1864
 00  4  7  3 46 30.0000000  0  7 23 17 21 26 29 09 15
  20654530.282   -22780981.927 9 -17740638.56948  20654531.766    20654537.2304
  21957971.529   -15877732.491 8   -123186.99946  21957977.287    21957985.3454
  22018801.507   -15556081.170 8 -12110057.08147  22018802.653    22018809.3034
  24533207.362    -1864876.575 7  18690123.81645  24533199.711    24533207.6274
  21832521.046   -15776491.886 8 -12283856.38347  21832523.325    21832527.7024
  20897843.703   -18595159.127 9 -14446863.57047  20897846.621    20897852.2814
  23690576.216    -3882717.467 7  -3007336.49845  23690578.594    23690586.5554
 00  4  7  3 47  0.0000000  0  7 23 17 21 26 29 09 15
  20652607.509   -22791083.089 9 -17748509.59848  20652609.367    20652614.9444
  21977178.008   -15776824.201 8    -44557.35346  21977179.519    21977187.8454
  22004727.231   -15630027.203 8 -12167677.33147  22004730.994    22004737.9734
  24551052.089    -1771067.385 7  18763221.88045  24551051.396    24551057.9154
  21822076.818   -15831377.873 8 -12326624.68447  21822079.003    21822083.5704
  20904060.025   -18562496.374 9 -14421412.08347  20904062.190    20904067.6024
  23672047.578    -3980097.859 8  -3083217.17545  23672047.740    23672057.3034
 00  4  7  3 47 30.0000000  0  7 23 17 21 26 29 09 15
  20650740.708   -22800887.941 9 -17756149.73448  20650743.635    20650749.3024
  21996444.840   -15675551.113 8     34356.52847  21996451.632    21996459.8544
  21990676.334   -15703864.710 8 -12225213.04347  21990680.018    21990687.1014
  24568893.117    -1677288.534 7  18836296.28045  24568896.832    24568904.6274
  21811678.344   -15886017.428 8 -12369200.94547  21811681.446    21811685.9074
  20910393.682   -18529212.097 9 -14395476.25447  20910395.816    20910401.0094
  23653563.384    -4077178.822 7  -3158864.37745  23653571.735    23653583.5904
 00  4  7  3 48  0.0000000  0  7 23 17 21 26 29 09 15
  20648933.276   -22810391.878 9 -17763555.38348  20648935.212    20648940.5134
  22015789.301   -15573918.659 8    113550.45846  22015791.360    22015799.8094
  21976649.580   -15777589.693 8 -12282661.12847  21976651.312    21976658.3774
  24586732.655    -1583536.494 7  18909349.74045  24586737.688    24586745.1604
  21801331.741   -15940402.891 8 -12411579.21447  21801331.590    21801336.5214
  20916840.637   -18495311.166 9 -14369059.92847  20916846.025    20916852.3874
  23635152.043    -4173957.544 7  -3234276.26845  23635154.914    23635166.2684
 00  4  7  3 48 30.0000000  0  7 23 17 21 26 29 09 15
  20647177.875   -22819608.538 9 -17770737.18748  20647181.057    20647186.7054
  22035195.724   -15471939.244 8    193014.73646  22035197.558    22035205.6404
  21962640.666   -15851194.682 8 -12340015.63447  21962644.767    21962651.7414
  24604569.400    -1489818.594 7  18982376.61745  24604572.692    24604580.1414
  21791027.934   -15994529.662 8 -12453755.91747  21791031.730    21791036.7614
  20923411.939   -18460799.683 9 -14342167.86447  20923413.685    20923419.7774
  23616798.918    -4270431.077 8  -3309450.49045  23616799.508    23616807.4924
 00  4  7  3 49  0.0000000  0  7 23 17 21 26 29 09 15
  20645477.563   -22828546.991 9 -17777702.17948  20645480.364    20645485.8674
  22054666.224   -15369616.919 8    272746.19546  22054668.690    22054677.4294
  21948660.345   -15924673.519 8 -12397271.81847  21948662.154    21948669.3644
  24622388.538    -1396156.074 7  19055360.41645  24622394.423    24622402.6254
  21780779.023   -16048400.916 8 -12495733.47947  21780780.422    21780785.7594
  20930094.834   -18425690.710 9 -14314810.22947  20930095.510    20930100.5504
  23598489.956    -4366596.285 7  -3384384.65845  23598497.867    23598507.7144
 00  4  7  3 49 30.0000000  0  8 23 17 05 21 26 29 09 15
  20643831.245   -22837205.684 9 -17784449.20548  20643833.006    20643838.1804
  22074197.583   -15266973.466 8    352727.93646  22074200.844    22074209.3374
  24413744.162      -92467.39817
  21934703.240   -15998015.364 8 -12454421.28447  21934705.538    21934713.0514
  24640197.085    -1302555.370 7  19128296.20345  24640206.820    24640213.6324
  21770570.100   -16102036.304 8 -12537527.27547  21770573.291    21770578.9804
  20936884.981   -18389986.326 9 -14286988.61547  20936889.550    20936894.8754
  23580255.379    -4462449.464 8  -3459075.26145  23580259.225    23580268.4984
 00  4  7  3 50  0.0000000  0  8 23 17 05 21 26 29 09 15
  20642237.184   -22845575.600 9 -17790971.19448  20642239.754    20642245.4844
  22093783.906   -15164026.867 8    432945.88846  22093791.680    22093799.4674
  24398576.318     -172209.872 7   -116589.70855  24398580.454    24398591.9384
  21920769.946   -16071225.912 8 -12511468.43647  21920773.873    21920780.6364
  24657994.952    -1209022.121 7  19201179.24545  24658005.103    24658012.5174
  21760406.176   -16155448.892 8 -12579147.45147  21760409.442    21760414.2964
  20943795.647   -18353683.148 9 -14258700.44647  20943797.995    20943803.4034
  23562071.676    -4557988.308 8  -3533520.58245  23562077.888    23562087.3134
 00  4  7  3 50 30.0000000  0  8 23 17 05 21 26 29 09 15
  20640700.744   -22853647.694 9 -17797261.14448  20640703.473    20640709.2374
  22113439.305   -15060769.268 8    513406.18746  22113439.984    22113450.3304
  24383420.940     -251886.611 8   -178674.74845  24383419.778    24383428.7004
  21906864.416   -16144305.911 9 -12568413.83647  21906867.899    21906873.6754
  24675784.293    -1115573.404 7  19273996.38345  24675787.759    24675795.2744
  21750284.136   -16208652.307 8 -12620604.64947  21750285.907    21750289.9134
  20950814.455   -18316790.917 9 -14229953.25247  20950817.655    20950823.6504
  23543958.018    -4653211.548 8  -3607720.51645  23543959.438    23543966.9974
 00  4  7  3 51  0.0000000  0  8 23 17 05 21 26 29 09 15
  20639222.093   -22861415.960 9 -17803314.32948  20639225.247    20639231.0254
  22133143.430   -14957193.459 8    594114.35846  22133151.622    22133160.1644
  24368275.191     -331491.413 7   -240703.68245  24368270.061    24368280.1204
  21892982.859   -16217260.771 9 -12625261.75547  21892984.771    21892991.1684
  24693553.091    -1022191.588 7  19346761.50145  24693556.246    24693565.1254
  21740193.974   -16261663.780 8 -12661912.28847  21740197.305    21740202.2034
  20957945.476   -18279319.073 9 -14200754.40347  20957948.260    20957954.1174
  23525899.796    -4748114.651 8  -3681671.04645  23525899.256    23525908.0224
 00  4  7  3 51 30.0000000  0  8 23 17 05 21 26 29 09 15
  20637801.281   -22868879.279 9 -17809129.89448  20637805.085    20637810.8354
  22152920.354   -14853286.476 8    675080.61746  22152924.504    22152932.6194
  24353131.928     -411022.889 7   -302675.34545  24353134.943    24353144.8684
  21879119.152   -16290098.983 8 -12682018.82447  21879123.594    21879130.2404
  24711318.120     -928847.836 7  19419496.91145  24711320.090    24711328.8914
  21730141.738   -16314469.477 8 -12703059.56847  21730148.214    21730153.7294
  20965183.238   -18241269.283 9 -14171105.19747  20965189.636    20965194.9094
  23507896.744    -4842694.724 8  -3755369.66345  23507900.352    23507908.8024
 00  4  7  3 52  0.0000000  0  8 23 17 05 21 26 29 09 15
  20636440.378   -22876043.863 9 -17814712.67148  20636441.884    20636447.4364
  22172761.266   -14749037.391 8    756313.40446  22172762.483    22172771.6074
  24338008.699     -490476.845 7   -364586.65145  24338014.061    24338023.7324
  21865285.258   -16362811.998 9 -12738678.30247  21865287.428    21865293.2834
  24729060.360     -835539.900 7  19492204.44245  24729076.217    24729084.2784
  21720140.969   -16367042.883 8 -12744025.83147  21720144.263    21720149.7154
  20972534.204   -18202649.023 9 -14141011.47047  20972538.560    20972543.6034
  23489961.290    -4936949.018 8  -3828814.25245  23489963.487    23489974.0804
 00  4  7  3 52 30.0000000  0  8 23 17 05 21 26 29 09 15
  20635127.352   -22882927.899 9 -17820076.83848  20635131.701    20635137.7494
  22192664.933   -14644437.360 8    837819.64746  22192667.347    22192676.0814
  24322897.702     -569834.917 7   -426423.33445  24322912.300    24322923.9964
  21851472.560   -16435391.165 9 -12795233.45347  21851475.974    21851482.9094
  24746821.008     -742258.414 7  19564891.32445  24746827.998    24746833.3174
  21710185.923   -16419367.966 8 -12784798.60947  21710187.134    21710192.2934
  20979992.314   -18163469.497 9 -14110481.97147  20979994.652    20979999.5714
  23472091.347    -5030874.683 8  -3902003.06645  23472091.624    23472098.9184
 00  4  7  3 53  0.0000000  0  8 23 17 05 21 26 29 09 15
  20633872.844   -22889531.148 9 -17825222.22748  20633875.439    20633881.2904
  22212630.674   -14539489.803 8    919596.67446  22212637.605    22212647.2464
  24307830.145     -649079.840 7   -488171.90945  24307831.909    24307843.6204
  21837688.689   -16507838.580 9 -12851685.95047  21837689.930    21837696.1884
  24764577.751     -648987.753 7  19637569.80845  24764577.168    24764581.6474
  21700278.861   -16471429.528 8 -12825366.05847  21700280.552    21700285.1624
  20987554.465   -18123722.244 9 -14079510.07747  20987557.405    20987563.4414
  23454279.387    -5124468.591 8  -3974933.14345  23454280.356    23454288.6604
 00  4  7  3 53 30.0000000  0  8 23 17 05 21 26 29 09 15
  20632670.360   -22895847.157 9 -17830143.78348  20632673.549    20632679.5054
  22232671.037   -14434197.451 8   1001642.29946  22232675.256    22232683.9744
  24292771.319     -728208.209 7   -549829.65545  24292774.202    24292783.3674
  21823930.809   -16580143.691 9 -12908027.55647  21823930.671    21823936.8144
  24782314.039     -555752.856 7  19710220.42745  24782318.242    24782323.5314
  21690422.991   -16523217.455 8 -12865720.27047  21690425.463    21690430.4944
  20995227.887   -18083398.771 9 -14048089.18947  20995231.059    20995236.3754
  23436528.281    -5217728.749 8  -4047603.22345  23436533.619    23436540.9694
 00  4  7  3 54  0.0000000  0  8 23 17 05 21 26 29 09 15
  20631524.331   -22901872.343 9 -17834838.72748  20631527.188    20631532.9244
  22252777.367   -14328568.512 8   1083950.16046  22252775.622    22252785.3264
  24277742.759     -807218.534 7   -611395.27345  24277739.580    24277749.1444
  21810195.725   -16652301.647 9 -12964254.46747  21810199.627    21810205.5094
  24800044.078     -462577.786 7  19782824.36745  24800049.529    24800054.5604
  21680614.744   -16574752.751 8 -12905877.61047  21680618.651    21680623.8474
  21003010.249   -18042500.580 9 -14016220.46147  21003014.063    21003019.3334
  23418840.222    -5310651.774 8  -4120010.85045  23418849.752    23418858.4654
 00  4  7  3 54 30.0000000  0  8 23 17 05 21 26 29 09 15
  20630434.524   -22907600.420 9 -17839302.14748  20630437.188    20630442.7874
  22272936.909   -14222613.806 8   1166511.93146  22272938.921    22272946.5764
  24262719.759     -886102.564 7   -672862.37545  24262727.696    24262735.3274
  21796488.515   -16724328.752 9 -13020379.46947  21796493.327    21796499.0614
  24817754.392     -369471.365 7  19855374.92245  24817766.429    24817772.5404
  21670853.855   -16626048.826 8 -12945848.55347  21670856.987    21670862.3064
  21010905.544   -18001018.170 9 -13983896.48847  21010907.314    21010912.6344
  23401232.182    -5403234.883 8  -4192153.55045  23401233.604    23401239.7614
 00  4  7  3 55  0.0000000  0  7 23 17 05 21 29 09 15
  20629402.515   -22913014.054 9 -17843520.55448  20629406.503    20629412.1974
  22293156.091   -14116347.919 8   1249316.15446  22293160.932    22293170.5804
  24247732.952     -964863.470 7   -734233.74345  24247736.670    24247747.1894
  21782809.473   -16796224.276 9 -13076401.92447  21782810.854    21782818.0254
  21661134.334   -16677121.069 8 -12985645.08147  21661137.872    21661144.1464
  21018912.936   -17958942.994 9 -13951110.64147  21018914.434    21018920.0914
  23383686.975    -5495474.543 8  -4264028.50446  23383681.989    23383688.2914
 00  4  7  3 55 30.0000000  0  7 23 17 05 21 29 09 15
  20628433.113   -22918119.009 9 -17847498.45148  20628435.236    20628440.8274
  22313440.925   -14009785.892 8   1332351.05846  22313439.310    22313448.7964
  24232770.692    -1043515.512 7   -795520.52245  24232769.283    24232779.9784
  21769151.630   -16867978.633 9 -13132314.39547  21769156.851    21769163.4004
  21651454.256   -16727975.705 8 -13025272.07047  21651461.327    21651466.5974
  21027030.352   -17916277.757 9 -13917864.98647  21027033.476    21027038.7264
  23366178.339    -5587368.874 7  -4335634.49445  23366191.267    23366201.6034
 00  4  7  3 56  0.0000000  0  7 23 17 05 21 29 09 15
  20627519.981   -22922916.953 9 -17851237.11148  20627522.205    20627527.5904
  22333766.489   -13902946.508 8   1415602.01446  22333770.176    22333779.5464
  24217819.210    -1122063.683 7   -856726.44145  24217822.604    24217831.7764
  21755525.339   -16939595.449 9 -13188119.70147  21755528.521    21755535.2074
  21641821.792   -16778614.278 8 -13064730.67947  21641825.256    21641830.4474
  21035261.935   -17873026.005 9 -13884162.30847  21035264.358    21035269.0694
  23348773.142    -5678914.030 8  -4406968.15745  23348772.084    23348780.4454
 00  4  7  3 56 30.0000000  0  7 23 17 05 21 29 09 15
  20626666.896   -22927401.714 9 -17854731.70948  20626668.767    20626674.4554
  22354149.512   -13795836.697 8   1499063.81246  22354152.992    22354162.3934
  24202892.825    -1200516.721 7   -917858.21845  24202893.701    24202902.8094
  21741925.181   -17011066.254 9 -13243811.20147  21741928.235    21741934.6644
  21632228.852   -16829026.282 8 -13104012.73847  21632232.219    21632237.5034
  21043606.503   -17829183.326 9 -13849999.17947  21043607.314    21043612.1434
  23331413.057    -5770107.792 8  -4478028.15045  23331419.724    23331425.8564
 00  4  7  3 57  0.0000000  0  7 23 17 05 21 29 09 15
  20625872.347   -22931576.284 9 -17857984.63148  20625874.331    20625880.0224
  22374585.242   -13688450.325 8   1582741.03246  22374588.333    22374598.3834
  24187979.202    -1278886.352 7   -978924.90945  24187978.968    24187987.8454
  21728345.687      -53578.33619
  21622679.816   -16879209.834 8 -13143116.78847  21622681.801    21622688.1274
  21052053.113   -17784766.413 9 -13815388.56847  21052059.112    21052064.3404
  23314129.336    -5860946.792 8  -4548811.46945  23314130.650    23314139.9874
 00  4  7  3 57 30.0000000  0  7 23 17 05 21 29 09 15
  20625135.591   -22935446.325 9 -17861000.20848  20625138.049    20625143.2954
  22395068.871   -13580785.445 8   1666635.26846  22395076.144    22395086.6484
  24173083.229    -1357170.839 7  -1039924.96845  24173082.401    24173090.3504
  21714817.170     -124725.164 9    -81881.04357  21714818.945    21714826.6764
  21613173.473   -16929159.170 8 -13182038.32947  21613177.060    21613182.5914
  21060619.159   -17739779.835 9 -13780334.08447  21060619.995    21060625.1524
  23296906.134    -5951428.719 8  -4619316.84245  23296913.195    23296920.9594
 00  4  7  3 58  0.0000000  0  7 23 17 05 21 29 09 15
  20624459.742   -22938997.536 9 -17863767.36348  20624462.137    20624467.6354
  22415610.735   -13472837.532 8   1750749.95446  22415618.258    22415628.8034
  24158196.456    -1435352.205 7  -1100844.88145  24158205.741    24158211.9144
  21701308.846     -195712.343 9   -137195.71647  21701311.317    21701318.0444
  21603713.284   -16978869.174 8 -13220773.38247  21603717.756    21603723.5654
  21069286.258   -17694224.841 9 -13744836.67047  21069288.557    21069293.7554
  23279760.016    -6041550.418 8  -4689541.41845  23279763.344    23279771.4404
 00  4  7  3 58 30.0000000  0  7 23 17 05 21 29 09 15
  20623845.151   -22942225.225 9 -17866282.44048  20623847.872    20623853.3684
  22436211.422   -13364592.361 8   1835096.31646  22436217.211    22436227.9524
  24143343.804    -1513409.164 7  -1161667.68145  24143348.588    24143358.4684
  21687832.297     -266533.341 9   -192380.88347  21687834.278    21687841.2404
  21594303.338   -17028334.880 8 -13259318.06447  21594304.591    21594310.6744
  21078058.157   -17648111.624 9 -13708904.28147  21078063.388    21078068.9304
  23262682.140    -6131309.196 8  -4759483.35045  23262683.704    23262689.8254
 00  4  7  3 59  0.0000000  0  7 23 17 05 21 29 09 15
  20623292.600   -22945130.802 9 -17868546.51048  20623294.944    20623300.5444
  22456868.744   -13256049.378 8   1919674.73046  22456872.994    22456884.4204
  24128528.596    -1591318.224 8  -1222375.46345  24128524.781    24128532.5494
  21674384.186     -337189.999 8   -247437.99747  21674388.422    21674395.7784
  21584933.823   -17077553.429 8 -13297670.18347  21584938.187    21584944.2124
  21086940.929   -17601447.714 9 -13672542.78647  21086943.321    21086949.0544
  23245666.830    -6220701.808 8  -4829139.81445  23245672.790    23245680.2234
 00  4  7  3 59 30.0000000  0  7 23 17 05 21 29 09 15
  20622799.494   -22947705.942 9 -17870553.09348  20622804.409    20622810.4274
  22477582.105   -13147212.713 8   2004481.88846  22477583.993    22477595.2424
  24113722.552    -1669064.803 7  -1282956.54245  24113729.439    24113737.1964
  21660970.504     -407690.876 9   -302373.70347  21660972.870    21660979.8424
  21575616.756   -17126524.483 8 -13335829.42247  21575619.748    21575625.5104
  21095925.898   -17554224.244 9 -13635745.27347  21095930.094    21095934.7924
  23228733.097    -6309725.953 8  -4898509.07445  23228730.849    23228739.8554
 00  4  7  4  0  0.0000000  0  7 23 17 05 21 29 09 15
  20622374.057   -22949953.074 9 -17872304.10048  20622377.006    20622382.7014
  22498351.727   -13038077.082 8   2089522.14246  22498352.464    22498362.1004
  24098965.727    -1746654.313 8  -1343415.44745  24098963.932    24098971.8374
  21647586.261     -478029.955 9   -357183.32947  21647587.821    21647594.3994
  21566345.714   -17175243.505 9 -13373792.28747  21566349.207    21566353.9994
  21105021.202   -17506445.247 9 -13598514.88547  21105022.091    21105026.6484
  23211862.159    -6398378.278 8  -4967588.34046  23211862.993    23211870.5394
 00  4  7  4  0 30.0000000  0  7 23 17 05 21 29 09 15
  20622004.326   -22951892.970 9 -17873815.69448  20622008.006    20622013.2644
  22519173.129   -12928634.550 8   2174801.54946  22519178.685    22519190.2904
  24084230.913    -1824105.010 8  -1403766.31245  24084225.147    24084233.1704
  21634231.770     -548203.382 9   -411863.90847  21634234.088    21634240.5994
  21557119.245   -17223727.293 9 -13411571.83847  21557122.968    21557128.0474
  21114214.533   -17458121.837 9 -13560860.27047  21114217.375    21114222.3144
  23195065.875    -6486656.272 8  -5036376.16245  23195061.445    23195067.0064
 00  4  7  4  1  0.0000000  0  7 23 17 05 21 29 09 15
  20621696.272   -22953519.448 9 -17875083.04048  20621698.498    20621704.3304
  22540063.362   -12818891.617 8   2260314.70046  22540063.085    22540073.6154
  24069512.934    -1901425.191 8  -1464015.59745  24069511.529    24069519.2424
  21620908.834     -618218.324 9   -466420.96947  21620911.112    21620917.6564
  21547936.345   -17271989.781 9 -13449178.95347  21547939.207    21547944.0174
  21123511.960   -17409250.045 9 -13522778.33847  21123517.100    21123522.8414
  23178331.406    -6574557.469 8  -5104870.64346  23178335.663    23178343.7254
 00  4  7  4  1 30.0000000  0  7 23 17 05 21 29 09 15
  20621448.191   -22954833.096 9 -17876106.65048  20621448.739    20621454.6234
  22560993.452   -12708853.218 8   2346058.23746  22561003.290    22561014.1004
  24054809.155    -1978627.168 8  -1524172.75245  24054820.739    24054828.3274
  21607614.004     -688072.237 9   -520852.58347  21607618.559    21607625.0454
  21538791.688   -17320043.319 9 -13486623.24947  21538794.177    21538799.6264
  21132918.089   -17359835.619 9 -13484273.60047  21132920.547    21132925.7744
  23161671.359    -6662078.456 8  -5173068.75546  23161679.819    23161689.0434
 00  4  7  4  2  0.0000000  0  7 23 17 05 21 29 09 15
  20621253.642   -22955839.616 9 -17876890.93348  20621256.973    20621262.9944
  22581996.349   -12598520.443 8   2432031.31146  22581999.778    22582011.0254
  24040155.999    -2055702.858 8  -1584231.64445  24040153.650    24040160.0834
  21594355.494     -757753.576 9   -575149.68447  21594358.848    21594365.4434
  21529685.480   -17367891.892 9 -13523907.82247  21529689.021    21529694.2514
  21142423.335   -17309891.120 9 -13445355.81447  21142425.082    21142430.5694
  23145099.966    -6749216.347 8  -5240968.16245  23145100.201    23145105.2424
 00  4  7  4  2 30.0000000  0  7 23 17 05 21 29 09 15
  20621123.324   -22956533.657 9 -17877431.74248  20621124.967    20621130.7804
  22603037.443   -12487909.668 8   2518220.71246  22603047.710    22603060.7414
  24025512.357    -2132622.678 8  -1644169.01145  24025515.836    24025521.7884
  21581131.422     -827261.144 9   -629311.37947  21581132.138    21581138.3514
  21520616.601   -17415540.793 9 -13561036.82447  21520621.980    21520627.0784
  21152022.840   -17259414.152 9 -13406023.10247  21152029.978    21152035.6104
  23128584.756    -6835968.723 8  -5308567.31046  23128590.903    23128598.3674
 00  4  7  4  3  0.0000000  0  7 23 17 05 21 29 09 15
  20621051.524   -22956903.082 9 -17877719.59848  20621054.986    20621060.5674
  22624148.698   -12377045.795 8   2604607.13246  22624146.111    22624157.8104
  24010911.321    -2209359.308 8  -1703963.57645  24010912.984    24010918.9624
  21567934.640     -896599.017 9   -683340.87747  21567937.664    21567943.5294
  21511592.164   -17462969.477 9 -13597994.23447  21511596.018    21511601.4524
  21161738.002   -17208389.871 9 -13366263.92747  21161739.784    21161745.3464
  23112155.258    -6922332.743 8  -5375863.83346  23112155.539    23112165.4754
 00  4  7  4  3 30.0000000  0  7 23 17 05 21 29 09 15
  20621040.450   -22956969.627 9 -17877771.42248  20621042.198    20621047.8884
  22645287.735   -12265926.004 8   2691193.17846  22645291.846    22645303.0074
  23996345.107    -2285907.805 8  -1763611.65145  23996345.370    23996351.6824
  21554773.447     -965758.552 9   -737231.42647  21554776.453    21554782.4774
  21502615.200   -17510151.876 9 -13634759.76647  21502617.955    21502622.0304
  21171551.996   -17156809.352 9 -13326071.32247  21171555.261    21171560.6944
  23095792.468    -7008305.109 8  -5442855.10546  23095796.680    23095804.0394
 00  4  7  4  4  0.0000000  0  7 23 17 05 21 29 09 15
  20621082.920   -22956735.355 9 -17877588.87048  20621086.651    20621092.3984
  22666483.411   -12154563.999 8   2777967.78646  22666484.425    22666496.2974
  23981814.509    -2362262.492 8  -1823108.62945  23981816.729    23981823.7764
  21541647.206    -1034736.429 9   -790980.39247  21541650.538    21541656.5614
  21493685.914   -17557068.194 8 -13671317.91947  21493689.884    21493694.2124
  21181474.209   -17104661.984 9 -13285437.02147  21181478.393    21181483.7764
  23079509.305    -7093883.193 8  -5509539.12546  23079510.171    23079518.8234
 00  4  7  4  4 30.0000000  0  7 23 17 05 21 29 09 15
  20621184.903   -22956198.527 9 -17877170.57148  20621188.875    20621194.4184
  22687718.203   -12042972.500 8   2864921.42446  22687719.719    22687731.7944
  23967314.127    -2438439.755 8  -1882467.37945  23967319.832    23967328.5074
  21528553.055    -1103541.354 9   -844594.58847  21528557.111    21528563.3814
  21484810.754   -17603708.435 8 -13707660.95747  21484814.226    21484819.6704
  21191507.484   -17051937.376 9 -13244352.91147  21191511.633    21191516.7624
  23063297.095    -7179064.764 8  -5575914.35046  23063303.199    23063310.7364
 00  4  7  4  5  0.0000000  0  7 23 17 05 21 29 09 15
  20621346.843   -22955354.297 9 -17876512.72648  20621349.245    20621355.1694
  22708993.634   -11931142.968 8   2952060.32346  22709001.152    22709012.6454
  23952848.440    -2514468.808 8  -1941710.69445  23952852.302    23952859.1114
  21515494.055    -1172173.072 9   -898073.81347  21515496.517    21515503.2464
  21475987.603   -17650070.190 9 -13743786.99847  21475992.171    21475997.5474
  21201646.480   -16998647.085 9 -13202828.03147  21201652.036    21201657.8434
  23047166.840    -7263846.683 8  -5641978.17946  23047168.163    23047175.6634
 00  4  7  4  5 30.0000000  0  7 23 17 05 21 29 09 15
  20621566.356   -22954201.076 9 -17875614.10648  20621568.789    20621574.5284
  22730327.139   -11819063.283 8   3039394.01346  22730329.810    22730342.0414
  23938400.428    -2590368.106 8  -2000852.95545  23938408.929    23938415.9574
  21502466.107    -1240617.883 9   -951407.41447  21502472.092    21502478.7744
  21467218.135   -17696174.113 9 -13779712.11247  21467219.170    21467224.2354
  21211896.074   -16944812.139 9 -13160878.72647  21211897.064    21211902.8804
  23031108.215    -7348226.103 8  -5707728.24446  23031111.351    23031118.9124
 00  4  7  4  6  0.0000000  0  7 23 17 05 21 29 09 15
  20621851.002   -22952712.268 9 -17874453.97748  20621852.273    20621857.9954
  22751697.091   -11706746.454 8   3126912.46646  22751703.617    22751716.8804
  23923995.381    -2666127.070 8  -2059885.74945  23923993.309    23923999.2034
  21489479.418    -1308873.157 9  -1004593.33447  21489483.428    21489490.2574
  21458486.176   -17742054.182 9 -13815462.78647  21458488.196    21458493.3754
  21222236.408   -16890453.243 9 -13118521.13047  21222241.062    21222246.8214
  23015126.354    -7432200.556 8  -5773162.94046  23015131.497    23015139.4384
 00  4  7  4  6 30.0000000  0  7 23 17 05 21 29 09 15
  20622196.888   -22950881.899 9 -17873027.70648  20622200.606    20622206.1064
  22773121.875   -11594178.971 8   3214626.28646  22773125.637    22773138.7674
  23909600.515    -2741738.879 8  -2118803.86245  23909604.102    23909611.6744
  21476527.547    -1376947.540 9  -1057638.30047  21476529.274    21476535.4834
  21449791.291   -17787736.955 9 -13851059.73647  21449795.076    21449800.3594
  21232678.476   -16835584.870 9 -13075766.54147  21232681.818    21232687.9694
  22999230.667    -7515766.928 8  -5838279.47546  22999230.020    22999237.9104
 00  4  7  4  7  0.0000000  0  7 23 17 05 21 29 09 15
  20622609.702   -22948705.452 9 -17871331.77948  20622614.337    20622620.5014
  22794590.745   -11481359.094 8   3302536.66146  22794594.934    22794609.6434
  23895239.997    -2817176.471 8  -2177586.28745  23895248.144    23895255.1594
  21463609.025    -1444833.888 9  -1110536.72147  21463611.721    21463617.3854
  21441134.779   -17833239.080 9 -13886515.93647  21441136.662    21441140.7414
  21243217.844   -16780220.409 9 -13032625.41247  21243217.680    21243223.4354
  22983411.505    -7598922.791 8  -5903076.31346  22983405.043    22983413.4894
 00  4  7  4  7 30.0000000  0  7 23 17 05 21 29 09 15
  20623091.126   -22946179.710 9 -17869363.66348  20623094.563    20623101.0524
  22816104.254   -11368305.927 8   3390628.59246  22816109.945    22816123.8054
  23880938.856    -2892410.769 8  -2236210.34045  23880931.760    23880937.9154
  21450727.953    -1512532.079 9  -1163288.47747  21450728.942    21450735.1184
  21432509.686   -17878563.564 8 -13921833.70647  21432511.399    21432515.6954
  21253841.549   -16724357.199 9 -12989095.64747  21253847.689    21253853.8474
  22967649.174    -7681665.203 8  -5967550.97846  22967658.001    22967668.7214
 00  4  7  4  8  0.0000000  0  7 23 17 05 21 29 09 15
  20623641.269   -22943299.915 9 -17867119.67048  20623643.245    20623649.0844
  22837664.158   -11255027.945 8   3478895.85446  22837667.198    22837681.9524
  23866652.728    -2967435.048 8  -2294670.78845  23866655.159    23866661.2584
  21437872.116    -1580062.151 9  -1215909.27247  21437877.623    21437884.3574
  21423919.267   -17923687.220 8 -13956994.96647  21423924.299    21423929.6534
  21264574.406   -16667979.971 9 -12945165.34347  21264576.243    21264581.8014
  22951990.486    -7763990.745 8  -6031700.46846  22951993.096    22952001.6514
 00  4  7  4  8 30.0000000  0  7 23 17 05 21 29 09 15
  20624255.192   -22940075.725 9 -17864607.29948  20624257.015    20624262.6774
  22859262.647   -11141524.640 8   3567338.65746  22859267.007    22859281.6304
  23852412.625    -3042258.745 8  -2352974.86745  23852415.786    23852424.0404
  21425056.721    -1647425.337 9  -1268400.11347  21425059.237    21425065.5034
  21415376.286   -17968578.255 8 -13991974.97147  21415381.702    21415387.0674
  21275401.462   -16611076.281 9 -12900824.80047  21275404.910    21275410.3874
  22936401.762    -7845897.502 8  -6095523.90946  22936406.601    22936415.4934
 00  4  7  4  9  0.0000000  0  7 23 17 05 21 29 09 15
  20624933.971   -22936496.887 9 -17861818.57448  20624937.945    20624943.6454
  22880907.351   -11027804.819 8   3655950.05546  22880908.596    22880922.9954
  23838216.001    -3116879.722 8  -2411120.87145  23838215.122    23838223.9564
  21412273.112    -1714605.269 9  -1320748.07747  21412275.266    21412281.9254
  21406885.679   -18013214.002 8 -14026756.07247  21406887.768    21406893.3094
  21286327.004   -16553641.769 9 -12856070.61447  21286333.908    21286339.6374
  22920903.948    -7927382.220 8  -6159018.25246  22920901.209    22920908.8034
 00  4  7  4  9 30.0000000  0  7 23 17 05 21 29 09 15
  20625683.782   -22932565.459 9 -17858755.08748  20625685.743    20625691.6744
  22902590.925   -10913867.125 8   3744731.21846  22902590.324    22902605.5344
  23824051.152    -3191308.375 8  -2469117.00045  23824052.702    23824060.2904
  21399526.685    -1781593.597 9  -1372946.73847  21399528.298    21399533.6234
  21398442.529   -18057575.794 9 -14061323.70447  21398446.305    21398451.4594
  21297364.466   -16495662.050 9 -12810891.60247  21297367.219    21297373.0804
  22905471.997    -8008442.997 8  -6222182.31446  22905474.733    22905483.5334
 00  4  7  4 10  0.0000000  0  7 23 17 05 21 29 09 15
  20626496.874   -22928282.308 9 -17855417.56948  20626500.854    20626506.4974
  22924313.044   -10799705.045 8   3833687.13546  22924316.475    22924332.2484
  23809924.364    -3265550.895 8  -2526968.12646  23809926.045    23809931.5514
  21386818.071    -1848386.117 9  -1424992.81647  21386817.648    21386823.9054
  21390051.685   -18101661.568 8 -14095676.25347  21390056.881    21390061.9944
  21308499.073   -16437140.979 9 -12765290.76247  21308503.370    21308509.4694
  22890129.719    -8089076.654 8  -6285013.71846  22890131.312    22890139.1154
 00  4  7  4 10 30.0000000  0  7 23 17 05 21 29 09 15
  20627379.998   -22923646.021 9 -17851804.87548  20627382.994    20627388.9474
  22946075.033   -10685326.529 8   3922811.62646  22946082.584    22946098.8344
  23795829.748    -3339581.212 8  -2584653.88246  23795837.585    23795843.9734
  21374147.976    -1914962.133 9  -1476870.21947  21374148.951    21374155.0564
  21381711.485   -18145494.788 8 -14129831.99547  21381715.854    21381720.9614
  21319737.449   -16378102.264 9 -12719286.60147  21319738.348    21319744.0254
  22874860.848    -8169280.461 8  -6347510.28146  22874869.159    22874876.9224
 00  4  7  4 11  0.0000000  0  7 23 17 05 21 29 09 15
  20628328.554   -22918663.681 9 -17847922.54048  20628330.882    20628336.6514
  22967877.385   -10570735.497 8   4012101.86546  22967889.224    22967906.4984
  23781790.667    -3413386.589 8  -2642164.37946  23781792.159    23781799.4594
  21361518.089    -1981315.475 9  -1528574.12747  21361521.850    21361528.3084
  21373415.599   -18189097.617 9 -14163808.22447  21373418.856    21373423.6974
  21331064.020   -16318558.094 9 -12672888.56047  21331069.536    21331074.7004
  22859686.878    -8249051.398 8  -6409669.37745  22859688.292    22859693.9294
 00  4  7  4 11 30.0000000  0  7 23 17 05 21 29 09 15
  20629339.035   -22913350.184 9 -17843782.13148  20629342.178    20629347.7374
  22989738.198   -10455936.431 8   4101554.04546  22989737.137    22989754.8514
  23767784.159    -3486973.966 8  -2699505.00446  23767788.877    23767796.5494
  21348933.331    -2047455.330 9  -1580111.66047  21348936.138    21348942.2014
  21365160.404   -18232478.264 9 -14197611.32347  21365163.498    21365168.4494
  21342490.021   -16258516.478 9 -12626102.90347  21342494.419    21342499.8934
  22844588.770    -8328387.043 8  -6471489.33446  22844591.945    22844597.1564
 00  4  7  4 12  0.0000000  0  7 23 17 05 21 29 09 15
  20630414.627   -22907700.170 9 -17839379.52348  20630417.657    20630422.9234
  23011621.899   -10340932.215 8   4191166.09146  23011622.549    23011640.5164
  23753828.257    -3560342.221 8  -2756674.92346  23753828.169    23753834.3524
  21336390.712    -2113381.797 9  -1631482.95247  21336391.375    21336396.6604
  21356943.838   -18275652.995 8 -14231253.96347  21356947.209    21356952.6704
  21354004.710   -16197997.273 9 -12578945.09147  21354011.164    21354016.1374
  22829578.533    -8407284.746 8  -6532967.91746  22829577.635    22829584.7874
 00  4  7  4 12 30.0000000  0  7 23 17 05 21 29 09 15
  20631550.197   -22901728.438 9 -17834726.20748  20631553.800    20631559.4314
  23033543.704   -10225719.099 8   4280940.95446  23033548.611    23033565.9764
  23739902.226    -3633499.065 8  -2813680.12346  23739906.812    23739913.5014
  21323884.374    -2179086.130 9  -1682681.09347  21323888.140    21323893.9904
  21348767.160   -18318617.626 8 -14264732.90447  21348771.134    21348776.4024
  21365617.201   -16136989.359 8 -12531406.45447  21365619.705    21365625.5124
  22814645.985    -8485742.054 8  -6594103.40046  22814648.057    22814654.6724
 00  4  7  4 13  0.0000000  0  7 23 17 05 21 29 09 15
  20632747.047   -22895442.943 9 -17829828.40848  20632750.181    20632755.9344
  23055509.148   -10110287.875 8   4370885.84946  23055514.865    23055533.4744
  23726011.952    -3706470.623 8  -2870540.89946  23726020.141    23726026.4814
  21311424.009    -2244567.683 9  -1733705.64847  21311427.052    21311432.3774
  21340635.457   -18361355.078 9 -14298034.79347  21340639.120    21340643.8964
  21377319.039   -16075477.322 9 -12483475.01247  21377325.813    21377330.6804
  22799798.274    -8563756.541 8  -6654893.97646  22799800.871    22799808.8614
 00  4  7  4 13 30.0000000  0  7 23 17 05 21 29 09 15
  20634004.267   -22888829.501 9 -17824675.07648  20634008.446    20634014.3604
  23077523.943    -9994639.919 8   4460999.52446  23077523.406    23077542.0714
  23712171.557    -3779252.839 8  -2927254.16746  23712169.374    23712175.6524
  21299005.905    -2309829.178 9  -1784558.74047  21299008.489    21299013.9804
  21332548.812   -18403862.358 9 -14331157.32947  21332550.495    21332555.5784
  21389123.187   -16013465.038 9 -12435153.77147  21389125.933    21389131.7754
  22785039.741    -8641324.372 8  -6715336.30946  22785042.644    22785049.8004
